[[{"header":{"parameterUnit":"m.s-1","parameterCategory":1,"la1":30.6,"la2":28.766,"lo1":-90.7593,"lo2":-88.6598,"dy":0.0162,"dx":0.0183,"nx":116,"ny":114,"refTime":"2023-04-22T06:00:00:Z","depth":0,"parameterNumber":2,"parameterNumberName":"U-component_of_WINDS"},"data":[0.0,0.0,0.0,0.0,0.0,0.0,0.0,0.0,0.0,0.0,0.0,0.0,0.0,0.0,0.0,0.0,0.0,0.0,0.0,0.0,0.0,0.0,0.0,0.0,0.0,0.0,0.0,0.0,0.0,0.0,0.0,0.0,0.0,0.0,0.0,0.0,0.0,0.0,0.0,0.0,0.0,0.0,0.0,0.0,0.0,0.0,0.0,0.0,0.0,0.0,0.0,0.0,0.0,0.0,0.0,0.0,0.0,0.0,0.0,0.0,0.0,0.0,0.0,0.0,0.0,0.0,0.0,0.0,0.0,0.0,0.0,0.0,0.0,0.0,0.0,0.0,0.0,0.0,0.0,0.0,0.0,0.0,0.0,0.0,0.0,0.0,0.0,0.0,0.0,0.0,0.0,0.0,0.0,0.0,0.0,0.0,0.0,0.0,0.0,0.0,0.0,0.0,0.0,0.0,0.0,0.0,0.0,0.0,0.0,0.0,0.0,0.0,0.0,0.0,0.0,0.0,0.0,0.0,0.0,0.0,0.0,0.0,0.0,0.0,0.0,0.0,0.0,0.0,0.0,0.0,0.0,0.0,0.0,0.0,0.0,0.0,0.0,0.0,0.0,0.0,0.0,0.0,0.0,0.0,0.0,0.0,0.0,0.0,0.0,0.0,0.0,0.0,0.0,0.0,0.0,0.0,0.0,0.0,0.0,0.0,0.0,0.0,0.0,0.0,0.0,0.0,0.0,0.0,0.0,0.0,0.0,0.0,0.0,0.0,0.0,0.0,0.0,0.0,0.0,0.0,0.0,0.0,0.0,0.0,0.0,0.0,0.0,0.0,0.0,0.0,0.0,0.0,0.0,0.0,0.0,0.0,0.0,0.0,0.0,0.0,0.0,0.0,0.0,0.0,0.0,0.0,0.0,0.0,0.0,0.0,0.0,0.0,0.0,0.0,0.0,0.0,0.0,0.0,0.0,0.0,0.0,0.0,0.0,0.0,0.0,0.0,0.0,0.0,0.0,0.0,0.0,0.0,0.0,0.0,0.0,0.0,0.0,0.0,0.0,0.0,0.0,0.0,0.0,0.0,0.0,0.0,0.0,0.0,0.0,0.0,0.0,0.0,0.0,0.0,0.0,0.0,0.0,0.0,0.0,0.0,0.0,0.0,0.0,0.0,0.0,0.0,0.0,0.0,0.0,0.0,0.0,0.0,0.0,0.0,0.0,0.0,0.0,0.0,0.0,0.0,0.0,0.0,0.0,0.0,0.0,0.0,0.0,0.0,0.0,0.0,0.0,0.0,0.0,0.0,0.0,0.0,0.0,0.0,0.0,0.0,0.0,0.0,0.0,0.0,0.0,0.0,0.0,0.0,0.0,0.0,0.0,0.0,0.0,0.0,0.0,0.0,0.0,0.0,0.0,0.0,0.0,0.0,0.0,0.0,0.0,0.0,0.0,0.0,0.0,0.0,0.0,0.0,0.0,0.0,0.0,0.0,0.0,0.0,0.0,0.0,0.0,0.0,0.0,0.0,0.0,0.0,0.0,0.0,0.0,0.0,0.0,0.0,0.0,0.0,0.0,0.0,0.0,0.0,0.0,0.0,0.0,0.0,0.0,0.0,0.0,0.0,0.0,0.0,0.0,0.0,0.0,0.0,0.0,0.0,0.0,0.0,0.0,0.0,0.0,0.0,0.0,0.0,0.0,0.0,0.0,0.0,0.0,0.0,0.0,0.0,0.0,0.0,0.0,0.0,0.0,0.0,0.0,0.0,0.0,0.0,0.0,0.0,0.0,0.0,0.0,0.0,0.0,0.0,0.0,0.0,0.0,0.0,0.0,0.0,0.0,0.0,0.0,0.0,0.0,0.0,0.0,0.0,0.0,0.0,0.0,0.0,0.0,0.0,0.0,0.0,0.0,0.0,0.0,0.0,0.0,0.0,0.0,0.0,0.0,0.0,0.0,0.0,0.0,0.0,0.0,0.0,0.0,0.0,0.0,0.0,0.0,0.0,0.0,0.0,0.0,0.0,0.0,0.0,0.0,0.0,0.0,0.0,0.0,0.0,0.0,0.0,0.0,0.0,0.0,0.0,0.0,0.0,0.0,0.0,0.0,0.0,0.0,0.0,0.0,0.0,0.0,0.0,0.0,0.0,0.0,0.0,0.0,0.0,0.0,0.0,0.0,0.0,0.0,0.0,0.0,0.0,0.0,0.0,0.0,0.0,0.0,0.0,0.0,0.0,0.0,0.0,0.0,0.0,0.0,0.0,0.0,0.0,0.0,0.0,0.0,0.0,0.0,0.0,0.0,0.0,0.0,0.0,0.0,0.0,0.0,0.0,0.0,0.0,0.0,0.0,0.0,0.0,0.0,0.0,0.0,0.0,0.0,0.0,0.0,0.0,0.0,0.0,0.0,0.0,0.0,0.0,0.0,0.0,0.0,0.0,0.0,0.0,0.0,0.0,0.0,0.0,0.0,0.0,0.0,0.0,0.0,0.0,0.0,0.0,0.0,0.0,0.0,0.0,0.0,0.0,0.0,0.0,0.0,0.0,0.0,0.0,0.0,0.0,0.0,0.0,0.0,0.0,0.0,0.0,0.0,0.0,0.0,0.0,0.0,0.0,0.0,0.0,0.0,0.0,0.0,0.0,0.0,0.0,0.0,0.0,0.0,0.0,0.0,0.0,0.0,0.0,0.0,0.0,0.0,0.0,0.0,0.0,0.0,0.0,0.0,0.0,0.0,0.0,0.0,0.0,0.0,0.0,0.0,0.0,0.0,0.0,0.0,0.0,0.0,0.0,0.0,0.0,0.0,0.0,0.0,0.0,0.0,0.0,0.0,0.0,0.0,0.0,0.0,0.0,0.0,0.0,0.0,0.0,0.0,0.0,0.0,0.0,0.0,0.0,0.0,0.0,0.0,0.0,0.0,0.0,0.0,0.0,0.0,0.0,0.0,0.0,0.0,0.0,0.0,0.0,0.0,0.0,0.0,0.0,0.0,0.0,0.0,0.0,0.0,0.0,0.0,0.0,0.0,0.0,0.0,0.0,0.0,0.0,0.0,0.0,0.0,0.0,0.0,0.0,0.0,0.0,0.0,0.0,0.0,0.0,0.0,0.0,0.0,0.0,0.0,0.0,0.0,0.0,0.0,0.0,0.0,0.0,0.0,0.0,0.0,0.0,0.0,0.0,0.0,0.0,0.0,0.0,0.0,0.0,0.0,0.0,0.0,0.0,0.0,0.0,0.0,0.0,0.0,0.0,0.0,0.0,0.0,0.0,0.0,0.0,0.0,0.0,0.0,0.0,0.0,0.0,0.0,0.0,0.0,0.0,0.0,0.0,0.0,0.0,0.0,0.0,0.0,0.0,0.0,0.0,0.0,0.0,0.0,0.0,0.0,0.0,0.0,0.0,0.0,0.0,0.0,0.0,0.0,0.0,0.0,0.0,0.0,0.0,0.0,0.0,0.0,0.0,0.0,0.0,0.0,0.0,0.0,0.0,0.0,0.0,0.0,0.0,0.0,0.0,0.0,0.0,0.0,0.0,0.0,0.0,0.0,0.0,0.0,0.0,0.0,0.0,0.0,0.0,0.0,0.0,0.0,0.0,0.0,0.0,0.0,0.0,0.0,0.0,0.0,0.0,0.0,0.0,0.0,0.0,0.0,0.0,0.0,0.0,0.0,0.0,0.0,0.0,0.0,0.0,0.0,0.0,0.0,0.0,0.0,0.0,0.0,0.0,0.0,0.0,0.0,0.0,0.0,0.0,0.0,0.0,0.0,0.0,0.0,0.0,0.0,0.0,0.0,0.0,0.0,0.0,0.0,0.0,0.0,0.0,0.0,0.0,0.0,0.0,0.0,0.0,0.0,0.0,0.0,0.0,0.0,0.0,0.0,0.0,0.0,0.0,0.0,0.0,0.0,0.0,0.0,0.0,0.0,0.0,0.0,0.0,0.0,0.0,0.0,0.0,0.0,0.0,0.0,0.0,0.0,0.0,0.0,0.0,0.0,0.0,0.0,0.0,0.0,0.0,0.0,0.0,0.0,0.0,0.0,0.0,0.0,0.0,0.0,0.0,0.0,0.0,0.0,0.0,0.0,0.0,0.0,0.0,0.0,0.0,0.0,0.0,0.0,0.0,0.0,0.0,0.0,0.0,0.0,0.0,0.0,0.0,0.0,0.0,0.0,0.0,0.0,0.0,0.0,0.0,0.0,0.0,0.0,0.0,0.0,0.0,0.0,0.0,0.0,0.0,0.0,0.0,0.0,0.0,0.0,0.0,0.0,0.0,0.0,0.0,0.0,0.0,0.0,0.0,0.0,0.0,0.0,0.0,0.0,0.0,0.0,0.0,0.0,0.0,0.0,0.0,0.0,0.0,0.0,0.0,0.0,0.0,0.0,0.0,0.0,0.0,0.0,0.0,0.0,0.0,0.0,0.0,0.0,0.0,0.0,0.0,0.0,0.0,0.0,0.0,0.0,0.0,0.0,0.0,0.0,0.0,0.0,0.0,0.0,0.0,0.0,0.0,0.0,0.0,0.0,0.0,0.0,0.0,0.0,0.0,0.0,0.0,0.0,0.0,0.0,0.0,0.0,0.0,0.0,0.0,0.0,0.0,0.0,0.0,0.0,0.0,0.0,0.0,0.0,0.0,0.0,0.0,0.0,0.0,0.0,0.0,0.0,0.0,0.0,0.0,0.0,0.0,0.0,0.0,0.0,0.0,0.0,0.0,0.0,0.0,0.0,0.0,0.0,0.0,0.0,0.0,0.0,0.0,0.0,0.0,0.0,0.0,0.0,0.0,0.0,0.0,0.0,0.0,0.0,0.0,0.0,0.0,0.0,0.0,0.0,0.0,0.0,0.0,0.0,0.0,0.0,0.0,0.0,0.0,0.0,0.0,0.0,0.0,0.0,0.0,0.0,0.0,0.0,0.0,0.0,0.0,0.0,0.0,0.0,0.0,0.0,0.0,0.0,0.0,0.0,0.0,0.0,0.0,0.0,0.0,0.0,0.0,0.0,0.0,0.0,0.0,0.0,0.0,0.0,0.0,0.0,0.0,0.0,0.0,0.0,0.0,0.0,0.0,0.0,0.0,0.0,0.0,0.0,0.0,0.0,0.0,0.0,0.0,0.0,0.0,0.0,0.0,0.0,0.0,0.0,0.0,0.0,0.0,0.0,0.0,0.0,0.0,0.0,0.0,0.0,0.0,0.0,0.0,0.0,0.0,0.0,0.0,0.0,0.0,0.0,0.0,0.0,0.0,0.0,0.0,0.0,0.0,0.0,0.0,0.0,0.0,0.0,0.0,0.0,0.0,0.0,0.0,0.0,0.0,0.0,0.0,0.0,0.0,0.0,0.0,0.0,0.0,0.0,0.0,0.0,0.0,0.0,0.0,0.0,0.0,0.0,0.0,0.0,0.0,0.0,0.0,0.0,0.0,0.0,0.0,0.0,0.0,0.0,0.0,0.0,0.0,0.0,0.0,0.0,0.0,0.0,0.0,0.0,0.0,0.0,0.0,0.0,0.0,0.0,0.0,0.0,0.0,0.0,0.0,0.0,0.0,0.0,0.0,0.0,0.0,0.0,0.0,0.0,0.0,0.0,0.0,0.0,0.0,0.0,0.0,0.0,0.0,0.0,0.0,0.0,0.0,0.0,0.0,0.0,0.0,0.0,0.0,0.0,0.0,0.0,0.0,0.0,0.0,0.0,0.0,0.0,0.0,0.0,0.0,0.0,0.0,0.0,0.0,0.0,0.0,0.0,0.0,0.0,0.0,0.0,0.0,0.0,0.0,0.0,0.0,0.0,0.0,0.0,0.0,0.0,0.0,0.0,0.0,0.0,0.0,0.0,0.0,0.0,0.0,0.0,0.0,0.0,0.0,0.0,0.0,0.0,0.0,0.0,0.0,0.0,0.0,0.0,0.0,0.0,0.0,0.0,0.0,0.0,0.0,0.0,0.0,0.0,0.0,0.0,0.0,0.0,0.0,0.0,0.0,0.0,0.0,0.0,0.0,0.0,0.0,0.0,0.0,0.0,0.0,0.0,0.0,0.0,0.0,0.0,0.0,0.0,0.0,0.0,0.0,0.0,0.0,0.0,0.0,0.0,0.0,0.0,0.0,0.093,0.125,0.0,0.0,0.0,0.0,0.0,0.0,0.0,0.0,0.0,0.0,0.0,0.0,0.0,0.0,0.0,0.0,0.0,0.0,0.0,0.0,0.0,0.0,0.0,0.0,0.0,0.0,0.0,0.0,0.0,0.0,0.0,0.0,0.0,0.0,0.0,0.0,0.0,-0.7558,-0.7658,-0.7802,-0.7998,-0.7795,-0.7296,-0.6555,0.0,0.0,0.0,0.0,0.0,0.0,0.0,0.0,0.0,0.0,0.0,0.0,0.0,0.0,0.0,0.0,0.0,0.0,0.0,0.0,0.0,0.0,0.0,0.0,0.0,0.0,0.0,0.0,0.0,0.0,0.0,0.0,0.0,0.0,0.0,0.0,0.0,0.0,0.0,0.0,0.0,0.0,0.0,0.0,0.0,0.0,0.0,0.0,0.0,0.0,0.0,0.0,0.0,0.0,0.0,0.0,0.0,0.0,0.0,0.0,0.0,0.0,0.0,0.0,0.0,0.0,0.0,0.0,0.0,0.0,-0.0278,0.0294,0.0,0.0,0.0,0.0,0.0,0.0,0.0,0.0,0.0,0.0,0.0,0.0,0.0,0.0,0.0,0.0,0.0,0.0,0.0,0.0,0.0,0.0,0.0,-0.4526,-0.4948,-0.5317,-0.5294,-0.5384,0.0,0.0,0.0,0.0,0.0,0.0,0.0,-0.8103,-0.8359,-0.8846,-0.9112,-0.9347,-0.9543,-0.9437,-0.8655,-0.7345,-0.7355,0.0,0.0,0.0,0.0,0.0,0.0,0.0,0.0,0.0,0.0,0.0,0.0,0.0,0.0,0.0,0.0,0.0,0.0,0.0,0.0,0.0,0.0,0.0,0.0,0.0,0.0,0.0,0.0,0.0,0.0,0.0,0.0,0.0,0.0,0.0,0.0,0.0,0.0,0.0,0.0,0.0,0.0,0.0,0.0,0.0,0.0,0.0,0.0,0.0,0.0,0.0,0.0,0.0,0.0,0.0,0.0,0.0,0.0,0.0,0.0,0.0,0.0,0.0,-0.1803,-0.1844,-0.1834,-0.1834,-0.1877,-0.1864,-0.109,-0.0364,0.0257,0.0201,0.0,0.0,0.0,0.0,0.0,0.0,0.0,0.0,0.0,0.0,0.0,0.0,0.0,0.0,0.0,0.0,0.0,0.0,0.0,0.0,0.0,-0.3164,-0.3284,-0.3514,-0.4311,-0.4838,-0.4918,0.0,0.0,0.0,0.0,0.0,-0.8924,-0.8722,-0.8746,-0.9064,-0.9543,-0.9901,-1.0088,-1.0373,-1.0281,-0.9878,-0.9139,-0.8549,-0.8074,0.0,0.0,0.0,0.0,0.0,0.0,0.0,0.0,0.0,0.0,0.0,0.0,0.0,0.0,0.0,0.0,0.0,0.0,0.0,0.0,0.0,0.0,0.0,0.0,0.0,0.0,0.0,0.0,0.0,0.0,0.0,0.0,0.0,0.0,0.0,0.0,0.0,0.0,0.0,0.0,0.0,-0.1893,-0.1951,0.0,0.0,0.0,0.0,0.0,0.0,0.0,0.0,0.0,0.0,0.0,0.0,0.0,-0.1771,-0.1765,-0.1825,-0.1872,-0.1872,-0.1932,-0.1981,-0.1959,-0.1959,-0.1991,-0.1994,-0.1849,0.0,-0.1464,-0.1494,0.0,0.0,0.0,0.0,0.0,0.0,0.0,0.0,0.0,0.0,0.0,0.0,0.0,0.0,0.0,0.0,0.0,0.0,0.0,0.0,0.0,-0.3867,-0.4594,-0.4917,-0.5892,-0.6519,-0.654,-0.7501,0.0,0.0,0.0,-0.8985,-0.8823,-0.878,-0.8999,-0.9498,-1.0181,-1.061,-1.0761,-1.0915,-1.0976,-1.1013,-1.0509,-0.993,-0.9367,-0.9164,0.0,0.0,0.0,0.0,0.0,0.0,0.0,0.0,0.0,0.0,0.0,0.0,0.0,0.0,0.0,0.0,0.0,0.0,0.0,0.0,0.0,0.0,0.0,0.0,0.0,0.0,0.0,0.0,0.0,0.0,0.0,0.0,0.0,0.0,0.0,0.0,0.0,0.0,0.0,-0.243,-0.2445,-0.1879,-0.1971,-0.2001,0.0,0.0,0.0,0.0,0.0,0.0,0.0,0.0,0.0,-0.1806,-0.1836,-0.1858,-0.1843,-0.193,-0.1975,-0.2007,-0.2087,-0.2109,-0.211,-0.2127,-0.2125,-0.2109,-0.2109,-0.2049,-0.1915,-0.1882,-0.1586,-0.1174,0.0,0.0,0.0,0.0,-0.0849,-0.099,0.0,0.0,0.0,0.0,0.0,0.0,0.0,0.0,0.0,0.0,0.0,0.0,-0.3505,-0.4781,-0.578,-0.6124,-0.713,-0.7737,-0.7689,-0.8047,-0.8129,-0.7814,-0.8453,-0.8748,-0.8653,-0.8822,-0.9189,-0.9751,-1.058,-1.1101,-1.128,-1.1417,-1.1598,-1.1768,-1.163,-1.1143,-1.0447,-1.0184,-0.9965,-0.973,0.0,0.0,0.0,0.0,0.0,0.0,0.0,0.0,0.0,0.0,0.0,0.0,0.0,0.0,0.0,0.0,0.0,0.0,0.0,0.0,0.0,0.0,0.0,0.0,0.0,0.0,0.0,0.0,0.0,0.0,0.0,0.0,0.0,0.0,0.0,0.0,0.0,-0.2744,-0.2739,-0.1928,-0.196,-0.1986,0.0,0.0,0.0,0.0,0.0,0.0,-0.1844,-0.1896,-0.1919,-0.1943,-0.1973,-0.1992,-0.1969,-0.2012,-0.208,-0.211,-0.2174,-0.2193,-0.22,-0.2215,-0.221,-0.2189,-0.2189,-0.2141,-0.2023,-0.1943,-0.1884,-0.18,-0.1792,-0.1757,-0.1714,-0.1735,-0.1724,-0.1597,0.0,0.0,0.0,0.0,0.0,0.0,0.0,0.0,0.0,0.0,0.0,-0.5027,-0.491,-0.5279,-0.5572,-0.5715,-0.6712,-0.7276,-0.7153,-0.8112,-0.8581,-0.8361,-0.8651,-0.8793,-0.8785,-0.9112,-0.938,-0.9624,-1.0535,-1.1168,-1.1503,-1.2018,-1.2345,-1.2539,-1.2531,-1.2034,-1.1114,-1.0802,-1.0479,-1.0129,-0.9746,0.0,0.0,0.0,0.0,0.0,0.0,0.0,0.0,0.0,0.0,0.0,0.0,0.0,0.0,0.0,0.0,0.0,0.0,0.0,0.0,0.0,0.0,0.0,0.0,0.0,0.0,0.0,0.0,0.0,0.0,0.0,0.0,0.0,0.0,0.0,0.0,0.0,0.0,-0.1916,-0.2415,0.0,0.0,0.0,0.0,-0.1934,-0.188,-0.1937,-0.1997,-0.2002,-0.2011,-0.2095,-0.2161,-0.2192,-0.2187,-0.2189,-0.2206,-0.2201,-0.2215,-0.2204,-0.2196,-0.2203,-0.219,-0.2189,-0.2189,-0.2153,-0.2089,-0.2028,-0.1918,-0.1805,-0.1804,-0.1801,-0.1799,-0.1801,-0.1756,-0.1596,0.0,0.0,0.0,0.0,0.0,0.0,0.0,0.0,-0.4176,-0.425,-0.4735,-0.5138,-0.5304,-0.6268,-0.6978,-0.7174,-0.8236,-0.8775,-0.8484,-0.8608,-0.8643,-0.8484,-0.8464,-0.8599,-0.8847,-0.9274,-0.9666,-1.0051,-1.0903,-1.1492,-1.1837,-1.2287,-1.265,-1.2946,-1.3069,-1.2873,-1.2385,-1.1717,-1.1175,-1.0794,-1.0209,-0.9917,0.0,0.0,0.0,0.0,0.0,0.0,0.0,0.0,0.0,0.0,0.0,0.0,0.0,0.0,0.0,0.0,0.0,0.0,0.0,0.0,0.0,0.0,0.0,0.0,0.0,0.0,0.0,0.0,0.0,0.0,0.0,0.0,0.0,0.0,0.0,0.0,0.0,-0.2065,-0.2297,0.0,-0.2046,-0.2226,-0.2297,-0.2034,-0.2069,-0.2109,-0.2119,-0.2139,-0.213,-0.2162,-0.2173,-0.2183,-0.2194,-0.2194,-0.2199,-0.221,-0.2189,-0.2208,-0.22,-0.2189,-0.2207,-0.2188,-0.2167,-0.2135,-0.2093,-0.202,-0.1931,-0.1868,-0.1857,-0.184,-0.1808,-0.1801,-0.1776,-0.1734,0.0,0.0,0.0,0.0,0.0,0.0,0.0,0.0,-0.5013,-0.513,-0.5717,-0.6255,-0.66,-0.7691,-0.8519,-0.8757,-0.9442,-0.9727,-0.9362,-0.8933,-0.8621,-0.8444,-0.8444,-0.8608,-0.9001,-0.9452,-0.9867,-1.031,-1.0994,-1.1456,-1.1743,-1.2135,-1.2497,-1.2851,-1.3072,-1.3164,-1.3068,-1.2556,-1.1996,-1.1422,-1.0951,-1.0699,-1.0561,0.0,0.0,0.0,0.0,0.0,0.0,0.0,0.0,0.0,0.0,0.0,0.0,0.0,0.0,0.0,0.0,0.0,0.0,0.0,0.0,0.0,0.0,0.0,0.0,0.0,0.0,0.0,0.0,0.0,0.0,0.0,0.0,0.0,0.0,-0.2331,-0.2529,-0.2147,-0.2248,-0.2265,-0.214,-0.2198,-0.2255,-0.2159,-0.2236,-0.2273,-0.2259,-0.2279,-0.2255,-0.2255,-0.2255,-0.2249,-0.224,-0.223,-0.2225,-0.2225,-0.2216,-0.2194,-0.22,-0.22,-0.2184,-0.2186,-0.2123,-0.2093,-0.2093,-0.2031,-0.1959,-0.1945,-0.1904,-0.1859,-0.1827,-0.1808,-0.1808,-0.1792,0.0,0.0,0.0,0.0,0.0,0.0,0.0,-0.4702,-0.6032,-0.6351,-0.751,-0.8459,-0.8885,-0.9453,-0.9958,-1.027,-1.0109,-0.9893,-0.9639,-0.9042,-0.8581,-0.8328,-0.8567,-0.8872,-0.9241,-0.9605,-0.9985,-1.0297,-1.0755,-1.1072,-1.1221,-1.1633,-1.2004,-1.231,-1.2662,-1.2893,-1.3111,-1.3293,-1.2848,-1.1999,-1.1866,-1.1679,-1.1406,0.0,0.0,0.0,0.0,0.0,0.0,0.0,0.0,0.0,0.0,0.0,0.0,0.0,0.0,0.0,0.0,0.0,0.0,0.0,0.0,0.0,0.0,0.0,0.0,0.0,0.0,0.0,0.0,0.0,0.0,0.0,0.0,0.0,-0.202,-0.2112,-0.2185,-0.2128,-0.2268,-0.2347,-0.2232,-0.2324,-0.2366,-0.2307,-0.2365,-0.2417,-0.2417,-0.2417,-0.2416,-0.2416,-0.2416,-0.2364,-0.2297,-0.2307,-0.2292,-0.2292,-0.2226,-0.2195,-0.2202,-0.22,-0.2184,-0.2186,-0.2121,-0.2091,-0.2093,-0.203,-0.2001,-0.2005,-0.1914,-0.1914,-0.1883,-0.1824,-0.1793,-0.179,0.0,0.0,0.0,0.0,0.0,0.0,0.0,-0.4748,-0.6184,-0.6366,-0.7685,-0.8804,-0.9339,-0.9863,-1.0276,-1.0575,-1.0263,-0.9971,-0.9744,-0.9001,-0.8608,-0.8723,-0.8933,-0.9356,-0.9988,-0.9947,-1.0157,-1.0602,-1.0818,-1.1114,-1.1432,-1.179,-1.2122,-1.2455,-1.2672,-1.2826,-1.2899,-1.2925,-1.2739,-1.2349,-1.2075,-1.1777,-1.1453,0.0,0.0,0.0,0.0,0.0,0.0,0.0,0.0,0.0,0.0,0.0,0.0,0.0,0.0,0.0,0.0,0.0,0.0,0.0,0.0,0.0,0.0,0.0,0.0,0.0,0.0,0.0,0.0,0.0,0.0,0.0,-0.2059,-0.2155,-0.2135,-0.2263,-0.2348,-0.2397,-0.2472,-0.2516,-0.248,-0.2521,-0.2529,-0.2469,-0.2451,-0.2482,-0.2482,-0.2423,-0.241,-0.241,-0.239,-0.2373,-0.2365,-0.2337,-0.2285,-0.2284,-0.2292,-0.2263,-0.2197,-0.221,-0.2184,-0.2185,-0.2132,-0.2105,-0.2092,-0.2041,-0.2015,-0.2006,-0.1967,-0.1945,-0.1885,-0.1884,-0.1854,-0.1789,0.0,0.0,0.0,0.0,0.0,0.0,0.0,-0.4458,-0.5576,-0.5755,-0.6685,-0.7466,-0.7896,-0.8301,-0.8617,-0.883,-0.9067,-0.9068,-0.8811,-0.8716,-0.8838,-0.9176,-0.9483,-0.992,-1.0453,-1.05,-1.0643,-1.0907,-1.0995,-1.1139,-1.1384,-1.1559,-1.1783,-1.2065,-1.2328,-1.2515,-1.2545,-1.2717,-1.2736,-1.2594,-1.2319,-1.2082,-1.1865,-1.1293,-1.0981,-1.0798,-1.0509,-1.0375,-1.0286,-1.0004,0.0,0.0,0.0,0.0,0.0,0.0,0.0,0.0,0.0,0.0,0.0,0.0,0.0,0.0,0.0,0.0,0.0,0.0,0.0,0.0,0.0,0.0,0.0,0.0,-0.2204,-0.2285,-0.2365,-0.2427,-0.2459,-0.2526,-0.256,-0.2587,-0.2582,-0.2615,-0.2615,-0.2556,-0.2547,-0.2533,-0.2548,-0.2491,-0.2469,-0.2443,-0.2413,-0.2384,-0.236,-0.2305,-0.2291,-0.2315,-0.2298,-0.2275,-0.2209,-0.2214,-0.2184,-0.2185,-0.2136,-0.2109,-0.2092,-0.2014,-0.1988,0.0,0.0,0.0,0.0,0.0,-0.1834,-0.1811,0.0,0.0,0.0,0.0,0.0,0.0,0.0,-0.3824,-0.4501,-0.4721,-0.5121,-0.5459,-0.5614,-0.5894,-0.6148,-0.6285,-0.7132,-0.7527,-0.7174,-0.8158,-0.8983,-0.942,-1.0038,-1.0466,-1.0765,-1.1063,-1.12,-1.12,-1.1213,-1.1227,-1.1227,-1.124,-1.1322,-1.1451,-1.1804,-1.2023,-1.2158,-1.251,-1.2646,-1.2638,-1.2462,-1.2431,-1.2365,-1.1854,-1.1644,-1.16,-1.1264,-1.0812,-1.0335,-1.0286,0.0,0.0,0.0,0.0,0.0,0.0,0.0,0.0,0.0,0.0,0.0,0.0,0.0,0.0,0.0,0.0,0.0,0.0,0.0,0.0,0.0,0.0,0.0,0.0,-0.2328,-0.2454,-0.2595,-0.2551,-0.2555,-0.2622,-0.2628,-0.2605,-0.2619,-0.2662,-0.2669,-0.2611,-0.2587,-0.2617,-0.2603,-0.2596,0.0,0.0,0.0,-0.2361,-0.2307,-0.2296,-0.2316,-0.229,-0.2288,-0.227,-0.2205,-0.2213,-0.2184,-0.2186,-0.2123,-0.2094,-0.2099,-0.2033,-0.2003,-0.2005,-0.1947,-0.1904,-0.1894,-0.1837,-0.1814,-0.1804,0.0,0.0,0.0,0.0,0.0,0.0,0.0,-0.2805,-0.3555,-0.3739,-0.4726,-0.5487,-0.5731,-0.5961,-0.6139,-0.6281,-0.6245,-0.604,-0.5647,-0.7132,-0.8132,-0.8383,-0.9838,-1.0772,-1.1104,-1.1166,-1.12,-1.12,-1.1322,-1.1348,-1.1348,-1.147,-1.1545,-1.1572,-1.165,-1.17,-1.1727,-1.1799,-1.1828,-1.1828,-1.1801,-1.1895,-1.2086,-1.1922,-1.1635,-1.1289,-1.1324,-1.1358,-1.1289,-1.0887,-1.0907,-1.0737,-0.9034,-0.8408,0.0,0.0,0.0,0.0,0.0,0.0,0.0,0.0,0.0,0.0,0.0,0.0,0.0,0.0,0.0,0.0,0.0,0.0,0.0,-0.2327,-0.2489,-0.2602,-0.2664,-0.2727,-0.2733,-0.2739,-0.2728,-0.2676,-0.2669,-0.2699,-0.2677,-0.2599,-0.2579,-0.2596,-0.2602,-0.2536,-0.2518,-0.2506,-0.2453,-0.2381,-0.2369,-0.2335,-0.2296,-0.229,-0.223,0.0,-0.2208,-0.2203,-0.2184,-0.2186,-0.2123,-0.2106,-0.2097,-0.2041,-0.2003,-0.2006,-0.2001,-0.1952,-0.1896,-0.1891,-0.1832,-0.1806,0.0,0.0,0.0,0.0,0.0,0.0,0.0,-0.2057,-0.2453,-0.257,-0.3181,-0.3636,-0.379,-0.3886,-0.3982,-0.4041,-0.4386,-0.4818,-0.5355,-0.6283,-0.6923,-0.7238,-0.821,-0.883,-0.9054,-0.9079,-0.9106,-0.9106,-0.9171,-0.9597,-1.0316,-0.9623,-1.0125,-1.1584,-1.0779,-1.0925,-1.1692,-1.1692,-1.1692,-1.1692,-1.1692,-1.1789,-1.1907,-1.1983,-1.1861,-1.1676,-1.187,-1.1898,-1.1809,-1.1579,-1.1025,-1.0215,-0.9065,-0.7991,-0.6984,0.0,0.0,0.0,0.0,0.0,0.0,0.0,0.0,0.0,0.0,0.0,0.0,0.0,0.0,-0.2133,-0.2173,0.0,-0.2402,-0.2536,-0.262,-0.2654,-0.273,-0.2796,-0.28,-0.2785,-0.277,-0.2755,-0.2696,-0.2681,-0.2702,-0.2672,-0.2656,-0.2634,-0.2605,-0.2574,-0.2552,-0.2537,-0.2463,-0.2416,-0.2401,-0.2342,-0.2297,-0.2232,-0.2217,-0.2194,-0.22,-0.2184,-0.2203,-0.2188,-0.2172,-0.2123,-0.2105,-0.2044,-0.2009,-0.1996,-0.2013,-0.1967,-0.1949,-0.1919,-0.1869,-0.1791,0.0,0.0,0.0,0.0,0.0,0.0,0.0,-0.144,-0.1457,-0.1531,-0.1641,-0.1704,-0.1696,-0.1762,-0.1782,-0.178,-0.2573,-0.3605,-0.4814,-0.529,-0.5695,-0.6028,-0.6566,-0.6868,-0.6903,-0.6969,-0.7006,-0.7006,-0.7006,-0.7621,-0.8817,-0.7566,-0.8341,-1.0643,-0.9423,-0.963,-1.0872,-1.0872,-1.089,-1.0872,-1.0884,-1.0903,-1.0922,-1.1127,-1.1557,-1.2139,-1.2393,-1.2291,-1.1983,-1.1749,-1.0646,-0.9323,-0.8577,-0.724,-0.5859,-0.5485,-0.4447,0.0,0.0,0.0,0.0,0.0,0.0,0.0,0.0,-0.2026,-0.2108,-0.2174,-0.222,-0.2307,-0.2402,-0.2508,-0.2585,-0.2692,-0.2736,-0.2731,-0.283,-0.2837,-0.2829,-0.2804,-0.2796,-0.2782,-0.2715,-0.2707,-0.2733,-0.2703,-0.2697,-0.2679,-0.2607,-0.2613,-0.2583,-0.26,-0.2477,-0.2417,-0.2387,-0.235,-0.2271,-0.2218,-0.2213,-0.2194,-0.2199,-0.2208,-0.2195,-0.2189,-0.2189,-0.2171,-0.2105,-0.2056,-0.1998,-0.1985,-0.1993,-0.1888,-0.1726,-0.1852,-0.1898,-0.1765,0.0,0.0,0.0,0.0,0.0,0.0,0.0,0.0,-0.0916,-0.0987,-0.1215,-0.1363,-0.1343,-0.1635,-0.1775,-0.1718,-0.187,-0.2103,-0.2387,-0.3742,-0.4629,-0.4808,-0.6216,-0.699,-0.699,-0.6998,-0.7006,-0.7006,-0.7006,-0.7078,-0.7259,-0.7088,-0.7199,-0.7497,-0.7397,-0.7439,-0.764,-0.764,-0.7612,-0.7642,-0.7632,-0.7701,-0.7808,-0.7812,-0.9629,-1.2139,-1.2393,-1.2223,-1.165,-1.0394,-0.979,-0.9058,-0.6125,-0.515,-0.4723,-0.3196,-0.2536,-0.2286,-0.2216,-0.2086,-0.2031,-0.2132,-0.2121,-0.2142,0.0,-0.2353,-0.2363,-0.2451,-0.2518,-0.2566,-0.2579,-0.2631,-0.2695,-0.2762,-0.2799,-0.283,-0.2864,-0.2868,-0.2868,-0.2909,-0.284,-0.2778,-0.2775,-0.2795,-0.2765,-0.2692,-0.2707,-0.2679,-0.2607,-0.2594,-0.2603,-0.26,-0.2536,-0.245,-0.2418,-0.2324,-0.2281,-0.2286,-0.2224,-0.2194,-0.22,-0.2196,-0.2214,-0.2189,-0.2189,-0.2171,-0.2109,-0.2102,-0.2067,-0.1986,-0.2015,-0.1467,-0.0769,-0.1608,-0.1914,-0.1768,0.0,0.0,0.0,0.0,0.0,0.0,0.0,0.0,0.0,-0.0881,-0.0992,-0.1132,-0.1276,-0.1568,-0.1713,-0.1656,-0.1752,-0.1846,-0.1949,-0.2666,-0.3145,-0.3207,-0.3873,-0.4278,-0.4248,-0.4309,-0.4341,-0.4341,-0.4341,-0.4799,-0.5651,-0.4749,-0.532,-0.7037,-0.6101,-0.6277,-0.7207,-0.7207,-0.7258,-0.7256,-0.7259,-0.7298,-0.7306,-0.7296,-0.8156,-0.9361,-0.9493,-0.9382,0.0,-0.8502,-0.7664,-0.6623,-0.5246,-0.4153,-0.324,-0.2523,-0.223,-0.2153,-0.2109,-0.2161,-0.2168,-0.2199,-0.224,-0.2309,-0.2446,-0.248,-0.2549,-0.26,-0.2665,-0.2713,-0.2731,-0.2769,-0.2806,-0.2876,-0.2846,-0.2859,-0.2917,-0.2919,-0.2867,-0.2849,-0.2836,-0.2785,-0.2785,-0.2816,-0.2797,-0.2766,-0.2736,-0.2671,-0.2658,-0.2627,-0.2585,-0.2585,-0.2549,-0.2502,-0.245,-0.2408,-0.2326,-0.2315,-0.2267,-0.2236,-0.2191,-0.2208,-0.1842,-0.1212,-0.1212,-0.0838,-0.0233,-0.0231,-0.0229,-0.0194,-0.016,0.035,0.0883,-0.0555,-0.07,-0.0091,0.0,0.0,0.0,0.0,0.0,0.0,0.0,0.0,0.0,0.0,-0.0721,-0.0854,-0.1127,-0.1402,-0.1539,-0.1492,-0.1692,-0.184,-0.1911,-0.207,-0.2192,-0.2222,-0.2259,-0.2295,-0.2327,-0.2369,-0.2391,-0.2391,-0.2437,-0.3016,-0.4067,-0.296,-0.3655,-0.5787,-0.466,-0.4828,-0.601,-0.601,-0.6052,-0.6073,-0.6075,-0.6029,-0.601,-0.5973,-0.5974,-0.6099,-0.705,-0.7291,-0.7109,-0.6725,-0.5743,-0.4654,-0.4277,-0.3289,-0.2288,-0.2279,-0.2222,-0.2176,-0.2178,-0.2234,-0.2293,-0.2268,-0.2354,-0.2488,-0.2549,-0.2593,-0.2683,-0.2716,-0.2772,-0.2815,-0.2837,-0.2859,-0.2921,-0.2885,-0.2879,-0.2921,-0.2885,-0.2871,-0.272,-0.23,-0.2285,-0.2104,-0.1715,-0.2338,-0.2823,-0.281,-0.2773,-0.2707,-0.2707,-0.2664,-0.2611,-0.2602,-0.2571,-0.2525,-0.2507,-0.2447,-0.2221,-0.1805,-0.1805,-0.149,-0.0885,-0.0728,-0.0205,0.0574,0.0539,0.0974,0.1678,0.1695,0.1684,0.1709,0.1757,0.223,0.276,0.1445,0.124,0.1752,0.0,0.0,0.0,0.0,0.0,0.0,0.0,0.0,0.0,0.0,0.0,0.0,0.0,-0.1062,-0.1213,-0.1213,-0.1566,-0.1818,-0.1909,-0.2031,-0.2167,-0.2282,-0.2316,-0.2323,-0.2381,-0.2383,-0.2385,-0.2385,-0.2451,-0.2505,-0.2585,-0.2567,-0.2635,-0.2716,-0.2704,-0.2678,-0.2761,-0.2761,-0.2739,-0.2763,-0.2743,-0.2759,-0.2747,-0.2612,-0.2519,-0.2871,-0.612,-0.7093,-0.6604,-0.5235,-0.4586,-0.4084,-0.2713,-0.2276,-0.228,-0.2229,-0.2159,-0.2131,-0.2185,-0.2266,-0.2319,-0.2471,-0.253,-0.2612,-0.2673,-0.2733,-0.2785,-0.2818,-0.2849,-0.2916,-0.2917,-0.2919,-0.2883,-0.2911,-0.2891,-0.2883,-0.2911,-0.2866,-0.2299,-0.1015,-0.091,-0.0387,0.1042,-0.1229,-0.2841,-0.2914,-0.2815,-0.2782,-0.2782,-0.2653,-0.2591,-0.2602,-0.2613,-0.2568,-0.2509,-0.2506,-0.1839,-0.0567,-0.0567,0.0485,0.2361,0.2965,0.3251,0.3281,0.3137,0.3117,0.3151,0.3149,0.3189,0.3249,0.3247,0.3839,0.4724,0.4657,0.4004,0.3259,0.0,0.0,0.0,0.0,0.0,0.0,0.0,0.0,0.0,0.0,0.0,0.0,0.0,0.0,0.0,0.0,-0.126,-0.1503,-0.1564,-0.1865,-0.2075,-0.2166,-0.2258,-0.2323,-0.2326,-0.2366,-0.2433,-0.2454,-0.2484,-0.251,-0.257,-0.259,-0.261,-0.2587,-0.2597,-0.2613,-0.259,-0.259,-0.2607,-0.2672,-0.2612,-0.2617,-0.2588,-0.2436,-0.2338,-0.2391,0.0,-0.3739,-0.3532,-0.3065,-0.2845,-0.2701,-0.228,-0.2138,-0.2148,-0.2152,-0.2153,-0.2181,-0.2249,-0.2384,-0.2532,-0.2593,-0.2671,-0.2739,-0.2799,-0.2829,-0.2846,-0.2856,-0.2819,-0.2784,-0.2784,-0.2032,-0.1428,-0.1321,-0.0579,-0.0045,0.0,0.0045,0.0224,0.0613,0.0651,0.082,0.1246,0.0431,-0.0131,-0.0133,-0.0044,0.0,0.0,0.0085,0.0083,0.0041,0.0,0.0278,0.0868,0.0821,0.1316,0.2369,0.2293,0.2624,0.3304,0.3408,0.3829,0.4453,0.4397,0.4738,0.5339,0.5339,0.5322,0.5368,0.5368,0.5814,0.6467,0.6559,0.6558,0.6422,0.0,0.0,0.0,0.0,0.0,0.0,0.0,0.0,0.0,0.0,0.0,0.0,0.0,0.0,0.0,0.0,0.0,0.0,-0.0082,-0.0526,-0.0802,-0.0835,-0.1139,-0.1316,-0.131,-0.1333,-0.1356,-0.1343,-0.1737,-0.1956,-0.1949,-0.2359,-0.2577,-0.2555,-0.2577,-0.2597,-0.2616,-0.2616,-0.262,-0.2623,-0.2551,-0.2499,-0.2489,-0.2377,-0.2249,0.0,-0.21,-0.2014,-0.1953,-0.1931,-0.1938,-0.1963,-0.2001,-0.2061,-0.2121,-0.2164,-0.22,-0.225,-0.2361,-0.2508,-0.2615,-0.2716,-0.2778,-0.2694,-0.2237,-0.211,-0.1972,-0.1518,-0.1353,-0.1324,-0.1319,-0.0672,-0.0084,0.0,0.0693,0.1276,0.1399,0.1435,0.1598,0.2111,0.2477,0.2844,0.3308,0.3539,0.3041,0.1402,0.1706,0.1918,0.191,0.226,0.2436,0.241,0.2325,0.2579,0.3128,0.3105,0.3548,0.4515,0.5164,0.5441,0.5372,0.5529,0.5884,0.6464,0.6398,0.6714,0.7242,0.7242,0.7219,0.7187,0.7187,0.7412,0.7751,0.7814,0.8001,0.8119,0.0,0.0,0.0,0.0,0.0,0.0,0.0,0.0,0.0,0.0,0.0,0.0,0.0,0.0,0.0,0.0,0.0,0.0,0.233,0.1782,0.1438,0.1437,0.0873,0.0546,0.0536,0.0537,0.0578,0.07,-0.0319,-0.0795,-0.0742,-0.1825,-0.2385,-0.2426,-0.2483,-0.2548,-0.2588,-0.2588,-0.2532,-0.2497,-0.2408,-0.2338,-0.2278,-0.2221,-0.2149,-0.2088,-0.2028,-0.1956,-0.1892,-0.1837,-0.186,-0.1911,-0.1914,-0.1991,-0.2139,-0.2259,-0.23,-0.2349,-0.2551,-0.2549,-0.2517,-0.2672,-0.2676,-0.2291,-0.0897,-0.0583,-0.0223,0.1016,0.1255,0.1188,0.109,0.107,0.1022,0.1047,0.121,0.1396,0.1606,0.1664,0.2213,0.3705,0.4577,0.5625,0.6938,0.7758,0.6408,0.1993,0.2585,0.3158,0.3084,0.395,0.4416,0.4411,0.436,0.4349,0.4383,0.4419,0.4954,0.6055,0.7825,0.8607,0.8492,0.9056,0.9247,0.9092,0.8979,0.8859,0.8814,0.8808,0.8738,0.8595,0.859,0.8584,0.8568,0.8465,0.8388,0.8367,0.0,0.0,0.0,0.0,0.0,0.0,0.0,0.0,0.0,0.0,0.0,0.0,0.0,0.0,0.0,0.0,0.0,0.0,0.2682,0.2288,0.2097,0.2156,0.1517,0.1196,0.1236,0.079,0.0604,0.0621,0.035,0.0248,0.0325,-0.0037,-0.0591,-0.1294,-0.1341,-0.1718,-0.2391,-0.2391,-0.2348,-0.2336,-0.2271,-0.2234,-0.2212,-0.2155,-0.2129,-0.2088,-0.2028,-0.1956,-0.1902,-0.194,-0.1996,-0.2072,-0.2117,-0.2134,-0.2199,-0.2316,-0.2438,-0.2556,-0.2637,-0.1957,-0.118,-0.1168,-0.0408,0.0499,0.0862,0.0902,0.0935,0.1169,0.1212,0.1168,0.0977,0.1886,0.2722,0.2808,0.4458,0.5742,0.5905,0.6583,0.7149,0.7356,0.7603,0.7834,0.8035,0.8259,0.7913,0.6679,0.6785,0.6943,0.7064,0.7261,0.7389,0.7309,0.7218,0.7429,0.8028,0.8549,0.8906,0.9085,0.9461,0.9561,0.9361,0.9435,0.9329,0.9098,0.9065,0.8984,0.8865,0.8807,0.8787,0.8748,0.8622,0.8535,0.847,0.8524,0.8492,0.8367,0.0,0.0,0.0,0.0,0.0,0.0,0.0,0.0,0.0,0.0,0.0,0.0,0.0,0.0,0.0,0.0,0.0,0.0,0.0,0.4083,0.3841,0.3835,0.3321,0.3034,0.303,0.2553,0.2419,0.2614,0.1963,0.1672,0.1696,0.1256,0.0582,-0.0206,-0.0243,-0.0523,-0.1047,-0.1466,-0.1635,0.0,0.0,-0.2106,-0.2121,-0.2071,-0.2041,-0.2053,-0.202,-0.199,-0.1985,-0.206,-0.2117,-0.2147,-0.2255,-0.2318,-0.2347,-0.2452,-0.2094,-0.1701,-0.1759,-0.075,0.0316,0.0366,0.1279,0.2268,0.2773,0.314,0.3471,0.3844,0.3852,0.3749,0.3614,0.4361,0.5067,0.5183,0.6617,0.7771,0.8,0.8549,0.8903,0.8824,0.9157,0.933,0.922,0.9532,0.9728,0.9762,0.9324,0.907,0.9123,0.9518,0.9709,0.9691,0.9536,0.9648,1.0062,1.0333,1.0468,1.0356,1.0182,1.0003,0.9818,0.9693,0.9514,0.9291,0.9291,0.9157,0.8989,0.8959,0.8867,0.8798,0.8727,0.8595,0.8492,0.8508,0.8475,0.8367,0.0,0.0,0.0,0.0,0.0,0.0,0.0,0.0,0.0,0.0,0.0,0.0,0.0,0.0,0.0,0.0,0.0,0.0,0.0,0.0,0.5921,0.5843,0.5444,0.52,0.5135,0.4779,0.4797,0.5186,0.3911,0.3293,0.3281,0.2491,0.1776,0.1122,0.0994,0.0877,0.0682,-0.0195,-0.0549,-0.0543,-0.1323,-0.1621,-0.1605,0.0,-0.1729,-0.1729,-0.1636,-0.1647,-0.168,-0.1502,-0.1782,-0.2213,-0.2155,-0.2198,-0.2197,-0.207,-0.1188,-0.0174,-0.0089,0.1006,0.2182,0.2275,0.3084,0.4028,0.4908,0.5633,0.6382,0.7202,0.7207,0.7033,0.6962,0.7052,0.7224,0.739,0.797,0.8505,0.8899,0.9101,0.9282,0.9389,1.0,1.0423,1.0409,1.0984,1.1384,1.1494,1.0698,1.017,1.0117,1.0858,1.1335,1.1313,1.1161,1.1041,1.0922,1.0693,1.0609,1.0593,1.0335,1.0155,0.9975,0.9856,0.972,0.9508,0.9508,0.9383,0.9147,0.913,0.9024,0.8852,0.8836,0.8731,0.8622,0.8508,0.8465,0.8443,0.0,0.0,0.0,0.0,0.0,0.0,0.0,0.0,0.0,0.0,0.658,0.6698,0.0,0.0,0.0,0.0,0.0,0.0,0.0,0.0,0.0,0.6611,0.6166,0.5858,0.5744,0.5318,0.5103,0.5127,0.4975,0.4859,0.4821,0.4863,0.4339,0.3323,0.2913,0.2279,0.1469,0.081,0.0574,0.0609,0.0456,0.0428,0.0432,-0.0123,0.0,0.0,0.0277,0.0437,0.061,0.2039,0.0326,-0.2187,-0.1105,-0.0774,-0.0629,0.0524,0.1071,0.1494,0.2405,0.3754,0.5112,0.5916,0.7042,0.7891,0.7718,0.7609,0.7484,0.7196,0.698,0.6813,0.6612,0.6849,0.7156,0.7523,0.857,0.9539,1.0101,1.0925,1.1454,1.1465,1.1499,1.1469,1.1374,1.1414,1.1477,1.1499,1.1321,1.1222,1.1206,1.1378,1.1423,1.1319,1.1161,1.1041,1.0922,1.0775,1.0655,1.0593,1.0457,1.0237,0.9975,0.9856,0.9764,0.9676,0.9676,0.9594,0.9416,0.9318,0.9193,0.9027,0.8924,0.887,0.8838,0.8753,0.8743,0.871,0.0,0.0,0.0,0.0,0.0,0.0,0.0,0.6801,0.6848,0.6898,0.6926,0.6947,0.7007,0.7062,0.71,0.0,0.0,0.0,0.0,0.0,0.0,0.0,0.6558,0.6378,0.6179,0.5843,0.5737,0.5893,0.0,0.5765,0.5666,0.5862,0.5504,0.4669,0.4452,0.4065,0.3579,0.2807,0.2516,0.2583,0.2072,0.1948,0.2009,0.0,0.0,0.0,0.1876,0.1975,0.2109,0.2913,0.2034,0.0771,0.1718,0.1995,0.2139,0.2912,0.3743,0.4543,0.5127,0.6468,0.7814,0.817,0.9003,0.9605,0.8931,0.8879,0.8828,0.8262,0.7979,0.782,0.7703,0.7896,0.8209,0.8517,0.9407,1.0234,1.0849,1.1408,1.1873,1.2063,1.1928,1.1751,1.1692,1.1563,1.1499,1.1499,1.1499,1.1499,1.1499,1.1499,1.1472,1.1412,1.1253,1.1161,1.1107,1.0922,1.0802,1.0742,1.0563,1.0451,1.0291,1.0112,0.9965,0.9851,0.9786,0.9655,0.9481,0.9421,0.9296,0.9092,0.9033,0.8973,0.8908,0.8854,0.8823,0.8787,0.0,0.0,0.0,0.0,0.0,0.0,0.0,0.7116,0.7103,0.7199,0.7231,0.7215,0.7073,0.7193,0.7242,0.0,0.0,0.0,0.0,0.0,0.0,0.0,0.0,0.0,0.6455,0.0,0.0,0.6698,0.6514,0.0,0.0,0.0,0.0,0.0,0.5644,0.5592,0.5536,0.4672,0.4387,0.0,0.0,0.3502,0.3595,0.0,0.0,0.0,0.0,0.3631,0.3728,0.4072,0.4389,0.4765,0.5292,0.5075,0.476,0.5159,0.6293,0.7444,0.7823,0.8982,1.002,1.0047,1.0445,1.0581,0.9739,0.9743,0.978,0.9217,0.8921,0.8776,0.8798,0.8927,0.915,0.9438,0.9905,1.0511,1.1139,1.1422,1.1699,1.2085,1.1949,1.1819,1.1819,1.1596,1.1499,1.1499,1.1499,1.1499,1.1499,1.1499,1.1499,1.1499,1.1379,1.1303,1.1281,1.1052,1.089,1.0878,1.0688,1.062,1.0588,1.0313,1.015,1.0013,0.9861,0.972,0.9525,0.9497,0.9362,0.9136,0.9136,0.9076,0.8989,0.8962,0.8897,0.8845,0.0,0.0,0.0,0.0,0.0,0.0,0.0,0.7214,0.7322,0.7221,0.735,0.7408,0.7289,0.7381,0.7394,0.0,0.0,0.0,0.0,0.0,0.0,0.0,0.0,0.0,0.0,0.0,0.0,0.6953,0.6959,0.0,0.0,0.0,0.0,0.0,0.0,0.6209,0.6177,0.5536,0.0,0.0,0.0,0.0,0.0,0.0,0.0,0.0,0.0,0.5816,0.6061,0.7781,0.8545,0.8846,0.932,0.7843,0.6175,0.7494,0.8363,0.9158,1.0298,1.09,1.1339,1.2162,1.2133,1.1633,1.0758,1.0201,0.9683,0.9201,0.8851,0.8672,0.8781,0.8825,0.8989,0.941,0.9665,1.0096,1.0987,1.1226,1.1482,1.1949,1.1895,1.1819,1.1819,1.1596,1.1499,1.1499,1.1499,1.1499,1.1499,1.1499,1.1499,1.1499,1.1379,1.1221,1.1118,1.1096,1.0976,1.0712,1.069,1.0661,1.0588,1.0313,1.0199,1.0172,0.9899,0.9769,0.9682,0.9536,0.941,0.9291,0.9291,0.928,0.9258,0.9119,0.9076,0.9049,0.0,0.0,0.0,0.0,0.0,0.0,0.7723,0.7533,0.7472,0.7658,0.7508,0.7392,0.7414,0.7527,0.7502,0.7237,0.0,0.0,0.0,0.0,0.0,0.0,0.0,0.0,0.0,0.0,0.6997,0.7117,0.716,0.0,0.0,0.0,0.0,0.0,0.0,0.6849,0.6826,0.6641,0.0,0.0,0.0,0.0,0.0,0.0,0.0,0.0,0.0,0.0,0.7592,0.8347,0.88,0.9076,0.9231,0.8799,0.8487,0.9611,1.0248,1.0784,1.1683,1.2162,1.248,1.2671,1.2346,1.177,1.0885,1.0221,0.9622,0.9179,0.8899,0.8748,0.8798,0.8743,0.8769,0.9076,0.9269,0.9606,1.0346,1.0552,1.0889,1.163,1.1504,1.1504,1.1792,1.1596,1.1499,1.1499,1.1499,1.1499,1.1499,1.1499,1.1499,1.1499,1.145,1.1406,1.1357,1.1172,1.1052,1.0954,1.0766,1.0672,1.0593,1.0429,1.0275,1.0193,0.998,0.984,0.9764,0.9644,0.9525,0.94,0.9258,0.9168,0.9152,0.9033,0.8946,0.8921,0.0,0.0,0.0,0.0,0.0,0.8009,0.8071,0.7764,0.7609,0.7863,0.7571,0.7392,0.7479,0.7562,0.7491,0.7259,0.7237,0.0,0.0,0.0,0.0,0.0,0.0,0.0,0.0,0.0,0.7106,0.7291,0.7284,0.7343,0.0,0.0,0.7262,0.7231,0.0,0.0,0.0,0.0,0.0,0.0,0.0,0.0,0.0,0.0,0.0,0.0,0.0,0.0,0.0,0.0,0.0,0.8849,0.883,0.912,0.9622,1.0476,1.1107,1.1645,1.213,1.2618,1.2921,1.2716,1.2237,1.1639,1.0863,1.0182,0.9616,0.9253,0.8992,0.8823,0.8823,0.8753,0.8753,0.8887,0.9017,0.9293,0.985,1.0074,1.0405,1.115,1.1084,1.1118,1.1563,1.1559,1.1499,1.1499,1.1499,1.1499,1.1499,1.1499,1.1499,1.1499,1.1499,1.1466,1.1395,1.1221,1.1079,1.0938,1.076,1.0634,1.0489,1.0329,1.021,1.009,0.997,0.9867,0.978,0.9704,0.9611,0.9416,0.9247,0.9109,0.9033,0.8952,0.8865,0.8834,0.0,0.0,0.0,0.0,0.0,0.0,0.7827,0.7801,0.7753,0.762,0.7543,0.7489,0.7489,0.7381,0.7311,0.7305,0.7305,0.0,0.0,0.0,0.0,0.0,0.0,0.0,0.0,0.0,0.716,0.7484,0.7365,0.743,0.7693,0.7419,0.7305,0.73,0.0,0.0,0.0,0.0,0.0,0.0,0.0,0.0,0.8099,0.0,0.0,0.0,0.0,0.0,0.0,0.0,0.0,0.0,0.0,0.8856,0.9044,0.9639,1.0525,1.1401,1.1726,1.213,1.2493,1.2488,1.1993,1.1379,1.0804,1.0182,0.9638,0.9351,0.9076,0.8914,0.8914,0.8914,0.8914,0.8919,0.9017,0.926,0.9737,0.9905,1.0155,1.056,1.0604,1.0746,1.1074,1.1363,1.1499,1.1499,1.1499,1.1499,1.1499,1.1499,1.1499,1.1499,1.1499,1.1384,1.1107,1.1215,1.1073,1.0604,1.0683,1.0552,1.0204,1.0079,0.9915,0.9796,0.972,0.9709,0.9709,0.9709,0.9525,0.9307,0.9302,0.9125,0.8919,0.8919,0.8914,0.8914,0.0,0.0,0.0,0.0,0.0,0.0,0.0,0.7872,0.7792,0.8097,0.7813,0.7652,0.7817,0.7602,0.7397,0.7316,0.7258,0.0,0.0,0.0,0.0,0.0,0.0,0.0,0.0,0.0,0.7294,0.7489,0.7562,0.7627,0.7698,0.7622,0.7468,0.7311,0.7383,0.7355,0.0,0.0,0.0,0.0,0.0,0.8137,0.8182,0.0,0.0,0.0,0.0,0.0,0.0,0.0,0.0,0.0,0.0,0.0,0.0,0.9092,0.9818,1.0639,1.1085,1.1493,1.1759,1.1596,1.1194,1.0779,1.034,0.9883,0.9497,0.934,0.9147,0.9044,0.9044,0.8973,0.8968,0.913,0.9226,0.9334,0.9563,0.984,1.0155,1.0555,1.0992,1.1308,1.1384,1.1455,1.1499,1.1499,1.1499,1.1499,1.1499,1.1499,1.1499,1.1499,1.1499,1.1423,1.1221,1.1177,1.0998,1.0677,1.0679,1.0554,1.0324,1.0204,1.0079,0.991,0.9753,0.9715,0.978,0.9704,0.966,0.953,0.9285,0.9054,0.8897,0.873,0.8704,0.8715,0.0,0.0,0.0,0.0,0.0,0.0,0.0,0.7894,0.7814,0.8191,0.7828,0.7627,0.7881,0.7611,0.7404,0.7441,0.7317,0.0,0.0,0.0,0.0,0.0,0.0,0.0,0.0,0.7274,0.7392,0.7589,0.7709,0.7812,0.7905,0.7856,0.7731,0.754,0.7573,0.7489,0.0,0.0,0.0,0.0,0.8115,0.8138,0.8171,0.0,0.0,0.0,0.0,0.0,0.0,0.0,0.0,0.0,0.0,0.0,0.0,0.0,0.9282,0.9916,1.0438,1.0878,1.1161,1.1058,1.0726,1.0362,1.0139,0.9775,0.9454,0.9329,0.9247,0.9152,0.9109,0.9071,0.9082,0.9226,0.9275,0.9345,0.947,0.9753,1.0085,1.0489,1.1009,1.1335,1.1259,1.1423,1.1499,1.1499,1.1499,1.1499,1.1499,1.1499,1.1499,1.1499,1.1455,1.1374,1.121,1.1047,1.0846,1.0601,1.0558,1.0433,1.0242,1.0123,0.9986,0.9899,0.9753,0.9709,0.0,0.9742,0.9682,0.9616,0.9356,0.9103,0.8892,0.8731,0.8628,0.86,0.0,0.0,0.0,0.0,0.0,0.0,0.0,0.7901,0.7859,0.802,0.768,0.7533,0.7777,0.7455,0.7335,0.7644,0.0,0.0,0.0,0.0,0.0,0.0,0.0,0.0,0.721,0.7279,0.7435,0.7703,0.7853,0.8002,0.8199,0.8154,0.8028,0.7897,0.7769,0.766,0.0,0.0,0.0,0.0,0.8133,0.816,0.0,0.0,0.0,0.0,0.0,0.0,0.0,0.0,0.0,0.0,0.0,0.0,0.0,0.0,0.0,0.0,0.0,1.024,1.063,1.078,1.0471,1.0139,1.0139,0.9796,0.0,0.9329,0.9302,0.9269,0.913,0.9231,0.9275,0.9141,0.9258,0.9372,0.9487,0.9726,0.9986,1.0394,1.0748,1.0949,1.0933,1.1248,1.1499,1.1499,1.1499,1.1499,1.1499,1.1499,1.1499,1.1499,1.1374,1.121,1.1107,1.0825,1.0628,1.0384,1.028,1.0161,1.003,0.9867,0.9813,0.9807,0.972,0.9709,0.9714,0.978,0.9693,0.9487,0.9476,0.9258,0.8903,0.8823,0.8732,0.859,0.0,0.0,0.0,0.0,0.0,0.0,0.0,0.0,0.0,0.0,0.7995,0.7771,0.7933,0.7539,0.73,0.0,0.0,0.0,0.0,0.0,0.0,0.0,0.0,0.0,0.721,0.7366,0.7522,0.7703,0.7941,0.8089,0.8204,0.8172,0.8079,0.7903,0.7973,0.7935,0.0,0.0,0.0,0.0,0.8111,0.8133,0.0,0.0,0.0,0.0,0.8204,0.8307,0.0,0.0,0.0,0.0,0.0,0.0,0.0,0.0,0.8736,0.8889,0.9024,0.0,0.9764,0.9699,0.9601,0.9514,0.0,0.9427,0.934,0.9307,0.9302,0.9296,0.9269,0.9285,0.9323,0.9394,0.9503,0.9633,0.966,1.0107,1.0525,1.0889,1.121,1.1303,1.1079,1.1302,1.1499,1.1499,1.1499,1.1499,1.1499,1.1499,1.1499,1.1499,1.1253,1.1128,1.1101,1.0954,1.071,1.0384,1.0484,1.0362,1.0155,0.9991,0.9937,0.9926,0.9758,0.9709,0.9709,0.9736,0.9622,0.9476,0.9383,0.9152,0.8914,0.8887,0.8774,0.86,0.0,0.0,0.0,0.0,0.0,0.0,0.0,0.0,0.0,0.0,0.0,0.7723,0.7719,0.7432,0.0,0.0,0.0,0.0,0.0,0.0,0.0,0.0,0.0,0.7209,0.7236,0.7475,0.7687,0.7892,0.8137,0.828,0.8399,0.8399,0.8269,0.8035,0.8023,0.7963,0.0,0.0,0.0,0.8155,0.8204,0.0,0.0,0.0,0.0,0.0,0.8106,0.8231,0.0,0.853,0.8628,0.8705,0.0,0.0,0.0,0.0,0.871,0.8803,0.8803,0.9041,0.9323,0.9307,0.9264,0.9242,0.9291,0.922,0.9125,0.9179,0.919,0.9242,0.9296,0.9302,0.9345,0.9465,0.9541,0.972,0.9998,1.0358,1.0751,1.1128,1.1292,1.133,1.1308,1.1423,1.1477,1.1417,1.1466,1.1477,1.1417,1.1466,1.1499,1.1499,1.1319,1.1183,1.1183,1.0846,1.0606,1.05,1.0402,1.0302,1.0286,1.0161,1.0106,1.009,0.9851,0.9682,0.9622,0.9622,0.9616,0.96,0.9497,0.9323,0.9071,0.9017,0.8811,0.8595,0.0,0.0,0.0,0.0,0.0,0.0,0.0,0.0,0.0,0.0,0.0,0.0,0.0,0.0,0.0,0.0,0.0,0.0,0.0,0.0,0.0,0.0,0.722,0.7247,0.7359,0.7578,0.7807,0.8115,0.8307,0.8486,0.8617,0.8633,0.8508,0.822,0.8046,0.7963,0.0,0.0,0.8204,0.8159,0.8334,0.0,0.0,0.0,0.0,0.0,0.0,0.0,0.0,0.8465,0.8628,0.8776,0.8754,0.0,0.0,0.0,0.0,0.0,0.8798,0.8959,0.9141,0.9237,0.9168,0.9147,0.9258,0.9103,0.9,0.9103,0.9125,0.9157,0.9313,0.9334,0.9378,0.9519,0.959,0.9829,1.0411,1.062,1.0833,1.1243,1.121,1.1243,1.1434,1.1477,1.1455,1.1352,1.1423,1.1434,1.1346,1.1444,1.1499,1.1499,1.1363,1.1292,1.1292,1.071,1.046,1.0538,1.0193,1.0144,1.0329,1.0221,1.0177,1.0161,0.9899,0.9715,0.9514,0.9492,0.9546,0.9676,0.966,0.9487,0.9291,0.9157,0.8943,0.8638,0.0,0.0,0.0,0.0,0.0,0.0,0.0,0.0,0.0,0.0,0.0,0.0,0.0,0.0,0.0,0.0,0.0,0.0,0.0,0.0,0.0,0.747,0.7332,0.7387,0.7644,0.7578,0.7733,0.8177,0.8318,0.853,0.8781,0.8816,0.8681,0.8356,0.835,0.822,0.8072,0.0,0.8378,0.8367,0.8405,0.0,0.0,0.0,0.0,0.0,0.0,0.0,0.0,0.8248,0.8437,0.86,0.8503,0.0,0.0,0.0,0.0,0.0,0.8776,0.9019,0.9231,0.9017,0.9109,0.9258,0.9141,0.9168,0.9253,0.9275,0.928,0.9313,0.9438,0.9459,0.953,0.971,1.0047,1.0422,1.0922,1.1009,1.1047,1.1118,1.1378,1.1449,1.1183,1.1384,1.1494,1.1472,1.139,1.1379,1.1466,1.1488,1.1499,1.1499,1.1243,1.1128,1.1128,1.0793,1.0541,1.0259,1.0204,1.0139,1.0074,1.0057,1.0047,1.0002,0.9861,0.9764,0.9671,0.953,0.9497,0.9503,0.94,0.934,0.9302,0.9285,0.9082,0.8849,0.0,0.0,0.0,0.0,0.0,0.0,0.0,0.0,0.0,0.0,0.0,0.0,0.0,0.0,0.0,0.0,0.0,0.0,0.0,0.0,0.7826,0.7837,0.7693,0.7676,0.779,0.7832,0.8046,0.8524,0.8616,0.8795,0.9057,0.8916,0.8731,0.8503,0.8345,0.8258,0.8166,0.8345,0.8383,0.8388,0.0,0.0,0.0,0.0,0.0,0.0,0.0,0.0,0.0,0.0,0.8394,0.8579,0.8524,0.0,0.0,0.0,0.0,0.0,0.8688,0.8889,0.9071,0.9027,0.928,0.947,0.9351,0.9313,0.9323,0.9389,0.9351,0.9378,0.9628,0.9677,0.9796,1.0166,1.0585,1.0922,1.1079,1.1156,1.1243,1.1373,1.1476,1.1498,1.14,1.1487,1.1498,1.1412,1.1406,1.1412,1.1401,1.1461,1.1466,1.1401,1.1248,1.1069,1.0808,1.0693,1.0525,1.0302,1.0166,1.0106,1.0117,1.0013,0.998,1.0008,0.0,0.9677,0.96,0.9438,0.9427,0.9481,0.9427,0.9973,1.0927,1.1825,1.2088,1.1983,0.0,0.0,0.0,0.0,0.0,0.0,0.0,0.0,0.0,0.0,0.0,0.0,0.0,0.0,0.0,0.0,0.0,0.0,0.0,0.0,0.7957,0.8077,0.8023,0.8001,0.8028,0.8094,0.8377,0.8856,0.8941,0.9136,0.9421,0.9063,0.8812,0.866,0.8454,0.8296,0.8253,0.8372,0.8459,0.8465,0.0,0.0,0.0,0.0,0.0,0.0,0.0,0.0,0.0,0.0,0.0,0.0,0.0,0.0,0.0,0.8622,0.8606,0.8661,0.8661,0.8829,0.9022,0.9114,0.9383,0.959,0.9606,0.9519,0.9481,0.9661,0.9601,0.9601,0.9834,0.9932,1.0155,1.0653,1.1079,1.1346,1.1275,1.1346,1.1471,1.161,1.1596,1.1563,1.1583,1.1612,1.1514,1.1374,1.1417,1.1428,1.1363,1.145,1.1455,1.1363,1.1303,1.1031,1.0642,1.0588,1.0484,1.0297,1.0112,1.0068,1.0155,1.0063,0.998,1.0008,0.9802,0.9639,0.9519,0.9394,0.94,0.9487,0.9454,1.0323,1.1744,1.3091,1.3834,1.4173,0.0,0.0,0.0,0.0,0.0,0.0,0.0,0.0,0.0,0.0,0.0,0.0,0.0,0.0,0.0,0.0,0.0,0.0,0.0,0.0,0.7957,0.8077,0.8155,0.8231,0.8378,0.8242,0.848,0.9071,0.922,0.9454,0.9753,0.9432,0.9144,0.8887,0.8791,0.8611,0.8378,0.8524,0.8573,0.8579,0.8584,0.0,0.0,0.0,0.0,0.0,0.0,0.0,0.0,0.0,0.0,0.0,0.0,0.0,0.8781,0.8622,0.8699,0.8792,0.8792,0.9014,0.928,0.9291,0.9313,0.9443,0.9883,0.985,0.9861,1.0248,1.0226,1.0144,1.0172,1.0356,1.0669,1.1003,1.1319,1.1565,1.1737,1.1775,1.1786,1.1757,1.1797,1.1754,1.16,1.1536,1.1504,1.1488,1.139,1.1374,1.1483,1.1494,1.1494,1.1488,1.1232,1.0987,1.0684,1.0509,1.028,1.0047,1.003,1.0025,0.9991,0.9986,0.998,0.9975,0.9845,0.9758,0.9687,0.9525,0.9476,0.9476,0.9362,0.9638,1.0083,1.046,1.1547,1.2836,0.0,0.0,0.0,0.0,0.0,0.0,0.0,0.0,0.0,0.0,0.0,0.0,0.0,0.0,0.0,0.0,0.0,0.0,0.0,0.7671,0.7888,0.8155,0.8177,0.8258,0.8383,0.8519,0.8861,0.9465,0.9655,0.9742,0.9726,0.9367,0.9068,0.8834,0.8709,0.8606,0.8524,0.8801,0.8917,0.8917,0.9189,0.9213,0.0,0.0,0.0,0.0,0.0,0.0,0.0,0.0,0.8534,0.8633,0.8781,0.8976,0.9081,0.8957,0.9124,0.9298,0.9058,0.944,0.9929,0.9975,1.0152,1.0292,1.0257,1.021,1.0259,1.0547,1.0568,1.0495,1.0495,1.0851,1.1177,1.1243,1.1476,1.1688,1.1659,1.177,1.1819,1.1819,1.1819,1.1743,1.1542,1.1547,1.1504,1.1395,1.1412,1.145,1.1499,1.1499,1.1466,1.139,1.1559,1.1487,1.1159,1.1352,1.1341,1.1042,1.0599,1.0253,1.0019,1.0489,1.0794,1.0968,1.0263,1.0884,1.2332,1.1653,1.2095,1.3281,1.4402,1.5021,1.5442,1.6396,1.7367,1.8144,0.0,0.0,0.0,0.0,0.0,0.0,0.0,0.0,0.0,0.0,0.0,0.0,0.0,0.0,0.0,0.0,0.0,0.0,0.7424,0.7611,0.7828,0.8106,0.8199,0.8318,0.847,0.8742,0.9122,0.9649,0.9965,1.0075,0.9909,0.9576,0.9365,0.9222,0.9086,0.9013,0.9007,0.9207,0.9289,0.9322,0.9594,0.9639,0.0,0.0,0.0,0.0,0.0,0.0,0.0,0.0,0.8819,0.8869,0.9106,0.93,0.942,0.9324,0.9485,0.9689,0.9415,0.9777,1.0277,1.0383,1.07,1.0964,1.0942,1.0946,1.1059,1.1419,1.1413,1.1244,1.0948,1.1241,1.1472,1.1368,1.1574,1.1703,1.1654,1.1719,1.1819,1.1819,1.1748,1.1639,1.1515,1.1626,1.1671,1.1549,1.1748,1.1887,1.1887,1.2325,1.2304,1.1656,1.2896,1.3203,1.2326,1.305,1.3326,1.307,1.2738,1.2056,1.1134,1.2194,1.2695,1.274,1.2131,1.2809,1.4341,1.3652,1.4119,1.5399,1.6728,1.7417,1.7801,1.8823,1.9788,2.046,0.0,0.0,0.0,0.0,0.0,0.0,0.0,0.0,0.0,0.0,0.0,0.0,0.0,0.0,0.0,0.0,0.0,0.0,0.73,0.7568,0.7752,0.7897,0.822,0.847,0.8617,0.8943,0.9253,0.9523,1.0124,1.0391,1.0407,1.0191,1.0154,1.0171,0.9973,0.9884,0.9878,0.9749,0.9694,0.9694,0.97,0.97,0.0,0.0,0.0,0.0,0.0,0.0,0.0,0.0,0.9755,0.9723,0.9929,0.9902,0.9792,0.9737,0.9753,0.9817,0.9884,1.0023,1.0195,1.046,1.0835,1.1276,1.1957,1.2116,1.2343,1.3153,1.2999,1.2412,1.1494,1.1472,1.1598,1.1527,1.1558,1.1677,1.1797,1.1813,1.1813,1.1813,1.1646,1.1538,1.1538,1.1868,1.2056,1.2056,1.2493,1.2761,1.2761,1.4199,1.4244,1.2515,1.5487,1.6196,1.4356,1.5642,1.6258,1.6104,1.6599,1.5654,1.3599,1.5302,1.5809,1.5322,1.5578,1.5521,1.5245,1.5245,1.5167,1.5079,1.5202,1.5417,1.5683,1.594,1.7077,1.8444,0.0,0.0,0.0,0.0,0.0,0.0,0.0,0.0,0.0,0.0,0.0,0.0,0.0,0.0,0.0,0.0,0.0,0.0,0.7435,0.7611,0.7752,0.7897,0.8391,0.8688,0.8728,0.9387,0.9811,0.9984,1.0474,1.052,1.0245,1.0239,1.0081,0.9844,0.9982,0.9927,0.9783,0.9979,1.006,1.0066,1.0403,1.0484,1.0399,0.0,0.0,0.0,0.0,0.0,0.0,0.0,0.0,0.0,1.005,1.0325,1.0477,1.0236,1.0465,1.0674,1.0235,1.0537,1.1078,1.1362,1.1805,1.2397,1.312,1.2741,1.2435,1.301,1.304,1.288,1.2479,1.2567,1.2599,1.2396,1.2446,1.2553,1.2589,1.255,1.2999,1.4126,1.4214,1.467,1.5883,1.6145,1.627,1.6442,1.6442,1.645,1.645,1.6537,1.6374,1.5879,1.6898,1.7133,1.6408,1.7186,1.746,1.7288,1.8314,1.7473,1.5081,1.6212,1.6638,1.6402,1.594,1.6688,1.8262,1.9036,1.9453,1.9542,1.9395,1.95,1.971,1.9437,1.9859,2.0567,0.0,0.0,0.0,0.0,0.0,0.0,0.0,0.0,0.0,0.0,0.0,0.0,0.0,0.0,0.0,0.0,0.0,0.0,0.0,0.7606,0.7791,0.8013,0.8517,0.8913,0.9196,0.9897,1.0263,1.0287,1.0571,1.0578,1.0321,1.0559,1.0553,1.0389,1.0671,1.0639,1.0404,1.0515,1.0564,1.0484,1.0779,1.086,1.0786,0.0,0.0,0.0,0.0,0.0,0.0,0.0,0.0,0.0,1.0267,1.0524,1.0754,1.0635,1.0792,1.0968,1.0789,1.1099,1.1592,1.203,1.2605,1.3227,1.391,1.3738,1.3458,1.3567,1.3685,1.3578,1.3136,1.3719,1.4197,1.3944,1.4562,1.5102,1.5102,1.5102,1.5454,1.6439,1.6391,1.6802,1.7945,1.815,1.8305,1.839,1.8361,1.8325,1.8325,1.856,1.8378,1.7691,1.904,1.9384,1.853,1.9358,1.9722,1.9604,2.0232,1.9563,1.7876,1.8502,1.8669,1.8368,1.7932,1.8601,2.004,2.066,2.1039,2.1172,2.1002,2.1039,2.1148,2.0821,2.0906,2.1172,0.0,0.0,0.0,0.0,0.0,0.0,0.0,0.0,0.0,0.0,0.0,0.0,0.0,0.0,0.0,0.0,0.0,0.0,0.0,0.0,0.7924,0.8253,0.8682,0.9219,0.986,1.0365,1.0543,1.042,1.0565,1.0615,1.0545,1.1018,1.1293,1.1382,1.1644,1.1647,1.1362,1.1227,1.105,1.0894,1.0921,1.0921,1.0894,1.0921,0.0,0.0,0.0,0.0,0.0,0.0,0.0,0.0,1.0527,1.0636,1.0785,1.088,1.0833,1.0867,1.1414,1.159,1.1837,1.2544,1.3213,1.3829,1.4428,1.4875,1.5033,1.4531,1.4613,1.4525,1.3821,1.5077,1.6163,1.6084,1.7449,1.8531,1.8531,1.8531,1.8575,1.8722,1.8495,1.847,1.8837,1.902,1.9118,1.9118,1.9189,1.9231,1.9211,2.0359,2.0268,1.8657,2.1486,2.2225,2.0574,2.1755,2.2308,2.226,2.2018,2.1619,2.1099,2.1365,2.1196,2.07,2.07,2.07,2.07,2.07,2.07,2.07,2.07,2.0712,2.0736,2.0712,2.0724,2.0736,0.0,0.0,0.0,0.0,0.0,0.0,0.0,0.0,0.0,0.0,0.0,0.0,0.0,0.0,0.0,0.0,0.0,0.0,0.0,0.0,0.8387,0.8751,0.9387,0.9993,1.0498,1.0632,1.0665,1.0638,1.0924,1.0931,1.0658,1.1255,1.1433,1.1261,1.1531,1.1497,1.1227,1.0928,1.0765,1.0759,1.1023,1.0975,1.0759,1.1029,1.0955,0.0,0.0,0.0,0.0,0.0,0.0,0.0,1.0779,1.0948,1.1084,1.0941,1.1056,1.1274,1.1402,1.1701,1.2186,1.2895,1.3797,1.4518,1.4814,1.5031,1.5066,1.4698,1.479,1.5289,1.6378,1.6823,1.7458,1.8794,1.9299,1.956,1.956,1.956,2.0067,2.1318,2.1386,2.1863,2.3117,2.3086,2.299,2.299,2.2843,2.2614,2.2419,2.2553,2.2323,2.1728,2.2219,2.2277,2.1888,2.2361,2.2405,2.1994,2.1933,2.1619,2.1099,2.116,2.1015,2.07,2.07,2.07,2.07,2.07,2.07,2.07,2.07,2.0833,2.099,2.0773,2.0833,2.1015,0.0,0.0,0.0,0.0,0.0,0.0,0.0,0.0,0.0,0.0,0.0,0.0,0.0,0.0,0.0,0.0,0.0,0.0,0.0,0.0,0.8848,0.9318,0.998,1.0438,1.0684,1.0684,1.0684,1.0684,1.0873,1.0907,1.0806,1.1294,1.1463,1.1389,1.1584,1.1552,1.1295,1.1029,1.0934,1.0941,1.1023,1.1009,1.0941,1.1029,1.0921,1.0684,1.0684,0.0,0.0,0.0,0.0,0.0,0.0,0.0,1.0948,1.0914,1.1022,1.1205,1.1525,1.1932,1.2501,1.3471,1.482,1.5971,1.618,1.6964,1.7614,1.743,1.6742,1.678,1.8581,1.9435,2.0118,2.1065,2.1953,2.2525,2.2525,2.2525,2.2826,2.3699,2.3545,2.3774,2.4705,2.4427,2.4198,2.4198,2.3945,2.3692,2.3427,2.3188,2.2961,2.2695,2.2683,2.255,2.2296,2.2441,2.2236,2.1716,2.1583,2.1305,2.0906,2.0906,2.0833,2.07,2.07,2.07,2.07,2.07,2.07,2.07,2.07,2.0785,2.0894,2.0749,2.0797,2.0906,0.0,0.0,0.0,0.0,0.0,0.0,0.0,0.0,0.0,0.0,0.0,0.0,0.0,0.0,0.0,0.0,0.0,0.0,0.0,0.0,0.0,0.9875,1.0404,1.0697,1.0684,1.0684,1.0684,1.0684,1.0684,1.0806,1.1036,1.1287,1.147,1.1584,1.1678,1.1619,1.1375,1.1206,1.1118,1.1111,1.0955,1.1002,1.1111,1.0948,1.0819,1.0684,1.0684,1.0684,1.0684,1.0684,0.0,0.0,0.0,0.0,1.1103,1.1471,1.1406,1.137,1.2237,1.2959,1.367,1.4542,1.6273,1.7834,1.7927,1.9185,2.0398,2.0757,1.9294,1.8557,2.0575,2.1841,2.2697,2.3041,2.4395,2.5379,2.5331,2.5367,2.5355,2.527,2.4897,2.4716,2.4849,2.4415,2.4089,2.4033,2.3788,2.3535,2.3222,2.3155,2.2937,2.2635,2.2877,2.2756,2.2236,2.2272,2.2006,2.1438,2.116,2.0906,2.07,2.07,2.07,2.07,2.07,2.07,2.07,2.07,2.07,2.07,2.07,2.0724,2.0761,2.0724,2.0736,2.0761,0.0,0.0,0.0,0.0,0.0,0.0,0.0,0.0,0.0,0.0,0.9222,0.0,0.0,0.0,0.0,0.0,0.0,0.0,0.0,0.0,0.0,1.0206,1.0432,1.0582,1.0684,1.0684,1.0684,1.0684,1.0684,1.0961,1.1489,1.1436,1.147,1.1613,1.1497,1.143,1.1362,1.0955,1.0778,1.0759,1.0867,1.0846,1.0792,1.0874,1.0819,1.0684,1.0684,1.0684,1.0684,1.0684,1.0772,0.0,0.0,0.0,1.2618,1.3958,1.3408,1.277,1.4605,1.6208,1.7207,1.6692,1.8147,1.978,1.9894,2.012,2.0801,2.2553,2.1235,2.0337,2.2241,2.2609,2.3127,2.4738,2.522,2.5318,2.509,2.5246,2.5222,2.4752,2.4849,2.4776,2.4342,2.4029,2.3668,2.3276,2.3203,2.2973,2.2478,2.2852,2.2852,2.2369,2.2611,2.249,2.197,2.2187,2.1909,2.1148,2.0882,2.0736,2.07,2.07,2.07,2.07,2.07,2.07,2.07,2.07,2.07,2.07,2.07,2.0845,2.1015,2.0785,2.0845,2.1015,0.0,0.0,0.0,0.0,0.0,0.0,0.0,0.0,0.0,0.0,0.0,0.9058,0.0,0.0,0.0,0.0,0.0,0.0,0.0,0.0,0.0,1.0116,1.0371,1.0521,1.0588,1.0677,1.0684,1.0684,1.0636,1.0941,1.1613,1.1463,1.1606,1.1979,1.1572,1.1389,1.1362,1.0914,1.0738,1.0813,1.0792,1.0799,1.0813,1.0792,1.0745,1.0684,1.0684,1.0684,1.083,1.1773,1.1528,1.1187,1.3485,0.0,0.0,0.0,1.4381,1.4161,1.5983,1.7094,1.7821,1.8231,1.9866,2.1368,2.1538,2.2387,2.3403,2.4285,2.3717,2.3369,2.434,2.4342,2.4438,2.5263,2.5391,2.5355,2.5234,2.5198,2.509,2.4849,2.4788,2.4559,2.4029,2.3872,2.3623,2.3118,2.3082,2.2913,2.2538,2.2731,2.2695,2.2308,2.2405,2.2224,2.1692,2.18,2.1534,2.0882,2.0906,2.0845,2.0712,2.0857,2.0845,2.07,2.07,2.07,2.07,2.07,2.0797,2.0906,2.0761,2.0857,2.1063,2.0797,2.0773,2.0857,0.0,0.0,0.0,0.0,0.0,0.0,0.0,0.0,0.0,0.0,0.0,0.0,0.0,0.0,0.0,0.0,0.0,0.0,0.0,0.0,0.0,0.9961,1.0276,1.0453,1.0493,1.0643,1.0684,1.0684,1.0609,1.0955,1.1728,1.1613,1.1925,1.2542,1.1904,1.1579,1.1477,1.1063,1.0955,1.1009,1.0779,1.0752,1.0846,1.0772,1.0718,1.0691,0.0,1.0718,1.0937,1.257,1.2288,1.181,1.4804,1.4726,0.0,0.0,0.0,1.5857,1.6528,1.7507,1.8568,1.9444,2.1306,2.2954,2.3156,2.4349,2.5391,2.5391,2.5391,2.5451,2.5644,2.5523,2.5391,2.5391,2.5391,2.5367,2.5306,2.5126,2.4957,2.4812,2.4607,2.4306,2.3848,2.374,2.355,2.3118,2.306,2.2901,2.2695,2.2756,2.2635,2.2308,2.2369,2.2079,2.1414,2.1341,2.1111,2.07,2.0906,2.0894,2.0712,2.0906,2.0894,2.07,2.07,2.07,2.07,2.07,2.0857,2.1075,2.0882,2.0966,2.1184,2.0978,2.0869,2.0809,0.0,0.0,0.0,0.0,0.0,0.0,0.0,0.0,0.0,0.0,0.0,0.0,0.9734,0.9528,0.9388,0.9396,0.0,0.0,0.0,0.0,0.0,0.9798,1.0127,0.0,1.0487,1.0643,1.0684,1.0684,1.0677,1.1165,1.2077,1.207,1.2533,1.3308,1.2569,1.2081,1.1753,1.1484,1.1362,1.1328,1.0894,1.0691,1.0711,1.0853,1.0813,1.0704,1.0853,1.0813,1.0916,1.2338,1.2863,1.3361,1.6047,1.6753,1.6872,0.0,0.0,0.0,1.5971,1.8095,2.0778,2.0293,2.2328,2.4555,2.4789,2.5125,2.5391,2.5391,2.5391,2.5403,2.5415,2.5403,2.5391,2.5391,2.5391,2.5306,2.5065,2.5017,2.4812,2.4294,2.4222,2.4101,2.3836,2.3583,2.3318,2.3106,2.2852,2.2707,2.2695,2.2925,2.2828,2.232,2.2538,2.2163,2.1123,2.0869,2.0736,2.07,2.0712,2.0712,2.07,2.0712,2.0712,2.07,2.07,2.07,2.07,2.07,2.0857,2.1099,2.1075,2.1244,2.1498,2.1438,2.1305,2.1111,0.0,0.0,0.0,0.0,0.0,0.0,0.0,0.0,0.0,0.0,0.0,0.0,0.0,0.9646,0.953,0.953,0.9476,0.0,0.0,0.0,0.0,0.9934,1.0168,1.0344,1.0487,1.0643,1.0684,1.0684,1.0622,1.0934,1.1633,1.1728,1.2101,1.2671,1.2343,1.2135,1.2074,1.1294,1.1016,1.1049,1.0792,1.0745,1.0826,1.0786,1.0792,1.0927,1.1807,1.1985,1.2197,1.4852,1.4969,1.4512,1.763,1.7723,1.6956,1.8407,1.8911,1.8848,1.8394,1.9529,2.091,2.1209,2.2582,2.3909,2.4174,2.4704,2.515,2.515,2.5282,2.5391,2.5391,2.5391,2.5391,2.5391,2.5391,2.5367,2.527,2.5114,2.48,2.4258,2.4198,2.3897,2.3152,2.314,2.3046,2.2611,2.249,2.2441,2.2441,2.2526,2.249,2.2308,2.2224,2.1837,2.1099,2.0833,2.07,2.07,2.0869,2.0869,2.0712,2.0882,2.0857,2.07,2.07,2.07,2.07,2.07,2.0857,2.1075,2.0906,2.1123,2.1498,2.1317,2.1293,2.1377,0.0,0.0,0.0,0.0,0.0,0.0,0.0,0.0,0.0,0.9842,0.0,0.0,0.0,0.0,0.9659,0.9612,0.9612,0.9673,0.9785,0.9839,0.9913,0.9984,1.0243,1.0392,1.0487,1.0643,1.0684,1.0684,1.0616,1.0853,1.1396,1.1545,1.1884,1.2345,1.2047,1.2108,1.2386,1.1586,1.1274,1.1259,1.0907,1.088,1.1125,1.1677,1.1932,1.2158,1.3585,1.3906,1.4046,1.6534,1.6543,1.5937,1.8529,1.8474,1.7612,1.8554,1.8971,1.9165,1.941,1.9902,2.0531,2.1534,2.2271,2.2981,2.3872,2.4342,2.468,2.4945,2.515,2.5294,2.5379,2.5391,2.5391,2.5391,2.5391,2.5367,2.5282,2.4957,2.4571,2.4113,2.3949,2.3562,2.2889,2.2901,2.2804,2.2453,2.2345,2.2332,2.2429,2.2429,2.2393,2.2296,2.1861,2.1462,2.1099,2.0833,2.07,2.07,2.0882,2.0869,2.0712,2.0882,2.0869,2.07,2.07,2.07,2.07,2.07,2.0918,2.1208,2.0942,2.1172,2.1619,2.1438,2.1426,2.1547,0.0,0.0,0.0,0.0,0.0,0.0,0.0,0.0,1.0076,1.0263,0.0,0.0,0.0,0.0,0.0,0.9639,0.9632,0.9693,0.9798,0.994,0.9997,0.9997,0.0,0.0,1.05,1.0643,1.0684,1.0684,1.0684,1.0941,1.1375,1.1531,1.1911,1.244,1.184,1.1989,1.2645,1.2372,1.2207,1.203,1.1281,1.1166,1.1705,1.3523,1.4227,1.4412,1.6117,1.6487,1.6279,1.7195,1.7477,1.7686,1.8782,1.9116,1.9104,0.0,1.9104,1.9044,0.0,0.0,0.0,2.1123,2.1462,2.1993,2.4057,2.4101,2.3981,2.4788,2.4957,2.5041,2.5318,2.5367,2.5367,2.5367,2.5379,2.5306,2.5053,2.4547,2.4101,2.3836,2.3409,2.307,2.3097,2.2828,2.2683,2.2683,2.2441,2.2417,2.2683,2.2683,2.255,2.2284,2.151,2.1099,2.1099,2.0833,2.07,2.07,2.07,2.07,2.07,2.07,2.07,2.07,2.07,2.07,2.07,2.07,2.1015,2.1462,2.1196,2.1414,2.1885,2.1897,2.174,2.1595,0.0,0.0,0.0,0.0,0.0,0.0,1.0419,1.031,1.0236,0.0,0.0,0.0,1.0276,1.0297,1.0249,1.0107,1.0188,1.0222,1.0154,1.0195,1.0263,1.0365,1.0446,1.0548,1.0656,1.0664,1.0684,1.0684,1.0684,1.0785,1.0914,1.1172,1.1436,1.1701,1.1712,1.1847,1.2003,1.1381,1.1443,1.191,1.236,1.3009,1.3748,1.4859,1.5551,1.6151,1.7358,1.7704,1.784,1.9312,1.9534,1.9215,1.9348,1.9261,0.0,0.0,1.9104,0.0,1.8758,0.0,0.0,0.0,0.0,0.0,2.1909,2.2235,2.2693,2.3643,2.386,2.4053,2.4692,2.4812,2.4812,2.4812,2.5138,2.5367,2.5294,2.4812,2.4306,2.386,2.3409,2.2937,2.255,2.2453,2.2405,2.2405,2.2345,2.2417,2.2683,2.2514,2.2199,2.1752,2.1317,2.1099,2.1099,2.0833,2.07,2.07,2.07,2.07,2.07,2.07,2.07,2.07,2.07,2.07,2.07,2.07,2.0797,2.0942,2.1051,2.1184,2.1341,2.1547,2.1704,2.1825,0.0,0.0,0.0,0.0,0.0,1.0588,1.0637,1.0616,1.0582,0.0,0.0,0.0,1.0561,1.0683,1.069,1.048,1.0541,1.0555,1.0466,1.0466,1.05,1.0582,1.0588,1.0629,1.0684,1.0684,1.0684,1.0684,1.0684,1.0684,1.0691,1.0894,1.1056,1.1212,1.1286,1.1436,1.1553,1.1557,1.1996,1.2749,1.3343,1.4388,1.5778,1.71,1.7902,1.8492,1.977,2.0249,2.0323,2.0852,2.0616,2.0011,1.9624,1.9479,1.9406,1.9177,0.0,0.0,0.0,0.0,1.9684,1.9757,0.0,0.0,2.1389,2.1583,2.1873,2.2899,2.3116,2.3333,2.3969,2.4101,2.4174,2.4391,2.4692,2.4897,2.4897,2.4523,2.4101,2.3692,2.3212,2.284,2.2647,2.2526,2.2465,2.2465,2.2562,2.2647,2.2683,2.2441,2.2115,2.1692,2.1414,2.1208,2.1099,2.0833,2.07,2.07,2.07,2.07,2.07,2.07,2.0761,2.0857,2.0749,2.0833,2.1027,2.0918,2.093,2.1039,2.1075,2.1232,2.145,2.1619,2.1776,2.1933,0.0,0.0,1.0691,1.0711,1.084,1.0948,1.0961,1.0961,1.1016,0.0,1.1104,1.0995,1.1009,1.1145,1.1104,1.0846,1.0806,1.0745,1.0718,1.0711,1.0704,1.0684,1.0684,1.0684,1.0684,1.0684,1.0684,1.0684,1.0684,1.0684,1.0684,1.0684,1.0759,1.088,1.0745,1.0934,1.144,1.2427,1.3442,1.4354,1.4486,1.5732,1.7714,1.9639,2.0577,2.0996,2.2496,2.2997,2.2852,2.1885,2.1039,2.0313,1.9793,1.9769,1.983,1.9334,1.9709,0.0,0.0,0.0,0.0,2.0507,2.0144,0.0,2.1667,2.1522,2.1317,2.2272,2.249,2.2683,2.3137,2.3282,2.3463,2.3872,2.4029,2.4138,2.4222,2.3981,2.3716,2.3487,2.3019,2.2828,2.3097,2.2864,2.2731,2.2731,2.2985,2.2973,2.2623,2.2405,2.2139,2.1788,2.1547,2.1305,2.1051,2.0821,2.07,2.07,2.07,2.07,2.07,2.0736,2.0869,2.1087,2.0845,2.1039,2.1498,2.1208,2.1256,2.1498,2.1268,2.1462,2.1873,2.1933,2.1946,2.2018,0.0,1.0684,1.0725,1.0846,1.1023,1.12,1.1287,1.1307,1.1362,1.1511,1.1504,1.1496,1.1611,1.155,1.1504,1.1414,1.1328,1.1158,1.0887,1.0874,1.0813,1.0691,1.0684,1.0684,1.0684,1.0684,1.0684,1.0684,1.0684,1.0684,1.0684,1.0684,1.0704,1.0732,1.0698,1.1375,1.2506,1.3056,1.4751,1.7069,1.7313,1.8238,1.9614,2.1026,2.1847,2.2312,2.2413,2.2453,2.2381,2.197,2.1438,2.0882,2.0567,2.0217,1.9869,1.976,1.9866,1.9929,1.9805,0.0,2.0217,2.0062,2.0434,0.0,2.0446,2.0591,2.0845,2.1051,2.1256,2.1571,2.2115,2.2562,2.2744,2.238,2.3043,2.3788,2.4415,2.4101,2.3788,2.3728,2.3297,2.3022,2.307,2.3034,2.301,2.301,2.3225,2.2983,2.2103,2.2212,2.1885,2.0966,2.0894,2.0833,2.0785,2.0724,2.07,2.07,2.07,2.07,2.0712,2.0918,2.1051,2.1087,2.1039,2.1208,2.1498,2.1208,2.1256,2.1534,2.1692,2.1692,2.1643,2.2066,2.2224,2.2272,0.0,1.0799,1.0874,1.1097,1.1226,1.1355,1.1579,1.1613,1.1694,1.1925,1.2081,1.2104,1.2067,1.1999,1.1864,1.1604,1.1477,1.1267,1.0934,1.0914,1.0846,1.0691,1.0684,1.0725,1.0799,1.0725,1.0725,1.0799,1.0725,1.0684,1.0684,1.0684,1.0684,1.0717,1.1439,1.2132,1.2923,1.4524,1.6198,1.7856,1.8441,1.9664,2.1269,2.215,2.2828,2.3212,2.2947,2.2766,2.2611,2.2079,2.1897,2.1752,2.0954,2.0894,2.1002,2.047,2.0507,2.0628,2.0229,2.0313,2.0507,2.0507,2.0507,0.0,0.0,2.0204,2.0217,2.0616,2.0603,2.0712,2.1377,2.1498,2.1595,2.1861,2.2319,2.2935,2.3731,2.38,2.38,2.38,2.3409,2.313,2.3237,2.3046,2.2997,2.3225,2.3007,2.2742,2.2502,2.2369,2.1933,2.1135,2.1111,2.0978,2.07,2.07,2.07,2.07,2.07,2.07,2.0712,2.0978,2.1172,2.1305,2.1305,2.1534,2.1885,2.1607,2.1655,2.1909,2.1909,2.1909,2.1958,2.2345,2.249,2.255,1.0921,1.0934,1.1043,1.1341,1.1436,1.1565,1.1837,1.1861,1.202,1.2298,1.2562,1.2611,1.244,1.2366,1.221,1.1904,1.1633,1.1389,1.1144,1.1049,1.0921,1.0738,1.0732,1.0772,1.0867,1.0752,1.0745,1.0874,1.0745,1.0684,1.0684,1.0684,1.085,1.1148,1.2,1.2889,1.3906,1.5829,1.7345,1.8482,1.9269,2.0598,2.2199,2.2731,2.3188,2.3547,2.333,2.3128,2.284,2.226,2.2308,2.2441,2.1414,2.1643,2.2127,2.1268,2.1317,2.1522,2.0869,2.0882,2.1087,2.1099,2.0736,2.0398,0.0,0.0,0.0,2.0301,2.0144,2.0096,2.0676,2.0531,2.0543,2.1256,2.1631,2.2018,2.255,2.314,2.3535,2.3643,2.3251,2.3058,2.3306,2.2935,2.2864,2.3234,2.2657,2.2465,2.284,2.2405,2.1933,2.145,2.1389,2.1148,2.07,2.07,2.07,2.07,2.07,2.07,2.0712,2.1027,2.1305,2.1486,2.1571,2.1861,2.2284,2.2018,2.2066,2.2284,2.2066,2.2115,2.2332,2.2586,2.2719,2.284,1.0941,1.105,1.1227,1.1362,1.1606,1.1837,1.205,1.2149,1.2298,1.2454,1.2623,1.2773,1.2914,1.2644,1.2569,1.2833,1.2176,1.1823,1.1968,1.1565,1.1212,1.0901,1.0887,1.0833,1.0718,1.0698,1.0698,1.0711,1.0698,1.0684,1.0684,1.0684,1.1372,1.252,1.1406,1.3286,1.7168,1.5995,1.7514,2.072,2.084,2.1174,2.1667,2.2187,2.2574,2.2816,2.2792,2.2611,2.2405,2.255,2.249,2.2357,2.2441,2.2381,2.2272,2.2151,2.2163,2.2187,2.2103,2.226,2.2248,2.1317,2.1571,2.1607,1.9999,0.0,2.0325,1.9467,0.0,1.9866,1.9709,0.0,0.0,1.9515,2.0628,2.1426,2.1027,2.1837,2.2647,2.3118,2.2707,2.2586,2.3082,2.2864,2.2719,2.278,2.2478,2.2224,2.2054,2.1764,2.1462,2.1148,2.0918,2.0761,2.07,2.07,2.07,2.07,2.07,2.07,2.0724,2.1232,2.1486,2.1486,2.1764,2.203,2.2284,2.2018,2.2066,2.2296,2.2272,2.2272,2.2332,2.2586,2.284,2.3082,1.1219,1.1253,1.1369,1.1606,1.1748,1.1874,1.2155,1.2506,1.2766,1.2996,1.3078,1.318,1.3329,1.3078,1.2942,1.3111,1.2637,1.2305,1.2241,1.185,1.1516,1.1313,1.1165,1.1084,1.1111,1.0907,1.0819,1.0819,1.0732,1.0684,1.0684,1.0684,1.1064,1.1751,1.287,1.4508,1.6533,1.77,1.9038,2.0446,2.0906,2.1075,2.1172,2.232,2.2816,2.2913,2.2913,2.2744,2.2478,2.2127,2.2404,2.2887,2.2574,2.2778,2.3116,2.284,2.2756,2.2683,2.2381,2.2381,2.232,2.1716,2.1474,2.1123,2.018,1.9866,1.9733,1.96,0.0,0.0,0.0,0.0,0.0,0.0,2.0374,2.0845,2.0918,2.1051,2.1571,2.2719,2.226,2.1861,2.1921,2.1982,2.2066,2.2224,2.1837,2.1752,2.2115,2.1583,2.1293,2.1341,2.1075,2.0857,2.07,2.07,2.07,2.07,2.07,2.07,2.0724,2.1268,2.151,2.1534,2.1958,2.2199,2.2284,2.2175,2.2199,2.2296,2.2296,2.2296,2.2345,2.2768,2.2985,2.3143,1.1443,1.1457,1.1531,1.1753,1.1864,1.1999,1.2305,1.2623,1.2996,1.3295,1.3336,1.3424,1.3619,1.3526,1.3479,1.352,1.3173,1.2848,1.2671,1.2257,1.1932,1.1748,1.1484,1.1397,1.1389,1.1138,1.0955,1.0914,1.0806,1.0772,1.0839,1.0765,1.1284,1.2285,1.4136,1.5759,1.7286,1.914,2.0234,2.0712,2.1063,2.122,2.1365,2.2453,2.2864,2.2889,2.3072,2.2864,2.2514,2.2091,2.2549,2.321,2.2754,2.3164,2.3716,2.3297,2.3239,2.3203,2.2744,2.2585,2.2452,2.1933,2.1305,2.0664,2.0108,1.9757,1.9636,1.9929,1.995,0.0,0.0,0.0,2.0023,2.0265,0.0,2.0446,2.0833,2.0495,2.0688,2.1994,2.1776,2.1462,2.1329,2.1438,2.1559,2.168,2.1184,2.1172,2.1825,2.1232,2.1039,2.1389,2.1135,2.0894,2.07,2.07,2.07,2.07,2.07,2.07,2.0724,2.1268,2.151,2.1547,2.2066,2.2296,2.2296,2.2296,2.2296,2.2296,2.2296,2.2296,2.2357,2.2804,2.306,2.3155,1.1586,1.1577,1.1624,1.1766,1.1952,1.2193,1.2447,1.2508,1.2678,1.3159,1.322,1.3349,1.3741,1.396,1.4102,1.4251,1.3858,1.3551,1.3545,1.2895,1.2352,1.2098,1.1898,1.1681,1.1396,1.1274,1.109,1.0914,1.0907,1.0982,1.1179,1.0968,1.2547,1.5498,1.4484,1.675,2.1222,1.969,2.0432,2.2538,2.18,2.1958,2.2611,2.2405,2.232,2.2393,2.2901,2.2744,2.2381,2.2864,2.3097,0.0,0.0,2.3571,2.3752,2.3475,2.3583,2.3716,2.3451,2.3378,2.3065,2.1812,2.1305,2.0736,1.9443,1.9926,2.0591,2.035,2.1111,2.174,2.1474,2.1232,0.0,0.0,2.0313,0.0,0.0,2.0108,2.011,2.07,2.1208,2.1607,2.1861,2.1655,2.1401,2.1135,2.064,2.0458,2.0736,2.0483,2.0567,2.1087,2.0857,2.0712,2.07,2.07,2.07,2.07,2.07,2.07,2.0724,2.1268,2.151,2.1547,2.2066,2.2296,2.2296,2.2296,2.2296,2.2296,2.2296,2.2296,2.2332,2.2598,2.2864,2.3118,1.1712,1.1843,1.1898,1.18,1.1959,1.2268,1.2771,1.2718,1.2956,1.381,1.3743,1.3899,1.4645,1.4692,1.4772,1.4869,1.4658,1.4387,1.4095,1.3553,1.3159,1.2956,1.2515,1.223,1.2128,1.1782,1.1484,1.124,1.1138,1.1118,1.1227,1.2133,1.3213,1.4449,1.625,1.804,1.978,2.0781,2.1445,2.1909,2.1813,2.2248,2.2925,2.2659,2.255,2.2586,2.2756,2.2598,0.0,2.2502,2.2683,2.2864,2.313,2.3369,2.3559,2.3643,2.374,2.3788,0.0,0.0,2.3402,2.2283,0.0,2.1075,1.9881,2.0192,2.0628,2.0362,2.116,2.1825,2.1559,2.1583,0.0,0.0,0.0,2.0652,0.0,1.966,1.9588,2.012,2.0652,2.0942,2.0857,2.093,2.0797,2.035,1.9975,1.9975,2.0422,2.0023,2.0096,2.0809,2.0579,2.0531,2.07,2.07,2.07,2.07,2.07,2.07,2.0724,2.1268,2.151,2.1547,2.2066,2.2296,2.2296,2.2296,2.2296,2.2296,2.2296,2.2296,2.2345,2.2792,2.301,2.3143,1.2006,1.2033,1.2084,1.1999,1.2162,1.2427,1.282,1.3017,1.3369,1.4197,1.4312,1.4577,1.5269,1.5309,1.535,1.5343,1.5262,1.497,1.4414,1.4102,1.3783,1.3417,1.3085,1.2827,1.2671,1.2379,1.2033,1.1662,1.1567,1.1796,1.2392,1.3148,1.4189,1.5519,1.7741,1.912,1.9874,2.1683,2.2248,2.1933,2.2018,2.2465,2.3058,2.2792,2.2744,2.2816,2.2719,2.2526,2.2308,2.2405,2.255,2.2719,2.2889,2.3092,2.3345,2.3514,2.3583,2.3668,2.3668,2.3668,0.0,2.2659,2.2115,0.0,2.0676,0.0,2.1474,2.1208,2.2006,2.2597,2.2247,2.2162,0.0,0.0,0.0,2.0543,0.0,1.9406,1.9455,1.9999,2.0362,2.0567,2.0591,2.0652,2.0519,2.0096,1.9709,1.9648,1.9999,1.9781,1.9926,2.0543,2.0495,2.0531,2.07,2.07,2.07,2.07,2.07,2.07,2.0724,2.116,2.1426,2.1534,2.197,2.2212,2.2296,2.2296,2.2296,2.2296,2.2296,2.2296,2.2357,2.2889,2.3203,2.3381,1.2318,1.222,1.2179,1.2284,1.2535,1.2686,1.2706,1.3328,1.391,1.4292,1.4841,1.5323,1.56,1.5805,1.5825,1.5634,1.5621,1.5309,1.4618,1.4563,1.4231,1.3512,1.3593,1.3458,1.3064,1.303,1.273,1.2145,1.2125,1.2917,1.4482,1.4058,1.5528,1.8617,1.897,2.0019,2.1547,2.2357,2.2719,2.2707,2.2453,2.2659,2.3094,2.2816,2.2877,2.3082,2.2792,2.2526,2.2332,2.2586,2.2671,2.2671,2.2683,2.2864,2.3082,2.3094,2.3261,2.3439,2.3439,2.3439,2.3306,2.2864,2.2526,0.0,0.0,0.0,2.2997,0.0,2.3478,2.4017,2.3475,0.0,0.0,0.0,0.0,1.9999,1.9237,1.9334,1.9672,2.0204,2.0265,2.047,2.1002,2.0821,2.0555,2.0277,1.9769,1.9479,1.9479,1.9745,1.9989,2.0289,2.0543,2.0688,2.07,2.07,2.07,2.07,2.07,2.07,2.0712,2.099,2.1268,2.1534,2.18,2.2066,2.2296,2.2296,2.2296,2.2296,2.2296,2.232,2.2393,2.2901,2.3381,2.38,1.2318,1.2433,1.2569,1.2571,1.2583,1.2671,1.301,1.3417,1.391,1.4699,1.5221,1.5668,1.6189,1.6327,1.6293,1.6151,1.6137,1.5913,1.5337,1.5242,1.4997,1.4629,1.4285,1.4021,1.3833,1.339,1.303,1.2771,1.2431,1.2951,1.4363,1.529,1.669,1.8509,2.0139,2.1114,2.1571,2.2562,2.3056,2.3198,2.3137,2.3306,2.3587,2.3155,2.3276,2.355,2.2925,2.2526,2.2308,2.2381,2.2405,2.2429,2.2623,2.2864,2.3118,2.3285,2.3499,2.3704,2.3704,2.3704,2.3631,2.3294,2.2899,2.2502,0.0,0.0,0.0,0.0,0.0,0.0,0.0,0.0,2.2381,2.145,2.041,1.9636,1.9431,1.9285,1.9334,1.9672,1.9539,1.9709,2.0446,2.0277,1.9926,1.9455,1.9285,1.9213,1.9213,1.9467,1.9733,1.9977,2.0277,2.0507,2.07,2.07,2.07,2.07,2.07,2.07,2.0724,2.1196,2.145,2.1547,2.1994,2.2236,2.2296,2.2296,2.2296,2.2296,2.2296,2.2538,2.2901,2.3034,2.3381,2.38,1.2705,1.2861,1.3024,1.3024,1.3112,1.3275,1.3567,1.377,1.4197,1.4964,1.5513,1.5961,1.6293,1.6503,1.654,1.6459,1.6442,1.6185,1.5621,1.5683,1.5452,1.4896,1.4753,1.4523,1.4177,1.3899,1.3559,1.3152,1.2812,1.3269,1.4589,1.5741,1.7035,1.8493,2.0461,2.1401,2.1583,2.2635,2.3273,2.3559,2.3369,2.3463,0.0,2.3381,2.3406,2.3571,2.3164,2.2826,2.2647,2.2647,2.2647,2.2671,2.2816,2.2961,2.313,2.333,2.3523,2.3655,2.3776,2.38,2.3764,2.3619,2.3393,2.314,2.2983,2.3092,2.314,0.0,2.3164,2.3285,0.0,0.0,2.1958,2.0773,2.0071,1.96,1.9358,1.9201,1.9201,1.9467,1.937,1.9455,1.9914,1.9612,1.9358,1.9285,1.9177,1.9104,1.9104,1.9467,1.9757,1.9914,2.0398,2.0676,2.07,2.093,2.093,2.07,2.07,2.07,2.0712,2.1135,2.1401,2.1534,2.1946,2.2187,2.2296,2.2296,2.2296,2.2308,2.2429,2.2719,2.3094,2.3215,2.349,2.38,1.3241,1.3308,1.3424,1.3403,1.3804,1.42,1.4282,1.4394,1.4692,1.5228,1.5825,1.6198,1.6198,1.6544,1.6716,1.6702,1.6574,1.6276,1.5742,1.5981,1.575,1.4904,1.5126,1.4984,1.4428,1.4475,1.4163,1.3458,1.3186,1.3749,1.5154,1.584,1.7072,1.8773,2.0368,2.1293,2.168,2.2659,2.3357,2.3764,2.3369,2.3478,2.3836,2.3643,2.3547,2.3511,2.3511,2.3333,2.3082,2.3082,2.3082,2.3082,2.3082,2.3106,2.3179,2.3342,2.3439,2.3511,2.374,2.38,2.38,2.38,2.38,2.38,2.3764,2.3571,2.339,2.333,2.3164,2.2864,0.0,0.0,2.1281,2.0156,1.9845,1.9672,1.9273,1.9177,1.9261,1.9527,1.9527,0.0,1.9503,1.9092,1.8995,1.9418,1.9237,1.9104,1.9104,1.9588,1.9845,1.9881,2.0616,2.093,2.0809,2.1196,2.1184,2.0809,2.0736,2.07,2.0712,2.1015,2.1281,2.1534,2.1825,2.2091,2.2296,2.2296,2.2296,2.232,2.2586,2.2852,2.3118,2.3318,2.3583,2.38,1.3241,1.3397,1.3553,1.3424,1.3973,1.4604,1.5099,1.5404,1.5711,1.5893,1.6449,1.6822,1.6822,1.689,1.689,1.6709,1.6675,1.656,1.6381,1.6307,1.6144,1.5859,1.5662,1.5391,1.5038,1.4685,1.4265,1.372,1.3342,1.4307,1.6477,1.6508,1.7883,2.033,2.0873,2.1486,2.2199,2.2816,2.3357,2.3812,2.3933,2.4041,2.415,2.4318,2.4246,2.4053,2.4053,2.3647,2.3082,2.3082,2.3082,2.3082,2.3082,2.32,2.3354,2.3402,2.3571,2.374,2.3788,2.38,2.38,2.38,2.38,2.3752,2.3535,2.3451,2.3294,2.2887,2.2792,2.2538,2.1788,0.0,0.0,2.0241,1.9684,1.937,1.97,1.9576,1.9539,1.9817,1.9636,1.9503,1.9503,1.9418,1.931,1.9189,1.9128,1.9104,1.9104,1.9406,1.9684,1.9881,2.0265,2.0749,0.0,0.0,2.1015,2.1329,2.0918,2.07,2.0724,2.1196,2.145,2.1547,2.2018,2.226,2.2296,2.2296,2.2296,2.232,2.2586,2.2852,2.3118,2.3318,2.3583,2.38,1.3743,1.381,1.3905,1.4068,1.4584,1.5153,1.5676,1.6144,1.6405,1.611,1.6334,1.651,1.651,1.6795,1.6951,1.6876,1.687,1.6802,1.6601,1.6503,1.632,1.609,1.5866,1.5574,1.5194,1.4896,1.4489,1.396,1.4295,1.4916,1.5792,1.7133,1.8378,1.9552,2.0769,2.1752,2.2538,2.3031,2.3478,2.3836,2.4234,2.4391,2.4415,2.4535,2.4511,2.4391,2.4391,2.4106,2.3647,2.3502,2.3454,2.3454,2.3454,2.355,2.3619,2.3619,2.3704,2.38,2.38,2.38,2.38,2.38,2.38,2.374,2.3475,2.3306,2.3128,2.2768,2.2586,2.2332,2.1813,2.0954,0.0,0.0,2.0168,1.9866,2.0265,2.0096,1.9926,1.9881,1.9805,1.96,1.9322,1.9418,1.9334,1.8935,1.9032,1.9044,1.8911,1.9285,1.9624,1.9881,0.0,0.0,2.1293,0.0,2.1389,2.151,2.1244,2.1123,2.1135,2.1522,2.1704,2.174,2.2127,2.2296,2.2308,2.2441,2.2417,2.2357,2.285,2.3094,2.313,2.3463,2.3692,2.38,1.4326,1.4326,1.4394,1.4762,1.5255,1.5764,1.6123,1.6686,1.689,1.6388,1.632,1.632,1.632,1.6741,1.7012,1.6985,1.6978,1.6931,1.6757,1.6601,1.6449,1.6185,1.6078,1.5806,1.5384,1.5166,1.4765,1.4122,1.5203,1.5568,1.5269,1.7776,1.8913,1.8959,2.078,2.197,2.2647,2.3161,2.3631,2.4017,2.4487,2.468,2.468,2.474,2.4728,2.468,2.468,2.4499,2.4234,2.3981,2.3848,2.38,2.38,2.38,2.38,2.38,2.38,2.38,2.38,2.38,2.38,2.38,2.38,2.3716,2.3402,2.32,2.3024,2.2671,2.2393,2.2151,2.1946,2.1293,0.0,0.0,0.0,2.0507,2.0833,2.07,2.0388,2.0014,2.0108,1.9833,1.9092,1.931,1.9261,1.865,1.8874,1.8935,1.8729,1.9104,1.9455,0.0,0.0,2.0749,2.1184,0.0,2.1716,2.168,2.1571,2.151,2.1522,2.1788,2.1909,2.1921,2.2187,2.2296,2.232,2.2526,2.249,2.2357,2.2959,2.314,2.313,2.3514,2.3704,2.38,1.4566,1.4801,1.4984,1.5296,1.594,1.6429,1.6476,1.6992,1.7311,1.7114,1.7087,1.7087,1.7087,1.7141,1.7121,1.6992,1.6978,1.6978,1.6958,1.6815,1.6601,1.649,1.6341,1.6117,1.5847,1.5425,1.4869,1.4278,1.5535,1.6303,1.6646,1.8498,1.9734,2.0528,2.145,2.2042,0.0,2.3089,2.3836,2.4535,2.4836,2.4969,2.4993,2.5234,2.5174,2.4969,2.4969,2.4788,2.4511,2.4246,2.4005,2.38,2.38,2.38,2.38,2.38,2.38,2.38,2.38,2.38,2.38,2.38,2.38,2.3668,2.3239,2.3094,2.2937,2.2441,2.2127,2.1933,2.1909,2.1438,2.1148,0.0,0.0,2.0845,2.1365,2.1414,2.1123,2.0362,2.07,2.0398,1.8867,1.9201,1.9189,1.8384,1.8608,1.8741,1.8686,1.8766,0.0,1.9177,1.9709,2.0436,2.1462,2.1268,2.1522,2.2224,2.174,2.151,2.1522,2.1788,2.1909,2.1921,2.2187,2.2296,2.2296,2.232,2.232,2.2308,2.2381,2.2683,2.3133,2.3143,2.343,2.38,1.5357,1.5316,1.5384,1.5866,1.6198,1.6517,1.687,1.7127,1.7297,1.7324,1.7249,1.7161,1.7073,1.7066,1.7039,1.6985,1.6978,1.6978,1.6978,1.6836,1.6669,1.6608,1.6435,1.6164,1.5908,1.5506,1.5025,1.4428,1.5683,1.6706,1.7609,1.8738,2.005,2.145,0.0,2.2428,2.3019,2.3619,2.415,2.462,2.5065,2.5234,2.5246,2.5355,2.5331,2.5234,2.5234,2.5065,2.4824,2.4716,2.4294,2.38,2.38,2.38,2.38,2.38,2.38,2.38,2.38,2.38,2.38,2.38,2.38,2.3704,2.3369,2.3203,2.2973,2.2611,2.2453,2.2332,2.2175,2.1837,2.1667,2.1946,0.0,0.0,2.1909,2.1571,2.1087,2.0603,2.0168,1.9588,1.879,1.8911,1.9032,1.9032,1.8983,1.8886,1.8729,0.0,0.0,1.9334,0.0,2.035,2.1256,2.1317,2.1667,2.2296,2.2091,2.1982,2.1994,2.2091,2.2139,2.2151,2.2248,2.2296,2.2308,2.2465,2.2441,2.2332,2.2647,2.2901,2.3094,2.3225,2.3487,2.38,1.5995,1.5879,1.5927,1.653,1.6673,1.6842,1.7263,1.7365,1.7399,1.7419,1.7324,1.7202,1.706,1.7039,1.7026,1.6985,1.6978,1.6978,1.6978,1.6876,1.6743,1.6702,1.6459,1.6252,1.6044,1.5608,1.5181,1.4713,1.5906,1.7095,1.8323,0.0,0.0,0.0,2.2611,2.308,2.368,2.4113,2.4511,2.4861,2.5234,2.5391,2.5391,2.5391,2.5391,2.5391,2.5391,2.5222,2.5005,2.5005,2.4523,2.3921,2.3921,2.386,2.38,2.38,2.38,2.38,2.38,2.38,2.38,2.38,2.38,2.374,2.3475,2.3297,2.313,2.2864,2.2804,2.2744,2.2562,2.232,2.2199,2.2381,0.0,0.0,2.2139,2.1692,2.1148,2.0652,1.9926,1.9261,1.8766,1.879,1.8959,1.9249,1.9165,1.9056,1.8947,0.0,0.0,0.0,0.0,0.0,2.1087,2.1365,2.1776,2.2296,2.2296,2.2296,2.2296,2.2296,2.2296,2.2296,2.2296,2.2296,2.2308,2.2502,2.2465,2.2332,2.2707,2.2901,2.2997,2.3237,2.3414,2.3623,1.6395,1.651,1.67,1.7304,1.748,1.7575,1.7595,1.7758,1.7758,1.746,1.7419,1.7358,1.7209,1.7188,1.7134,1.6992,1.6978,1.6978,1.6978,1.6978,1.691,1.6702,1.6554,1.6449,1.6307,1.5716,1.5337,1.5174,1.6309,1.7527,1.8753,0.0,2.3246,2.3094,2.3587,2.3933,2.4198,2.4463,2.4897,2.5379,2.5391,2.5391,2.5391,2.5391,2.5391,2.5391,2.5391,2.5222,2.5005,2.5005,2.4644,2.4186,2.4186,2.4017,2.38,2.38,2.38,2.38,2.38,2.38,2.38,2.38,2.38,2.374,2.3475,2.3414,2.333,2.313,2.3121,2.307,2.307,2.2852,2.2683,2.2683,0.0,0.0,0.0,2.1909,2.1498,2.0446,2.0301,1.9878,1.8782,1.8947,1.8995,1.8741,1.8959,1.9213,1.9479,0.0,0.0,1.9104,1.9603,0.0,2.1087,2.1353,2.1764,2.2296,2.2296,2.2296,2.2296,2.2296,2.2296,2.2296,2.2296,2.2296,2.2296,2.2296,2.2296,2.2296,2.2308,2.2465,2.2731,2.3024,2.3133,2.313,1.6924,1.6978,1.7073,1.7372,1.746,1.744,1.744,1.7446,1.7372,1.7277,1.7182,1.71,1.7053,1.7046,1.7032,1.6985,1.6978,1.6978,1.6978,1.6978,1.6958,1.691,1.6659,1.6456,1.6313,1.5818,1.5438,1.5181,0.0,0.0,0.0,2.2832,2.38,2.3611,2.4101,2.4487,2.4764,2.5029,2.5234,2.5391,2.5391,2.5391,2.5391,2.5391,2.5391,2.5391,2.5391,2.5343,2.527,2.527,2.4909,2.4463,2.4463,2.4162,2.38,2.38,2.38,2.38,2.38,2.38,2.38,2.38,2.38,2.3776,2.3704,2.3535,2.3282,2.2913,2.3068,2.3261,2.3118,2.3128,2.308,2.2756,2.2623,0.0,2.1728,2.1317,2.0821,2.0098,1.9531,1.9092,1.8722,1.879,1.8959,1.9225,1.9165,1.914,0.0,0.0,0.0,0.0,2.0071,0.0,2.1087,2.1547,2.1946,2.2296,2.2478,2.2659,2.2828,2.2828,2.2731,2.2562,2.2562,2.2465,2.2296,2.2296,2.2296,2.2296,2.2296,2.2453,2.2695,2.278,2.3046,2.3309,1.7249,1.7324,1.7412,1.7561,1.7589,1.7568,1.7514,1.7426,1.7324,1.7209,1.7114,1.7039,1.6985,1.6978,1.6978,1.6978,1.6978,1.6978,1.6978,1.6978,1.6978,1.6978,1.6686,1.6476,1.6388,1.585,0.0,1.5357,1.7427,1.9569,2.1802,2.372,2.4559,2.4415,2.474,2.4981,2.5162,2.5331,2.5391,2.5391,2.5391,2.5391,2.5391,2.5391,2.5391,2.5391,2.5391,2.5391,2.5391,2.5391,2.5102,2.4728,2.462,2.4354,2.4053,2.386,2.38,2.38,2.38,2.38,2.38,2.38,2.38,2.38,2.38,2.368,2.3463,2.3164,2.3369,2.3511,2.3381,2.3366,2.3306,2.3007,2.2816,2.2417,2.1631,2.1051,2.047,1.9842,1.9322,1.8971,1.8874,1.9012,1.9225,1.9346,1.9479,1.9467,0.0,0.0,1.9709,1.9805,2.0483,2.1027,2.1401,2.1837,2.2187,2.2453,2.2707,2.2925,2.3082,2.3082,2.2937,2.2695,2.2695,2.2538,2.2296,2.2296,2.2296,2.2296,2.2296,2.2405,2.2562,2.2768,2.2925,2.3007,1.7392,1.7487,1.7684,1.7826,1.7846,1.7792,1.7575,1.7554,1.7446,1.7216,1.7175,1.7127,1.6992,1.6978,1.6978,1.6978,1.6978,1.6978,1.6978,1.6971,1.6965,1.6965,1.6673,1.651,1.651,1.5891,1.5718,1.5973,1.886,2.121,2.2945,2.4621,2.5391,2.5391,2.5391,2.5391,2.5391,2.5391,2.5391,2.5391,2.5391,2.5391,2.5391,2.5391,2.5391,2.5391,2.5391,2.5391,2.5391,2.5391,2.5222,2.4957,2.4704,2.4595,2.4475,2.3957,2.3812,2.3824,2.3812,2.38,2.38,2.38,2.38,2.38,2.3776,2.3788,2.38,2.3776,2.3788,2.38,2.38,2.3607,2.3427,2.339,2.2995,2.2405,2.1571,2.1027,2.0398,1.96,1.9527,0.0,1.9213,1.9636,1.9721,1.9249,1.9878,2.0071,0.0,0.0,2.0156,2.0362,2.0882,2.1414,2.1958,2.2199,2.2465,2.2744,2.2997,2.3118,2.313,2.313,2.2997,2.2744,2.2719,2.2574,2.232,2.2308,2.2296,2.2296,2.2296,2.2308,2.2381,2.2852,2.2744,2.2417,1.7392,1.7487,1.7609,1.7649,1.7602,1.7473,1.7324,1.7209,1.7114,1.7039,1.7032,1.7019,1.6985,1.6978,1.6978,1.6978,1.6978,1.6978,1.6978,1.687,1.675,1.675,1.6517,1.6361,1.6361,1.5837,1.6884,1.9496,2.0025,2.1954,2.5075,2.5316,2.5391,2.5391,2.5391,2.5391,2.5391,2.5391,2.5391,2.5391,2.5391,2.5391,2.5391,2.5391,2.5391,2.5391,2.5391,2.5391,2.5391,2.5391,2.5222,2.4993,2.4933,2.4764,2.4475,2.3957,2.3945,2.4053,2.386,2.38,2.38,2.38,2.38,2.3752,2.3547,2.3655,2.3752,2.3547,2.3668,2.38,2.38,2.3752,2.3583,2.3251,2.2901,2.2272,2.1063,2.0785,2.0398,1.96,1.9866,2.0096,2.0035,1.9963,2.0035,0.0,0.0,2.0132,2.0398,2.1063,2.1281,2.0918,2.1438,2.197,2.2502,2.2562,2.2828,2.3222,2.3282,2.3427,2.3619,2.3619,2.3475,2.321,2.3082,2.284,2.2586,2.2381,2.2296,2.2296,2.2296,2.2417,2.2586,2.2514,2.2659,2.2852,1.7311,1.7548,1.7704,1.7514,1.748,1.7453,1.7222,1.7127,1.7053,1.6992,1.6978,1.6978,1.6978,1.6978,1.6978,1.6978,1.6978,1.6951,1.6876,1.6743,1.6669,1.6594,1.6429,1.6307,1.6307,1.5934,1.7406,2.0794,2.0588,2.2299,2.5776,2.5644,2.5511,2.5391,2.5391,2.5391,2.5391,2.5391,2.5391,2.5391,2.5391,2.5391,2.5391,2.5391,2.5391,2.5391,2.5391,2.5391,2.5391,2.5391,2.5294,2.5162,2.5041,2.4981,2.4849,2.4318,2.4258,2.4342,2.4198,2.4162,2.4138,2.4017,2.3897,2.3764,2.3631,2.3704,2.3764,2.3619,2.3704,2.38,2.38,2.38,2.3671,2.3167,2.2756,2.2091,2.0869,2.0603,2.0313,1.9757,2.0168,2.0495,2.0495,2.0557,2.0664,2.07,2.0785,0.0,2.1063,2.1837,2.2018,2.1486,2.2103,2.2586,2.2864,2.2959,2.3225,2.3595,2.3595,2.3668,2.38,2.38,2.3655,2.3402,2.3203,2.2937,2.2671,2.2405,2.2296,2.2296,2.2296,2.2381,2.2526,2.2623,2.2756,2.2877,1.7249,1.7555,1.7758,1.75,1.7487,1.7467,1.7236,1.7175,1.7114,1.6998,1.6978,1.6978,1.6978,1.6978,1.6978,1.6978,1.6978,1.6917,1.6709,1.6675,1.6594,1.6497,1.6354,1.6266,1.6239,1.6285,1.7825,2.0927,2.1077,2.2757,2.5849,2.5801,2.5644,2.5391,2.5391,2.5391,2.5391,2.5391,2.5391,2.5391,2.5391,2.5391,2.5391,2.5391,2.5391,2.5391,2.5391,2.5391,2.5391,2.5391,2.5391,2.5355,2.5138,2.521,2.5306,2.4836,2.4704,2.4692,2.4607,2.4559,2.4475,2.4246,2.4005,2.38,2.38,2.38,2.38,2.38,2.38,2.38,2.38,2.3776,2.3583,2.3167,2.2574,2.1837,2.0845,0.0,2.0277,1.9977,2.0555,2.0942,2.0942,2.1365,2.1474,2.1087,2.1619,2.1909,2.1764,2.2429,2.2611,2.2126,2.2756,2.3094,2.3143,2.333,2.3583,2.38,2.38,2.38,2.38,2.38,2.368,2.3463,2.3215,2.2949,2.2731,2.2417,2.2296,2.2296,2.2296,2.232,2.2405,2.2816,2.2877,2.278,1.7365,1.7548,1.7615,1.7568,1.7473,1.7399,1.7216,1.7087,1.7005,1.6985,1.6978,1.6978,1.6978,1.6978,1.6978,1.6978,1.6978,1.6917,1.6709,1.6574,1.649,1.6347,1.6198,1.6056,1.5976,1.731,1.9,2.1065,2.25,2.4241,2.6114,2.5885,2.5644,2.5391,2.5391,2.5391,2.5391,2.5391,2.5391,2.5391,2.5391,2.5391,2.5391,2.5391,2.5391,2.5391,2.5391,2.5391,2.5391,2.5391,2.5391,2.5391,2.5343,2.5367,2.5379,2.5294,2.527,2.5174,2.4704,2.4427,2.4246,2.421,2.4005,2.38,2.38,2.38,2.38,2.38,2.38,2.38,2.38,2.3619,2.3366,2.313,2.2272,2.1414,2.0797,0.0,2.0543,2.0277,2.1317,2.2054,2.2054,2.2127,2.232,2.2683,2.2417,2.2417,2.2816,2.314,2.3258,2.3173,2.3143,2.3191,2.3342,2.3607,2.3764,2.38,2.38,2.38,2.38,2.38,2.3776,2.3716,2.33,2.3097,2.2985,2.2502,2.2296,2.2296,2.2296,2.2441,2.2611,2.2478,2.2671,2.2997,1.7392,1.7487,1.7568,1.7487,1.7412,1.7372,1.7216,1.7073,1.6978,1.6978,1.6978,1.6978,1.6978,1.6978,1.6978,1.6978,1.6978,1.6876,1.6594,1.6506,1.6422,1.6198,1.6117,1.6058,1.5908,1.7562,1.9321,2.1226,2.305,2.4789,2.6391,2.6126,2.5861,2.5596,2.5451,2.5391,2.5391,2.5391,2.5391,2.5391,2.5391,2.5391,2.5391,2.5391,2.5391,2.5391,2.5391,2.5391,2.5391,2.5391,2.5391,2.5391,2.5391,2.5391,2.5391,2.5391,2.5391,2.5343,2.509,2.4836,2.4632,2.4632,2.4427,2.4222,2.4222,2.4222,2.4186,2.4041,2.4017,2.3969,2.3836,2.3595,2.3318,2.313,2.2079,0.0,2.116,2.0894,2.0821,2.1135,2.1958,2.2562,2.2707,2.2719,2.2816,2.3058,2.2852,2.2889,2.3249,2.3342,2.3475,2.3619,2.3538,2.3538,2.3619,2.374,2.38,2.38,2.38,2.38,2.38,2.38,2.38,2.3776,2.343,2.3215,2.3058,2.2671,2.2429,2.2296,2.2296,2.2369,2.2478,2.2502,2.2659,2.2852,1.7399,1.7487,1.7548,1.7446,1.7419,1.7372,1.7216,1.7073,1.6978,1.6978,1.6978,1.6978,1.6978,1.6978,1.6978,1.6978,1.6944,1.6809,1.6537,1.649,1.6354,1.609,1.6015,1.5906,1.5806,1.7907,1.9765,2.1245,2.3546,2.5331,2.6487,2.621,2.5945,2.568,2.5487,2.5391,2.5391,2.5391,2.5391,2.5391,2.5391,2.5391,2.5391,2.5391,2.5391,2.5391,2.5391,2.5391,2.5391,2.5391,2.5391,2.5391,2.5391,2.5391,2.5391,2.5391,2.5391,2.5391,2.5391,2.5198,2.5005,2.5005,2.4788,2.4583,2.4583,2.4583,2.4523,2.433,2.4282,2.4222,2.4017,2.3728,2.3414,2.3176,0.0,2.1426,2.1583,2.1293,2.1305,2.1921,2.2514,2.2949,2.3155,2.3227,2.3263,2.3263,2.3263,2.3321,2.3487,2.3511,2.3595,2.38,2.38,2.38,2.38,2.38,2.38,2.38,2.38,2.38,2.38,2.38,2.38,2.3788,2.3523,2.3297,2.3058,2.2792,2.2538,2.2296,2.2296,2.2296,2.232,2.2526,2.2635,2.2695,1.7419,1.7487,1.7548,1.7446,1.7419,1.7372,1.7216,1.7073,1.6978,1.6978,1.6978,1.6978,1.6978,1.6978,1.6978,1.6978,1.6849,1.6648,1.653,1.6395,1.6252,1.609,1.5818,1.5553,1.5445,1.9023,2.0955,2.1094,2.4687,2.6342,2.6198,2.5933,2.568,2.5427,2.5403,2.5391,2.5391,2.5391,2.5391,2.5391,2.5391,2.5391,2.5391,2.5391,2.5391,2.5391,2.5391,2.5391,2.5391,2.5391,2.5391,2.5391,2.5391,2.5391,2.5391,2.5391,2.5391,2.5391,2.5391,2.5198,2.5005,2.5005,2.4788,2.4583,2.4583,2.4583,2.4583,2.4559,2.4559,2.4547,2.4523,2.4113,2.3692,2.3427,0.0,0.0,2.1909,2.2054,2.2199,2.226,2.2923,2.3366,2.3378,2.3607,2.3752,2.3752,2.3752,2.3752,2.3776,2.3776,2.3788,2.38,2.38,2.38,2.38,2.38,2.38,2.38,2.38,2.38,2.38,2.38,2.38,2.3788,2.3523,2.3297,2.3058,2.2792,2.2538,2.2296,2.2296,2.2296,2.2296,2.232,2.2478,2.2695,1.7467,1.7554,1.7575,1.7514,1.7487,1.7372,1.7216,1.7073,1.6978,1.6978,1.6978,1.6978,1.6978,1.6978,1.6978,1.6978,1.6931,1.6788,1.6537,1.6469,1.6334,1.609,1.5798,1.5566,1.5554,1.9189,2.1121,2.1121,2.4946,2.6704,2.6427,2.615,2.5885,2.5632,2.5463,2.5391,2.5391,2.5391,2.5391,2.5391,2.5391,2.5391,2.5391,2.5391,2.5391,2.5391,2.5391,2.5391,2.5391,2.5391,2.5391,2.5391,2.5391,2.5391,2.5391,2.5391,2.5391,2.5391,2.5391,2.5318,2.5246,2.5246,2.5162,2.509,2.509,2.509,2.5041,2.4873,2.4849,2.4788,2.462,2.4294,2.4017,2.3909,0.0,2.2623,2.2788,2.279,2.2901,2.32,2.3619,2.3957,2.4125,2.4089,2.4113,2.427,2.4294,2.4222,2.4053,2.3897,2.38,2.38,2.38,2.38,2.38,2.38,2.38,2.38,2.38,2.38,2.38,2.38,2.3716,2.3571,2.3631,2.3454,2.307,2.2973,2.278,2.2526,2.2357,2.2296,2.2296,2.2296,2.2357,2.2453,1.7473,1.7487,1.7494,1.7453,1.7392,1.7297,1.7148,1.7039,1.6978,1.6978,1.6978,1.6978,1.6978,1.6978,1.6978,1.6978,1.6937,1.6795,1.6537,1.6435,1.6273,1.6071,1.5771,1.5566,1.5519,1.9197,2.1121,2.1121,2.4968,2.6765,2.6584,2.6222,2.6001,2.5776,2.5511,2.5391,2.5391,2.5391,2.5391,2.5391,2.5391,2.5391,2.5391,2.5391,2.5391,2.5391,2.5391,2.5391,2.5391,2.5391,2.5391,2.5391,2.5391,2.5391,2.5391,2.5391,2.5391,2.5391,2.5391,2.5391,2.5391,2.5391,2.5391,2.5391,2.5391,2.5391,2.5343,2.5162,2.5126,2.5065,2.4873,2.4632,2.4427,2.433,2.3744,2.3369,2.3619,2.3611,2.3683,2.4005,2.421,2.4391,2.4571,2.4427,2.4391,2.4571,2.4583,2.4475,2.421,2.4029,2.3884,2.3812,2.38,2.38,2.38,2.38,2.38,2.38,2.38,2.38,2.38,2.38,2.3655,2.3427,2.3607,2.3418,2.2961,2.2961,2.2804,2.255,2.2369,2.2296,2.2296,2.2296,2.2296,2.2296,1.7222,1.7317,1.7324,1.7032,1.71,1.7148,1.7005,1.6978,1.6978,1.6978,1.6978,1.6978,1.6978,1.6978,1.6978,1.6978,1.6842,1.6635,1.653,1.6246,1.6064,1.5908,1.5716,1.5519,1.5418,1.9129,2.1065,2.1121,2.48,2.6596,2.6584,2.6042,2.5788,2.5776,2.5511,2.5403,2.5391,2.5391,2.5391,2.5391,2.5391,2.5391,2.5391,2.5391,2.5391,2.5391,2.5391,2.5391,2.5391,2.5391,2.5391,2.5391,2.5391,2.5391,2.5391,2.5391,2.5391,2.5391,2.5391,2.5391,2.5391,2.5391,2.5391,2.5391,2.5391,2.5391,2.5391,2.5391,2.5391,2.5391,2.5391,2.5186,2.4909,2.4632,2.4583,2.4499,2.4234,2.4427,2.4583,2.4583,2.4583,2.4583,2.4595,2.4583,2.4583,2.4595,2.4583,2.4475,2.421,2.4198,2.4077,2.3812,2.38,2.38,2.38,2.38,2.38,2.38,2.38,2.38,2.38,2.38,2.3655,2.3414,2.3414,2.3152,2.2695,2.2695,2.2538,2.2296,2.2296,2.2296,2.2296,2.2296,2.2296,2.2296,1.7202,1.7317,1.7358,1.7161,1.7161,1.7148,1.7005,1.6978,1.6978,1.6978,1.6978,1.6978,1.6978,1.6978,1.6978,1.6978,1.6937,1.6802,1.6537,1.6246,1.6062,1.6064,1.5771,1.5566,1.5526,1.7797,1.9677,2.1121,2.3624,2.5444,2.6596,2.6427,2.615,2.5776,2.5704,2.5572,2.5391,2.5391,2.5391,2.5391,2.5391,2.5391,2.5391,2.5391,2.5391,2.5391,2.5391,2.5391,2.5391,2.5391,2.5391,2.5391,2.5391,2.5391,2.5391,2.5391,2.5391,2.5391,2.5391,2.5391,2.5391,2.5391,2.5391,2.5391,2.5391,2.5391,2.5391,2.5391,2.5391,2.5391,2.5391,2.5331,2.5186,2.4921,2.4873,2.4776,2.4511,2.4704,2.4873,2.4873,2.4873,2.4945,2.5138,2.4981,2.4957,2.5138,2.4981,2.4764,2.4487,2.4294,2.4077,2.3812,2.38,2.38,2.38,2.38,2.38,2.38,2.38,2.38,2.38,2.38,2.3599,2.3215,2.333,2.3152,2.2695,2.2695,2.2647,2.255,2.2369,2.2296,2.2296,2.2296,2.2296,2.2296,1.7107,1.7182,1.7216,1.7127,1.7107,1.708,1.6992,1.6978,1.6978,1.6978,1.6978,1.6978,1.6978,1.6978,1.6978,1.6978,1.687,1.6693,1.6456,1.6212,1.6083,1.6083,1.5852,1.5723,1.5723,1.7362,1.8819,2.0033,2.2765,2.4638,2.5636,2.6273,2.6415,2.6102,2.5885,2.5692,2.5535,2.5439,2.5391,2.5391,2.5391,2.5391,2.5391,2.5391,2.5391,2.5391,2.5391,2.5391,2.5391,2.5391,2.5391,2.5391,2.5391,2.5391,2.5391,2.5391,2.5391,2.5391,2.5391,2.5391,2.5391,2.5391,2.5391,2.5391,2.5391,2.5391,2.5391,2.5391,2.5391,2.5391,2.5391,2.5391,2.5343,2.5186,2.5162,2.5102,2.4933,2.5053,2.5162,2.5162,2.5162,2.5222,2.5379,2.5246,2.5222,2.5379,2.5246,2.4993,2.4607,2.4439,2.4186,2.3812,2.38,2.38,2.38,2.38,2.38,2.38,2.38,2.38,2.38,2.38,2.3571,2.3212,2.3261,2.3043,2.2683,2.2574,2.2538,2.2526,2.2357,2.2296,2.2296,2.2296,2.2296,2.2296,1.6978,1.6978,1.6978,1.6978,1.6978,1.6978,1.6978,1.6978,1.6978,1.6978,1.6978,1.6978,1.6978,1.6978,1.6978,1.6978,1.6714,1.6483,1.6341,1.6185,1.6096,1.6083,1.5996,1.5922,1.5922,1.7378,1.8239,1.838,2.1864,2.3642,2.3871,2.5591,2.625,2.6068,2.5922,2.5714,2.5548,2.5456,2.5391,2.5391,2.5391,2.5391,2.5391,2.5391,2.5403,2.5427,2.5427,2.5427,2.5427,2.5403,2.5391,2.5391,2.5391,2.5391,2.5391,2.5391,2.5391,2.5391,2.5391,2.5391,2.5391,2.5391,2.5391,2.5391,2.5391,2.5391,2.5391,2.5391,2.5391,2.5391,2.5391,2.5391,2.5391,2.5391,2.5391,2.5391,2.5391,2.5391,2.5391,2.5391,2.5391,2.5391,2.5391,2.5391,2.5391,2.5391,2.5367,2.5138,2.462,2.4559,2.4318,2.3824,2.38,2.38,2.38,2.38,2.38,2.38,2.38,2.38,2.38,2.38,2.3643,2.3366,2.3191,2.2913,2.2635,2.2393,2.2296,2.2296,2.2296,2.2296,2.2296,2.2296,2.2296,2.2296,1.6978,1.6978,1.6978,1.6978,1.6978,1.6978,1.6978,1.6978,1.6978,1.6978,1.6978,1.6978,1.6978,1.6978,1.6978,1.6978,1.6809,1.6581,1.6483,1.6341,1.6205,1.609,1.6049,1.6085,1.6085,1.6056,1.6824,1.838,1.9074,2.0233,2.1803,2.3736,2.37,2.2096,2.4884,2.517,2.3599,2.4886,2.5391,2.5391,2.5391,2.5391,2.5391,2.5391,2.5523,2.5704,2.5704,2.5704,2.5668,2.5463,2.5391,2.5391,2.5391,2.5391,2.5391,2.5391,2.5391,2.5391,2.5391,2.5391,2.5391,2.5391,2.5391,2.5391,2.5391,2.5391,2.5391,2.5391,2.5391,2.5391,2.5391,2.5391,2.5391,2.5391,2.5391,2.5391,2.5391,2.5391,2.5391,2.5391,2.5391,2.5391,2.5391,2.5391,2.5391,2.5391,2.521,2.4945,2.4607,2.4391,2.4138,2.3812,2.38,2.38,2.38,2.38,2.38,2.38,2.38,2.38,2.38,2.38,2.3587,2.3167,2.3106,2.2816,2.2381,2.232,2.2296,2.2296,2.2296,2.2296,2.2296,2.2296,2.2296,2.2296,1.6978,1.6978,1.6978,1.6978,1.6978,1.6978,1.6978,1.6978,1.6978,1.6978,1.6978,1.6978,1.6978,1.6978,1.6951,1.6876,1.6743,1.6608,1.6435,1.6347,1.6239,1.609,1.6083,1.6083,1.6083,1.5778,1.6111,1.7039,1.786,1.8747,1.9723,2.1711,2.2021,2.0978,2.2699,2.2835,2.1815,2.249,2.3311,2.4126,2.4084,2.4609,2.5391,2.5391,2.5475,2.562,2.574,2.5788,2.5764,2.562,2.5499,2.5391,2.5391,2.5391,2.5391,2.5391,2.5391,2.5391,2.5391,2.5391,2.5391,2.5391,2.5391,2.5391,2.5391,2.5391,2.5391,2.5391,2.5391,2.5391,2.5391,2.5391,2.5391,2.5391,2.5391,2.5391,2.5391,2.5391,2.5391,2.5391,2.5391,2.5391,2.5391,2.5391,2.5391,2.5391,2.515,2.4885,2.4595,2.4342,2.4077,2.3812,2.38,2.38,2.38,2.38,2.38,2.38,2.38,2.38,2.38,2.38,2.3583,2.3237,2.3143,2.2852,2.2478,2.2345,2.2296,2.2296,2.2296,2.2296,2.2296,2.2296,2.2296,2.2296,1.6978,1.6978,1.6978,1.6978,1.6978,1.6978,1.6978,1.6978,1.6978,1.6978,1.6978,1.6978,1.6978,1.6978,1.6931,1.675,1.6736,1.6615,1.6368,1.6347,1.6266,1.609,1.6083,1.6083,1.6083,1.6003,1.5818,1.5627,1.7159,1.7789,1.7686,1.9659,2.0391,2.0076,2.0368,2.028,1.9976,1.9921,2.0785,2.2223,2.2169,2.3084,2.4481,2.4823,2.4944,2.5058,2.5666,2.5849,2.5849,2.5849,2.5644,2.5403,2.5451,2.5427,2.5391,2.5391,2.5391,2.5391,2.5391,2.5391,2.5391,2.5391,2.5391,2.5391,2.5391,2.5391,2.5391,2.5391,2.5391,2.5391,2.5391,2.5391,2.5391,2.5391,2.5391,2.5391,2.5391,2.5391,2.5391,2.5391,2.5391,2.5391,2.5391,2.5391,2.5391,2.5391,2.5114,2.4824,2.4595,2.4294,2.4029,2.3812,2.38,2.38,2.38,2.38,2.38,2.38,2.38,2.38,2.38,2.38,2.3631,2.333,2.3179,2.2913,2.2611,2.2393,2.2296,2.2296,2.2296,2.2296,2.2296,2.2296,2.2296,2.2296,1.6978,1.6978,1.6978,1.6978,1.6978,1.6978,1.6978,1.6978,1.6978,1.6978,1.6978,1.6978,1.6978,1.6978,1.6971,1.6951,1.6951,1.6822,1.651,1.649,1.6368,1.6096,1.6083,1.6083,1.6083,1.6062,1.5974,1.5874,1.5828,1.5779,1.5798,1.7514,1.7497,1.6137,1.905,1.9428,1.7997,1.9341,2.0047,2.0264,2.0264,2.0438,2.0828,2.2438,2.3173,2.3556,2.5492,2.617,2.617,2.617,2.5801,2.5439,2.5656,2.5572,2.5391,2.5391,2.5391,2.5391,2.5391,2.5391,2.5391,2.5391,2.5391,2.5391,2.5391,2.5391,2.5391,2.5391,2.5391,2.5391,2.5391,2.5391,2.5391,2.5391,2.5391,2.5391,2.5391,2.5391,2.5391,2.5391,2.5391,2.5391,2.5391,2.5391,2.5391,2.5391,2.4933,2.462,2.4583,2.4125,2.3836,2.38,2.38,2.38,2.38,2.38,2.38,2.38,2.38,2.38,2.38,2.38,2.3575,2.313,2.3094,2.2804,2.2345,2.2308,2.2296,2.2296,2.2296,2.2296,2.2296,2.2296,2.2296,2.2296,1.6978,1.6978,1.6978,1.6978,1.6978,1.6978,1.6978,1.6978,1.6978,1.6978,1.6978,1.6978,1.6978,1.6978,1.6978,1.6978,1.6978,1.689,1.6615,1.652,1.6429,1.6218,1.613,1.6083,1.6083,1.6083,1.6049,1.603,1.5683,1.5445,1.5404,1.6065,1.5946,1.5261,1.6712,1.6832,1.5985,1.659,1.7441,1.8348,1.8348,1.8959,2.0004,2.0828,2.1192,2.1585,2.3842,2.5418,2.6379,2.6266,2.5921,2.5608,2.5572,2.5487,2.5391,2.5391,2.5391,2.5391,2.5391,2.5391,2.5391,2.5391,2.5391,2.5391,2.5391,2.5391,2.5391,2.5391,2.5391,2.5391,2.5391,2.5391,2.5391,2.5391,2.5391,2.5391,2.5391,2.5391,2.5391,2.5391,2.5391,2.5391,2.5391,2.5391,2.5391,2.5391,2.5041,2.4752,2.4595,2.4222,2.3957,2.3812,2.38,2.38,2.38,2.38,2.38,2.38,2.38,2.38,2.38,2.3655,2.3418,2.307,2.2925,2.2647,2.2296,2.2296,2.2296,2.2296,2.2296,2.2296,2.2184,2.1262,2.0887,2.0752]},{"header":{"parameterUnit":"m.s-1","parameterCategory":1,"la1":30.6,"la2":28.766,"lo1":-90.7593,"lo2":-88.6598,"dy":0.0162,"dx":0.0183,"nx":116,"ny":114,"refTime":"2023-04-22T06:00:00:Z","depth":0,"parameterNumber":3,"parameterNumberName":"V-component_of_WINDS"},"data":[0.0,0.0,0.0,0.0,0.0,0.0,0.0,0.0,0.0,0.0,0.0,0.0,0.0,0.0,0.0,0.0,0.0,0.0,0.0,0.0,0.0,0.0,0.0,0.0,0.0,0.0,0.0,0.0,0.0,0.0,0.0,0.0,0.0,0.0,0.0,0.0,0.0,0.0,0.0,0.0,0.0,0.0,0.0,0.0,0.0,0.0,0.0,0.0,0.0,0.0,0.0,0.0,0.0,0.0,0.0,0.0,0.0,0.0,0.0,0.0,0.0,0.0,0.0,0.0,0.0,0.0,0.0,0.0,0.0,0.0,0.0,0.0,0.0,0.0,0.0,0.0,0.0,0.0,0.0,0.0,0.0,0.0,0.0,0.0,0.0,0.0,0.0,0.0,0.0,0.0,0.0,0.0,0.0,0.0,0.0,0.0,0.0,0.0,0.0,0.0,0.0,0.0,0.0,0.0,0.0,0.0,0.0,0.0,0.0,0.0,0.0,0.0,0.0,0.0,0.0,0.0,0.0,0.0,0.0,0.0,0.0,0.0,0.0,0.0,0.0,0.0,0.0,0.0,0.0,0.0,0.0,0.0,0.0,0.0,0.0,0.0,0.0,0.0,0.0,0.0,0.0,0.0,0.0,0.0,0.0,0.0,0.0,0.0,0.0,0.0,0.0,0.0,0.0,0.0,0.0,0.0,0.0,0.0,0.0,0.0,0.0,0.0,0.0,0.0,0.0,0.0,0.0,0.0,0.0,0.0,0.0,0.0,0.0,0.0,0.0,0.0,0.0,0.0,0.0,0.0,0.0,0.0,0.0,0.0,0.0,0.0,0.0,0.0,0.0,0.0,0.0,0.0,0.0,0.0,0.0,0.0,0.0,0.0,0.0,0.0,0.0,0.0,0.0,0.0,0.0,0.0,0.0,0.0,0.0,0.0,0.0,0.0,0.0,0.0,0.0,0.0,0.0,0.0,0.0,0.0,0.0,0.0,0.0,0.0,0.0,0.0,0.0,0.0,0.0,0.0,0.0,0.0,0.0,0.0,0.0,0.0,0.0,0.0,0.0,0.0,0.0,0.0,0.0,0.0,0.0,0.0,0.0,0.0,0.0,0.0,0.0,0.0,0.0,0.0,0.0,0.0,0.0,0.0,0.0,0.0,0.0,0.0,0.0,0.0,0.0,0.0,0.0,0.0,0.0,0.0,0.0,0.0,0.0,0.0,0.0,0.0,0.0,0.0,0.0,0.0,0.0,0.0,0.0,0.0,0.0,0.0,0.0,0.0,0.0,0.0,0.0,0.0,0.0,0.0,0.0,0.0,0.0,0.0,0.0,0.0,0.0,0.0,0.0,0.0,0.0,0.0,0.0,0.0,0.0,0.0,0.0,0.0,0.0,0.0,0.0,0.0,0.0,0.0,0.0,0.0,0.0,0.0,0.0,0.0,0.0,0.0,0.0,0.0,0.0,0.0,0.0,0.0,0.0,0.0,0.0,0.0,0.0,0.0,0.0,0.0,0.0,0.0,0.0,0.0,0.0,0.0,0.0,0.0,0.0,0.0,0.0,0.0,0.0,0.0,0.0,0.0,0.0,0.0,0.0,0.0,0.0,0.0,0.0,0.0,0.0,0.0,0.0,0.0,0.0,0.0,0.0,0.0,0.0,0.0,0.0,0.0,0.0,0.0,0.0,0.0,0.0,0.0,0.0,0.0,0.0,0.0,0.0,0.0,0.0,0.0,0.0,0.0,0.0,0.0,0.0,0.0,0.0,0.0,0.0,0.0,0.0,0.0,0.0,0.0,0.0,0.0,0.0,0.0,0.0,0.0,0.0,0.0,0.0,0.0,0.0,0.0,0.0,0.0,0.0,0.0,0.0,0.0,0.0,0.0,0.0,0.0,0.0,0.0,0.0,0.0,0.0,0.0,0.0,0.0,0.0,0.0,0.0,0.0,0.0,0.0,0.0,0.0,0.0,0.0,0.0,0.0,0.0,0.0,0.0,0.0,0.0,0.0,0.0,0.0,0.0,0.0,0.0,0.0,0.0,0.0,0.0,0.0,0.0,0.0,0.0,0.0,0.0,0.0,0.0,0.0,0.0,0.0,0.0,0.0,0.0,0.0,0.0,0.0,0.0,0.0,0.0,0.0,0.0,0.0,0.0,0.0,0.0,0.0,0.0,0.0,0.0,0.0,0.0,0.0,0.0,0.0,0.0,0.0,0.0,0.0,0.0,0.0,0.0,0.0,0.0,0.0,0.0,0.0,0.0,0.0,0.0,0.0,0.0,0.0,0.0,0.0,0.0,0.0,0.0,0.0,0.0,0.0,0.0,0.0,0.0,0.0,0.0,0.0,0.0,0.0,0.0,0.0,0.0,0.0,0.0,0.0,0.0,0.0,0.0,0.0,0.0,0.0,0.0,0.0,0.0,0.0,0.0,0.0,0.0,0.0,0.0,0.0,0.0,0.0,0.0,0.0,0.0,0.0,0.0,0.0,0.0,0.0,0.0,0.0,0.0,0.0,0.0,0.0,0.0,0.0,0.0,0.0,0.0,0.0,0.0,0.0,0.0,0.0,0.0,0.0,0.0,0.0,0.0,0.0,0.0,0.0,0.0,0.0,0.0,0.0,0.0,0.0,0.0,0.0,0.0,0.0,0.0,0.0,0.0,0.0,0.0,0.0,0.0,0.0,0.0,0.0,0.0,0.0,0.0,0.0,0.0,0.0,0.0,0.0,0.0,0.0,0.0,0.0,0.0,0.0,0.0,0.0,0.0,0.0,0.0,0.0,0.0,0.0,0.0,0.0,0.0,0.0,0.0,0.0,0.0,0.0,0.0,0.0,0.0,0.0,0.0,0.0,0.0,0.0,0.0,0.0,0.0,0.0,0.0,0.0,0.0,0.0,0.0,0.0,0.0,0.0,0.0,0.0,0.0,0.0,0.0,0.0,0.0,0.0,0.0,0.0,0.0,0.0,0.0,0.0,0.0,0.0,0.0,0.0,0.0,0.0,0.0,0.0,0.0,0.0,0.0,0.0,0.0,0.0,0.0,0.0,0.0,0.0,0.0,0.0,0.0,0.0,0.0,0.0,0.0,0.0,0.0,0.0,0.0,0.0,0.0,0.0,0.0,0.0,0.0,0.0,0.0,0.0,0.0,0.0,0.0,0.0,0.0,0.0,0.0,0.0,0.0,0.0,0.0,0.0,0.0,0.0,0.0,0.0,0.0,0.0,0.0,0.0,0.0,0.0,0.0,0.0,0.0,0.0,0.0,0.0,0.0,0.0,0.0,0.0,0.0,0.0,0.0,0.0,0.0,0.0,0.0,0.0,0.0,0.0,0.0,0.0,0.0,0.0,0.0,0.0,0.0,0.0,0.0,0.0,0.0,0.0,0.0,0.0,0.0,0.0,0.0,0.0,0.0,0.0,0.0,0.0,0.0,0.0,0.0,0.0,0.0,0.0,0.0,0.0,0.0,0.0,0.0,0.0,0.0,0.0,0.0,0.0,0.0,0.0,0.0,0.0,0.0,0.0,0.0,0.0,0.0,0.0,0.0,0.0,0.0,0.0,0.0,0.0,0.0,0.0,0.0,0.0,0.0,0.0,0.0,0.0,0.0,0.0,0.0,0.0,0.0,0.0,0.0,0.0,0.0,0.0,0.0,0.0,0.0,0.0,0.0,0.0,0.0,0.0,0.0,0.0,0.0,0.0,0.0,0.0,0.0,0.0,0.0,0.0,0.0,0.0,0.0,0.0,0.0,0.0,0.0,0.0,0.0,0.0,0.0,0.0,0.0,0.0,0.0,0.0,0.0,0.0,0.0,0.0,0.0,0.0,0.0,0.0,0.0,0.0,0.0,0.0,0.0,0.0,0.0,0.0,0.0,0.0,0.0,0.0,0.0,0.0,0.0,0.0,0.0,0.0,0.0,0.0,0.0,0.0,0.0,0.0,0.0,0.0,0.0,0.0,0.0,0.0,0.0,0.0,0.0,0.0,0.0,0.0,0.0,0.0,0.0,0.0,0.0,0.0,0.0,0.0,0.0,0.0,0.0,0.0,0.0,0.0,0.0,0.0,0.0,0.0,0.0,0.0,0.0,0.0,0.0,0.0,0.0,0.0,0.0,0.0,0.0,0.0,0.0,0.0,0.0,0.0,0.0,0.0,0.0,0.0,0.0,0.0,0.0,0.0,0.0,0.0,0.0,0.0,0.0,0.0,0.0,0.0,0.0,0.0,0.0,0.0,0.0,0.0,0.0,0.0,0.0,0.0,0.0,0.0,0.0,0.0,0.0,0.0,0.0,0.0,0.0,0.0,0.0,0.0,0.0,0.0,0.0,0.0,0.0,0.0,0.0,0.0,0.0,0.0,0.0,0.0,0.0,0.0,0.0,0.0,0.0,0.0,0.0,0.0,0.0,0.0,0.0,0.0,0.0,0.0,0.0,0.0,0.0,0.0,0.0,0.0,0.0,0.0,0.0,0.0,0.0,0.0,0.0,0.0,0.0,0.0,0.0,0.0,0.0,0.0,0.0,0.0,0.0,0.0,0.0,0.0,0.0,0.0,0.0,0.0,0.0,0.0,0.0,0.0,0.0,0.0,0.0,0.0,0.0,0.0,0.0,0.0,0.0,0.0,0.0,0.0,0.0,0.0,0.0,0.0,0.0,0.0,0.0,0.0,0.0,0.0,0.0,0.0,0.0,0.0,0.0,0.0,0.0,0.0,0.0,0.0,0.0,0.0,0.0,0.0,0.0,0.0,0.0,0.0,0.0,0.0,0.0,0.0,0.0,0.0,0.0,0.0,0.0,0.0,0.0,0.0,0.0,0.0,0.0,0.0,0.0,0.0,0.0,0.0,0.0,0.0,0.0,0.0,0.0,0.0,0.0,0.0,0.0,0.0,0.0,0.0,0.0,0.0,0.0,0.0,0.0,0.0,0.0,0.0,0.0,0.0,0.0,0.0,0.0,0.0,0.0,0.0,0.0,0.0,0.0,0.0,0.0,0.0,0.0,0.0,0.0,0.0,0.0,0.0,0.0,0.0,0.0,0.0,0.0,0.0,0.0,0.0,0.0,0.0,0.0,0.0,0.0,0.0,0.0,0.0,0.0,0.0,0.0,0.0,0.0,0.0,0.0,0.0,0.0,0.0,0.0,0.0,0.0,0.0,0.0,0.0,0.0,0.0,0.0,0.0,0.0,0.0,0.0,0.0,0.0,0.0,0.0,0.0,0.0,0.0,0.0,0.0,0.0,0.0,0.0,0.0,0.0,0.0,0.0,0.0,0.0,0.0,0.0,0.0,0.0,0.0,0.0,0.0,0.0,0.0,0.0,0.0,0.0,0.0,0.0,0.0,0.0,0.0,0.0,0.0,0.0,0.0,0.0,0.0,0.0,0.0,0.0,0.0,0.0,0.0,0.0,0.0,0.0,0.0,0.0,0.0,0.0,0.0,0.0,0.0,0.0,0.0,0.0,0.0,0.0,0.0,0.0,0.0,0.0,0.0,0.0,0.0,0.0,0.0,0.0,0.0,0.0,0.0,0.0,0.0,0.0,0.0,0.0,0.0,0.0,0.0,0.0,0.0,0.0,0.0,0.0,0.0,0.0,0.0,0.0,0.0,0.0,0.0,0.0,0.0,0.0,0.0,0.0,0.0,0.0,0.0,0.0,0.0,0.0,0.0,0.0,0.0,0.0,0.0,0.0,0.0,0.0,0.0,0.0,0.0,0.0,0.0,0.0,0.0,0.0,0.0,0.0,0.0,0.0,0.0,0.0,0.0,0.0,0.0,0.0,0.0,0.0,0.0,0.0,0.0,0.0,0.0,0.0,0.0,0.0,0.0,0.0,0.0,0.0,0.0,0.0,0.0,0.0,0.0,0.0,0.0,0.0,0.0,0.0,0.0,0.0,0.0,0.0,0.0,0.0,0.0,0.0,0.0,0.0,0.0,0.0,0.0,0.0,0.0,0.0,0.0,0.0,0.0,0.0,0.0,0.0,0.0,0.0,0.0,0.0,0.0,0.0,0.0,0.0,0.0,0.0,0.0,0.0,0.0,0.0,0.0,0.0,0.0,0.0,0.0,0.0,0.0,0.0,0.0,0.0,0.0,0.0,0.0,0.0,0.0,0.0,0.0,4.3701,4.3224,0.0,0.0,0.0,0.0,0.0,0.0,0.0,0.0,0.0,0.0,0.0,0.0,0.0,0.0,0.0,0.0,0.0,0.0,0.0,0.0,0.0,0.0,0.0,0.0,0.0,0.0,0.0,0.0,0.0,0.0,0.0,0.0,0.0,0.0,0.0,0.0,0.0,4.1028,4.1447,4.2096,4.2893,4.2057,4.1512,4.124,0.0,0.0,0.0,0.0,0.0,0.0,0.0,0.0,0.0,0.0,0.0,0.0,0.0,0.0,0.0,0.0,0.0,0.0,0.0,0.0,0.0,0.0,0.0,0.0,0.0,0.0,0.0,0.0,0.0,0.0,0.0,0.0,0.0,0.0,0.0,0.0,0.0,0.0,0.0,0.0,0.0,0.0,0.0,0.0,0.0,0.0,0.0,0.0,0.0,0.0,0.0,0.0,0.0,0.0,0.0,0.0,0.0,0.0,0.0,0.0,0.0,0.0,0.0,0.0,0.0,0.0,0.0,0.0,0.0,0.0,4.6405,4.4921,0.0,0.0,0.0,0.0,0.0,0.0,0.0,0.0,0.0,0.0,0.0,0.0,0.0,0.0,0.0,0.0,0.0,0.0,0.0,0.0,0.0,0.0,0.0,4.218,4.2604,4.3701,4.3704,4.3653,0.0,0.0,0.0,0.0,0.0,0.0,0.0,4.2556,4.2506,4.1729,4.287,4.3859,4.4656,4.4279,4.3762,4.3169,4.3088,0.0,0.0,0.0,0.0,0.0,0.0,0.0,0.0,0.0,0.0,0.0,0.0,0.0,0.0,0.0,0.0,0.0,0.0,0.0,0.0,0.0,0.0,0.0,0.0,0.0,0.0,0.0,0.0,0.0,0.0,0.0,0.0,0.0,0.0,0.0,0.0,0.0,0.0,0.0,0.0,0.0,0.0,0.0,0.0,0.0,0.0,0.0,0.0,0.0,0.0,0.0,0.0,0.0,0.0,0.0,0.0,0.0,0.0,0.0,0.0,0.0,0.0,0.0,5.0827,5.1998,5.3367,5.3367,5.3756,5.4226,4.9949,4.7733,4.703,4.6171,0.0,0.0,0.0,0.0,0.0,0.0,0.0,0.0,0.0,0.0,0.0,0.0,0.0,0.0,0.0,0.0,0.0,0.0,0.0,0.0,0.0,4.2264,4.3235,4.5607,4.5028,4.4857,4.5595,0.0,0.0,0.0,0.0,0.0,4.267,4.2752,4.2747,4.2641,4.4895,4.6457,4.7335,4.8672,4.8892,4.8018,4.4421,4.3225,4.3833,0.0,0.0,0.0,0.0,0.0,0.0,0.0,0.0,0.0,0.0,0.0,0.0,0.0,0.0,0.0,0.0,0.0,0.0,0.0,0.0,0.0,0.0,0.0,0.0,0.0,0.0,0.0,0.0,0.0,0.0,0.0,0.0,0.0,0.0,0.0,0.0,0.0,0.0,0.0,0.0,0.0,4.8869,5.0353,0.0,0.0,0.0,0.0,0.0,0.0,0.0,0.0,0.0,0.0,0.0,0.0,0.0,4.9929,5.0555,5.2273,5.36,5.446,5.5318,5.5863,5.6098,5.6098,5.6136,5.6215,5.5555,0.0,5.0643,4.9782,0.0,0.0,0.0,0.0,0.0,0.0,0.0,0.0,0.0,0.0,0.0,0.0,0.0,0.0,0.0,0.0,0.0,0.0,0.0,0.0,0.0,4.3383,4.4411,4.6538,4.7133,4.7129,4.6535,4.6864,0.0,0.0,0.0,4.4413,4.3609,4.4016,4.4729,4.5663,4.8154,4.978,5.0627,5.1353,5.1779,5.1811,4.9442,4.7608,4.6169,4.5293,0.0,0.0,0.0,0.0,0.0,0.0,0.0,0.0,0.0,0.0,0.0,0.0,0.0,0.0,0.0,0.0,0.0,0.0,0.0,0.0,0.0,0.0,0.0,0.0,0.0,0.0,0.0,0.0,0.0,0.0,0.0,0.0,0.0,0.0,0.0,0.0,0.0,0.0,0.0,4.8924,5.0331,5.0629,5.086,5.0233,0.0,0.0,0.0,0.0,0.0,0.0,0.0,0.0,0.0,5.1726,5.2585,5.321,5.3601,5.5279,5.6567,5.7465,5.883,5.9455,5.9494,5.9962,5.9923,5.9455,5.9455,5.7776,5.4849,5.3052,5.0991,4.8931,0.0,0.0,0.0,0.0,4.7141,4.6513,0.0,0.0,0.0,0.0,0.0,0.0,0.0,0.0,0.0,0.0,0.0,0.0,4.3923,4.502,4.6242,4.7931,4.9173,4.92,4.7705,4.7764,4.7156,4.5625,4.5471,4.5137,4.4518,4.552,4.7001,4.8881,5.1144,5.2791,5.3791,5.4002,5.4562,5.5365,5.4715,5.2422,4.9016,4.7914,4.6882,4.5774,0.0,0.0,0.0,0.0,0.0,0.0,0.0,0.0,0.0,0.0,0.0,0.0,0.0,0.0,0.0,0.0,0.0,0.0,0.0,0.0,0.0,0.0,0.0,0.0,0.0,0.0,0.0,0.0,0.0,0.0,0.0,0.0,0.0,0.0,0.0,0.0,0.0,5.1294,5.2272,5.1214,5.2815,5.2736,0.0,0.0,0.0,0.0,0.0,0.0,5.364,5.4303,5.4966,5.563,5.6489,5.7035,5.7271,5.852,5.9573,6.0432,6.1289,6.1836,6.2031,6.2461,6.2304,6.1719,6.1719,6.0353,5.7933,5.563,5.3131,5.0749,5.0515,4.9539,4.8329,4.8914,4.8602,4.7981,0.0,0.0,0.0,0.0,0.0,0.0,0.0,0.0,0.0,0.0,0.0,4.287,4.5517,4.7245,4.8902,5.0655,5.0769,5.0376,4.9525,4.7833,4.644,4.5528,4.5434,4.5367,4.5328,4.7016,4.9112,5.161,5.3265,5.4891,5.6537,5.7308,5.8077,5.8835,5.8797,5.6466,5.2429,5.0818,4.9169,4.7526,4.5851,0.0,0.0,0.0,0.0,0.0,0.0,0.0,0.0,0.0,0.0,0.0,0.0,0.0,0.0,0.0,0.0,0.0,0.0,0.0,0.0,0.0,0.0,0.0,0.0,0.0,0.0,0.0,0.0,0.0,0.0,0.0,0.0,0.0,0.0,0.0,0.0,0.0,0.0,5.4028,5.6003,0.0,0.0,0.0,0.0,5.3715,5.3834,5.4614,5.6293,5.6449,5.7582,6.0002,6.0938,6.1797,6.2618,6.2696,6.3164,6.4025,6.2461,6.2148,6.2891,6.2109,6.1758,6.1719,6.1719,6.0704,5.8908,5.719,5.4927,5.2508,5.1648,5.0788,4.9967,5.0007,4.95,4.8763,0.0,0.0,0.0,0.0,0.0,0.0,0.0,0.0,4.0802,4.1973,4.3021,4.4666,4.7242,4.9487,5.1482,5.3151,5.3708,5.3148,5.1216,4.9452,4.8097,4.7212,4.666,4.7112,4.8774,4.9887,5.1682,5.4233,5.6417,5.7774,5.8342,5.9726,6.0488,6.0745,6.1318,6.0401,5.8268,5.4976,5.2575,5.0779,4.8028,4.6533,0.0,0.0,0.0,0.0,0.0,0.0,0.0,0.0,0.0,0.0,0.0,0.0,0.0,0.0,0.0,0.0,0.0,0.0,0.0,0.0,0.0,0.0,0.0,0.0,0.0,0.0,0.0,0.0,0.0,0.0,0.0,0.0,0.0,0.0,0.0,0.0,0.0,5.7346,6.1011,0.0,5.7698,5.8278,5.847,5.7347,5.8323,5.9455,6.0666,6.1252,6.1955,6.2892,6.3205,6.3517,6.3829,6.3829,6.3985,6.4298,6.3673,6.3243,6.3008,6.2696,6.2226,6.168,6.1094,6.0196,5.9025,5.7855,5.6178,5.4343,5.403,5.2702,5.0983,5.157,5.0867,4.9657,0.0,0.0,0.0,0.0,0.0,0.0,0.0,0.0,4.1574,4.274,4.436,4.6337,4.8892,5.1657,5.398,5.5683,5.6046,5.5164,5.2928,5.0664,4.8894,4.7735,4.7735,4.8817,5.1048,5.2436,5.4227,5.6489,5.8428,5.9453,5.9716,6.0833,6.1596,6.2122,6.2675,6.2775,6.2316,5.923,5.6434,5.3881,5.1385,5.0201,4.9551,0.0,0.0,0.0,0.0,0.0,0.0,0.0,0.0,0.0,0.0,0.0,0.0,0.0,0.0,0.0,0.0,0.0,0.0,0.0,0.0,0.0,0.0,0.0,0.0,0.0,0.0,0.0,0.0,0.0,0.0,0.0,0.0,0.0,0.0,5.7726,6.0181,5.961,6.4375,6.5898,6.1291,6.293,6.3593,6.1837,6.3046,6.41,6.4687,6.5273,6.5586,6.5586,6.5586,6.543,6.5157,6.4883,6.4727,6.4727,6.4454,6.3829,6.3008,6.3008,6.254,6.1641,6.0783,5.9924,5.9025,5.8168,5.6997,5.5708,5.5397,5.407,5.2312,5.2586,5.1765,5.0515,0.0,0.0,0.0,0.0,0.0,0.0,0.0,4.2082,4.2583,4.4313,4.5953,4.7971,5.0553,5.3785,5.6472,5.8242,5.7517,5.6285,5.4664,5.1279,4.8663,4.7081,4.8586,5.0317,5.2077,5.4472,5.6626,5.8396,5.9107,5.9923,6.073,6.0732,6.1575,6.3147,6.3117,6.3549,6.4262,6.3387,6.0606,5.6753,5.5823,5.4944,5.3804,0.0,0.0,0.0,0.0,0.0,0.0,0.0,0.0,0.0,0.0,0.0,0.0,0.0,0.0,0.0,0.0,0.0,0.0,0.0,0.0,0.0,0.0,0.0,0.0,0.0,0.0,0.0,0.0,0.0,0.0,0.0,0.0,0.0,5.6956,6.0471,6.2579,6.0939,6.5977,6.828,6.4922,6.7616,6.8826,6.7109,6.7732,6.816,6.816,6.816,6.8121,6.8121,6.8121,6.7693,6.6835,6.6053,6.5624,6.5624,6.4766,6.3868,6.3047,6.3008,6.254,6.1641,6.0744,5.9885,5.9025,5.8128,5.7309,5.6527,5.567,5.481,5.3912,5.3054,5.2157,5.1258,0.0,0.0,0.0,0.0,0.0,0.0,0.0,4.3138,4.4179,4.5297,4.7349,4.9933,5.3131,5.5934,5.828,5.9973,5.8204,5.6549,5.5439,5.1048,4.8817,4.963,5.0664,5.289,5.6467,5.6593,5.7786,6.0127,6.0962,6.1464,6.1684,6.2849,6.3661,6.4074,6.4629,6.5036,6.5221,6.4977,6.3859,6.1905,5.7895,5.6161,5.567,0.0,0.0,0.0,0.0,0.0,0.0,0.0,0.0,0.0,0.0,0.0,0.0,0.0,0.0,0.0,0.0,0.0,0.0,0.0,0.0,0.0,0.0,0.0,0.0,0.0,0.0,0.0,0.0,0.0,0.0,0.0,5.8948,6.172,6.2112,6.4804,6.7224,6.863,7.191,7.3199,7.1011,7.2182,7.2417,7.0699,7.0191,6.9995,6.9995,6.9372,6.902,6.902,6.8435,6.7966,6.7732,6.6912,6.6484,6.6445,6.5624,6.4804,6.3907,6.3282,6.254,6.1602,6.0118,5.9338,5.8986,5.7542,5.68,5.6566,5.6333,5.5708,5.485,5.3951,5.2272,5.0437,0.0,0.0,0.0,0.0,0.0,0.0,0.0,4.4033,4.5007,4.6245,4.8526,5.1098,5.3838,5.6384,5.8312,5.9307,5.7651,5.587,5.4289,5.1058,5.0125,5.2207,5.378,5.6082,5.9281,5.955,6.0358,6.1858,6.2358,6.2571,6.2566,6.3527,6.4161,6.4506,6.4934,6.5335,6.5688,6.5615,6.5332,6.4604,6.1234,5.9887,5.9652,5.7097,5.6163,5.6039,5.4862,5.4649,5.4666,5.3168,0.0,0.0,0.0,0.0,0.0,0.0,0.0,0.0,0.0,0.0,0.0,0.0,0.0,0.0,0.0,0.0,0.0,0.0,0.0,0.0,0.0,0.0,0.0,0.0,6.3125,6.6484,6.8787,6.9489,7.0426,7.2339,7.4487,7.5268,7.3939,7.4876,7.4876,7.3197,7.2924,7.2534,7.183,7.1324,7.0699,6.9957,6.9098,6.8279,6.7576,6.707,6.664,6.6288,6.5819,6.5155,6.4259,6.3399,6.254,6.1602,6.0235,5.9455,5.8986,5.766,5.6918,0.0,0.0,0.0,0.0,0.0,5.2507,5.1062,0.0,0.0,0.0,0.0,0.0,0.0,0.0,4.4837,4.5442,4.7147,4.9501,5.1665,5.3417,5.5783,5.7288,5.7391,5.6308,5.464,5.2283,5.1506,5.2281,5.4821,5.7291,5.9358,6.105,6.2545,6.3314,6.3314,6.3391,6.3468,6.3468,6.3545,6.4006,6.4737,6.4674,6.507,6.58,6.5694,6.5629,6.559,6.4868,6.4516,6.4171,6.1883,6.0968,6.0738,5.9331,5.7985,5.6802,5.6533,0.0,0.0,0.0,0.0,0.0,0.0,0.0,0.0,0.0,0.0,0.0,0.0,0.0,0.0,0.0,0.0,0.0,0.0,0.0,0.0,0.0,0.0,0.0,0.0,6.7733,7.1403,7.5502,7.4214,7.3158,7.3938,7.5266,7.5775,7.4993,7.6242,7.6438,7.4759,7.5268,7.4954,7.3391,7.3196,0.0,0.0,0.0,6.867,6.7109,6.6796,6.6327,6.5585,6.5507,6.4999,6.4142,6.336,6.254,6.1641,6.0783,5.9963,5.9181,5.8207,5.7348,5.6527,5.5747,5.5397,5.5085,5.3445,5.2781,5.2469,0.0,0.0,0.0,0.0,0.0,0.0,0.0,4.546,4.6466,4.8175,4.9933,5.1662,5.3404,5.5265,5.6621,5.7352,5.5352,5.3527,5.2352,5.3275,5.5027,5.7596,5.9386,6.1089,6.2775,6.3121,6.3314,6.3314,6.4006,6.4359,6.4359,6.5051,6.5474,6.5628,6.5654,6.5724,6.5878,6.5865,6.5821,6.5821,6.5667,6.5173,6.4423,6.3937,6.3354,6.2822,6.3212,6.3603,6.3615,6.1544,6.166,6.2284,6.0224,5.7987,0.0,0.0,0.0,0.0,0.0,0.0,0.0,0.0,0.0,0.0,0.0,0.0,0.0,0.0,0.0,0.0,0.0,0.0,0.0,6.7694,7.1285,7.4525,7.7493,7.8077,7.8272,7.8429,7.8116,7.7844,7.7649,7.7296,7.6672,7.5619,7.5034,7.433,7.3352,7.2612,7.2104,7.1753,7.023,6.9256,6.8904,6.6873,6.5741,6.5585,6.4883,0.0,6.3243,6.3086,6.254,6.1641,6.0783,6.0315,6.0041,5.8441,5.7348,5.6566,5.641,5.5903,5.5163,5.4147,5.3289,5.2547,0.0,0.0,0.0,0.0,0.0,0.0,0.0,4.597,4.6811,4.8526,4.9781,5.1199,5.295,5.3883,5.4386,5.4381,5.2787,5.2121,5.2894,5.4876,5.716,5.9758,6.184,6.3333,6.4169,6.4599,6.4793,6.4793,6.5257,6.5433,6.5363,6.5863,6.6025,6.5904,6.5961,6.6174,6.6519,6.6519,6.6519,6.6519,6.6519,6.6224,6.5846,6.6269,6.6211,6.6006,6.7321,6.7475,6.6974,6.5667,6.5881,6.6367,6.4759,6.2538,6.0418,0.0,0.0,0.0,0.0,0.0,0.0,0.0,0.0,0.0,0.0,0.0,0.0,0.0,0.0,6.1095,6.3205,0.0,6.8786,7.2612,7.5032,7.722,7.9406,8.0068,8.0185,7.9756,7.9326,7.8897,7.843,7.8001,7.7375,7.6516,7.6047,7.5423,7.4603,7.3705,7.308,7.2651,7.0543,6.9176,6.8747,6.7068,6.578,6.4922,6.4493,6.3829,6.3008,6.254,6.2109,6.168,6.125,6.0783,6.0276,5.8519,5.7543,5.7153,5.6761,5.6333,5.5825,5.4966,5.4382,5.3798,0.0,0.0,0.0,0.0,0.0,0.0,0.0,4.6306,4.6852,4.8374,4.9309,5.0362,5.1808,5.2079,5.1844,5.0984,5.0677,5.1554,5.4004,5.655,5.914,6.1895,6.4157,6.5343,6.5339,6.5961,6.631,6.631,6.631,6.6243,6.6133,6.6406,6.6431,6.626,6.6523,6.6928,6.745,6.745,6.7565,6.7687,6.7527,6.7642,6.7995,6.8556,6.8603,6.8622,7.0283,6.9706,6.8174,6.8373,6.8672,6.8785,6.8016,6.6442,6.4539,6.269,6.0736,0.0,0.0,0.0,0.0,0.0,0.0,0.0,0.0,5.8949,6.0354,6.2267,6.4571,6.7109,6.988,7.1831,7.4017,7.7101,7.835,7.9445,8.1044,8.1239,8.1005,8.0302,8.0068,7.9678,7.8977,7.8742,7.8272,7.7414,7.7218,7.6711,7.5853,7.4837,7.3978,7.3313,7.0933,6.9215,6.8357,6.7303,6.6055,6.4532,6.4376,6.3829,6.2969,6.2265,6.1875,6.1719,6.1719,6.1211,6.0276,5.887,5.813,5.7739,5.7074,5.6726,5.6497,5.5633,5.5202,5.4815,0.0,0.0,0.0,0.0,0.0,0.0,0.0,0.0,4.6632,4.7607,4.8422,4.9004,4.9239,4.9934,5.0047,4.9189,5.1138,5.3513,5.6082,5.8552,6.1388,6.4704,6.5683,6.6155,6.6155,6.6233,6.631,6.631,6.631,6.6303,6.6283,6.7087,6.7429,6.7436,6.8233,6.8621,6.8717,6.8717,6.9153,6.9778,6.8993,6.9614,7.0939,7.027,6.9334,6.8622,7.0283,6.9321,6.7359,6.8276,6.9115,6.9687,6.9143,6.8792,6.8078,6.5782,6.28,5.9839,5.8004,5.7071,5.7269,6.0118,5.9806,6.0392,0.0,6.7381,6.7654,7.0191,7.2104,7.3471,7.3861,7.5345,7.7179,7.9092,8.0146,8.1044,8.202,8.2137,8.2137,8.2019,8.1317,8.0811,8.0733,8.0029,7.917,7.8313,7.7531,7.6711,7.5853,7.429,7.3391,7.3313,7.1517,7.0152,6.9255,6.7616,6.6367,6.5468,6.4688,6.3829,6.3008,6.2891,6.2422,6.1719,6.1719,6.1211,6.0393,6.0198,5.9183,5.7778,5.7699,5.7208,5.6401,5.5602,5.481,5.3994,0.0,0.0,0.0,0.0,0.0,0.0,0.0,0.0,0.0,4.7492,4.788,4.8268,4.8733,4.8725,4.829,4.7432,5.0165,5.2858,5.4965,5.8846,6.1951,6.3865,6.5667,6.6386,6.5918,6.6853,6.736,6.736,6.736,6.7564,6.8008,6.792,6.8074,6.8389,6.8871,6.9561,7.0413,7.0413,7.0918,7.1665,7.1311,7.1307,7.1385,7.0522,6.9562,6.878,6.9471,6.8383,0.0,6.712,6.7928,6.8783,6.9059,6.8507,6.7461,6.6045,6.3867,6.1642,6.0393,6.0938,6.2071,6.2969,6.414,6.6131,7.0035,7.1011,7.1869,7.4447,7.632,7.7687,7.8194,7.9287,8.0341,8.1082,8.1513,8.1864,8.2253,8.2292,8.2098,8.1591,8.12,8.1007,8.1007,8.0654,8.0107,7.9209,7.835,7.7688,7.7337,7.5227,7.4017,7.4017,7.1869,7.0541,7.0152,6.8942,6.7655,6.6288,6.5937,6.504,6.3751,6.3243,6.2512,6.1707,6.1707,6.1479,6.1054,6.0585,5.996,5.9257,5.875,5.8319,5.7806,5.6482,5.5777,5.5312,0.0,0.0,0.0,0.0,0.0,0.0,0.0,0.0,0.0,0.0,4.7221,4.7453,4.8034,4.7596,4.7006,4.6343,4.9229,5.1881,5.3872,5.8362,6.1797,6.3633,6.5703,6.6757,6.6639,6.7849,6.8474,6.8474,6.8707,6.9075,6.9608,6.9546,6.9748,7.0113,7.051,7.1282,7.2329,7.2329,7.2835,7.3578,7.3107,7.2562,7.1858,7.0489,6.9156,6.8008,6.8152,6.6908,6.5239,6.5005,6.5648,6.6556,6.6934,6.695,6.6562,6.5273,6.3633,6.2306,6.2384,6.3984,6.5663,6.5977,6.8475,7.1245,7.3002,7.4251,7.5655,7.7765,7.9366,8.0615,8.1239,8.1864,8.237,8.2606,8.245,8.237,8.2606,8.2215,8.1712,8.1061,8.0553,8.0363,8.0607,8.0864,8.0849,8.0459,7.9405,7.8742,7.8742,7.6281,7.4759,7.4525,7.2493,7.1205,7.0698,7.0074,6.8988,6.7515,6.7515,6.6624,6.4916,6.355,6.2578,6.195,6.1716,6.1594,6.15,6.0914,6.0523,6.0249,5.9622,5.9216,5.8802,5.7599,5.6822,5.634,0.0,0.0,0.0,0.0,0.0,0.0,0.0,0.0,0.0,0.0,0.0,0.0,0.0,4.6355,4.6312,4.6312,4.8647,5.1257,5.3833,5.7269,6.1094,6.5351,6.6327,6.7577,6.9256,6.9334,6.9373,6.9373,7.0191,7.0619,7.0695,7.2376,7.3156,7.3192,7.3974,7.4366,7.4402,7.4402,7.4911,7.5574,7.3933,7.3268,7.2956,7.0381,6.7883,6.5758,6.6202,6.4769,6.2504,6.1771,6.2175,6.2836,6.2128,6.4178,6.6328,6.3828,6.1837,6.1017,6.3556,6.4882,6.6405,6.9683,7.2456,7.4798,7.6555,7.8272,7.9756,8.0693,8.1591,8.2214,8.2253,8.2292,8.2567,8.3347,8.2801,8.2567,8.3347,8.2059,8.1022,8.0892,7.9487,7.8788,7.9563,8.0459,8.1356,8.2175,8.0615,7.9678,7.9678,7.7181,7.5385,7.4525,7.3664,7.2415,7.0737,7.0659,7.021,6.9333,6.9333,6.8397,6.656,6.3915,6.2689,6.2609,6.1795,6.1405,6.1403,6.1364,6.0854,6.0107,6.0068,5.9564,5.8795,5.8761,5.7713,5.6312,0.0,0.0,0.0,0.0,0.0,0.0,0.0,0.0,0.0,0.0,0.0,0.0,0.0,0.0,0.0,0.0,4.8108,5.0095,5.2125,5.6024,5.9417,6.2032,6.4648,6.6522,6.7655,6.8826,6.9684,7.027,7.1128,7.187,7.2454,7.304,7.3586,7.4095,7.4369,7.4837,7.5346,7.5346,7.5853,7.6516,7.4798,7.3782,7.2962,6.9762,6.6951,6.4448,0.0,6.0588,5.9348,5.91,5.9228,5.9626,6.0543,6.1213,6.1525,6.0665,6.1642,6.3439,6.543,6.8279,7.14,7.4251,7.6477,7.8429,8.0146,8.1005,8.1513,8.1786,8.0732,7.9717,7.9717,7.9232,7.9323,8.0731,8.1677,8.2539,8.3398,8.3008,8.1992,8.0232,7.9528,7.9097,7.8779,7.9022,7.9804,8.125,8.0273,7.9648,7.9648,7.7695,7.6211,7.539,7.3984,7.2929,7.2299,7.1714,7.0964,7.0038,6.8907,6.7722,6.6519,6.5028,6.3752,6.2693,6.2384,6.1928,6.1409,6.1409,6.1214,6.0975,6.0975,6.0385,5.965,6.019,5.9287,5.7769,0.0,0.0,0.0,0.0,0.0,0.0,0.0,0.0,0.0,0.0,0.0,0.0,0.0,0.0,0.0,0.0,0.0,4.8867,5.0312,5.3591,5.6518,5.8861,6.1435,6.3463,6.4909,6.6041,6.7174,6.8385,6.9236,7.0285,7.1458,7.2071,7.2649,7.3158,7.3783,7.4369,7.4915,7.4915,7.5032,7.511,7.3041,7.1558,7.019,6.7028,6.4414,0.0,5.922,5.766,5.6802,5.6178,5.6373,5.7115,5.8208,5.9026,5.9806,6.1016,6.3008,6.5469,6.867,7.1831,7.4876,7.7765,7.9561,8.0932,8.2001,8.2277,8.2164,8.1861,7.9988,7.827,7.7996,7.6989,7.6758,7.8476,7.9411,8.0654,8.2722,8.2214,8.1351,8.0597,7.9649,7.8972,7.8719,7.8123,7.8496,8.03,8.0177,7.9899,7.9586,7.817,7.6993,7.6173,7.4768,7.3861,7.3488,7.2942,7.2217,7.1263,6.9496,6.8182,6.7325,6.6097,6.4811,6.35,6.3192,6.257,6.1764,6.1764,6.157,6.1299,6.1299,6.0918,6.0403,6.0631,6.0016,5.8935,0.0,0.0,0.0,0.0,0.0,0.0,0.0,0.0,0.0,0.0,0.0,0.0,0.0,0.0,0.0,0.0,0.0,0.0,4.8499,5.0242,5.2715,5.6036,5.7181,5.8904,6.1404,6.1521,6.238,6.4137,6.4999,6.6284,6.8004,6.9703,7.0506,7.0583,7.2223,7.2963,7.2962,7.2962,7.2495,7.1519,6.8942,6.6951,6.5234,6.2617,6.0587,5.8869,5.719,5.602,5.5045,5.3445,5.4109,5.5592,5.567,5.7934,6.1252,6.4687,6.5858,6.7264,7.3041,7.5347,7.6873,8.0268,8.1753,8.2351,8.2261,8.2224,8.1914,8.097,7.9326,7.7764,7.6867,7.5422,7.4954,7.675,7.6514,7.7565,8.1781,8.0256,7.9539,8.1791,7.983,7.8588,7.9306,7.7896,7.7626,7.9428,8.031,8.0367,7.9589,7.8651,7.7765,7.6944,7.6047,7.5148,7.4324,7.4243,7.374,7.2874,7.1094,6.9784,6.8853,6.7087,6.5799,6.4952,6.414,6.3289,6.2467,6.2428,6.1926,6.1157,6.1118,6.1079,6.0963,6.0228,5.9923,5.9769,0.0,0.0,0.0,0.0,0.0,0.0,0.0,0.0,0.0,0.0,0.0,0.0,0.0,0.0,0.0,0.0,0.0,0.0,4.7698,4.9322,5.1246,5.3394,5.5604,5.7683,5.9635,6.0346,6.152,6.3239,6.41,6.5078,6.6171,6.7265,6.7771,6.78,6.8268,6.8455,6.8474,6.8474,6.8319,6.7968,6.6055,6.5001,6.4337,6.172,6.004,5.8869,5.719,5.602,5.5319,5.5552,5.7153,5.9339,6.0627,6.2073,6.3985,6.7382,6.9801,7.2064,7.5501,7.7983,8.0108,8.2335,8.3046,8.3201,8.3159,8.2651,8.1596,7.9405,7.6592,7.3858,7.1673,7.2006,7.3348,7.569,7.8506,8.1477,8.4442,8.4235,8.3287,8.2014,8.1286,8.044,7.936,7.9415,7.9451,7.9329,7.9555,7.9855,8.0236,7.9983,7.9462,7.8606,7.7163,7.628,7.5983,7.4668,7.3525,7.2676,7.1565,7.0251,6.878,6.7666,6.6379,6.4991,6.4759,6.4179,6.3328,6.2665,6.2274,6.2003,6.135,6.0731,6.0267,6.0654,6.0422,5.9769,0.0,0.0,0.0,0.0,0.0,0.0,0.0,0.0,0.0,0.0,0.0,0.0,0.0,0.0,0.0,0.0,0.0,0.0,0.0,4.8187,4.9147,5.0127,5.1964,5.3429,5.4408,5.5684,5.6823,5.7714,5.8991,6.0094,6.0953,6.2214,6.281,6.289,6.3632,6.3982,6.3976,6.4006,6.3768,0.0,0.0,6.1253,6.0744,5.93,5.8441,5.7893,5.6956,5.6996,5.7739,5.8987,6.0627,6.2463,6.457,6.6366,6.828,7.1325,7.3798,7.6075,7.8652,8.0934,8.2851,8.3827,8.374,8.3133,8.1984,8.1033,7.9494,7.6544,7.3493,7.0799,6.8968,6.9433,7.0795,7.298,7.659,8.0249,8.3563,8.398,8.3825,8.3519,8.2776,8.1892,8.0922,8.0531,8.0311,8.0228,8.028,8.0388,8.0461,8.0415,8.0156,7.9647,7.8367,7.7527,7.708,7.531,7.4187,7.369,7.2452,7.1175,6.986,6.897,6.7694,6.6108,6.6108,6.5417,6.4217,6.3748,6.3091,6.2351,6.1848,6.1157,6.0422,6.0538,6.0306,5.9769,0.0,0.0,0.0,0.0,0.0,0.0,0.0,0.0,0.0,0.0,0.0,0.0,0.0,0.0,0.0,0.0,0.0,0.0,0.0,0.0,4.7366,4.7375,4.8248,4.8707,4.8597,5.0203,5.0986,5.0948,5.2628,5.3845,5.4628,5.6351,5.7121,5.7137,5.8781,5.9525,5.9527,5.9531,5.9177,5.8513,5.7758,5.7125,5.6579,0.0,5.6575,5.6575,5.6578,5.8062,6.0367,6.256,6.4038,6.5431,6.8091,7.0669,7.3209,7.587,7.7803,7.9609,8.2031,8.3861,8.5089,8.5087,8.4358,8.291,8.024,7.8705,7.6805,7.3123,7.0413,6.835,6.7297,6.7445,6.8369,7.0316,7.3514,7.7268,8.1665,8.2271,8.3077,8.5305,8.4095,8.302,8.2904,8.1371,8.0685,8.1459,8.1606,8.1359,8.0578,8.0442,8.0337,8.0182,7.9415,7.8564,7.7713,7.6088,7.5193,7.5076,7.3535,7.2258,7.1258,7.0407,6.9164,6.7655,6.7655,6.6766,6.5339,6.5223,6.4213,6.2738,6.2622,6.2124,6.135,6.0538,6.0228,6.0074,0.0,0.0,0.0,0.0,0.0,0.0,0.0,0.0,0.0,0.0,4.7003,4.7657,0.0,0.0,0.0,0.0,0.0,0.0,0.0,0.0,0.0,4.8181,4.9107,4.9262,4.8528,4.9559,5.0131,5.009,5.1086,5.1647,5.1847,5.3569,5.4006,5.3373,5.4453,5.4953,5.4941,5.4994,5.5348,5.5856,5.5701,5.6014,5.6522,5.6523,0.0,0.0,5.6445,5.7186,5.8864,6.3326,6.6483,6.9106,7.2374,7.4683,7.6872,8.0115,8.1829,8.2994,8.477,8.5973,8.6685,8.6634,8.5883,8.4358,8.1079,7.8578,7.5568,7.0689,6.8198,6.6213,6.3917,6.5856,6.8808,7.1951,7.5216,7.9114,8.4161,8.4767,8.4855,8.5287,8.4494,8.3592,8.2895,8.1864,8.1343,8.1497,8.1522,8.1457,8.1341,8.1278,8.0956,8.0221,7.9415,7.8564,7.7713,7.6668,7.5817,7.5076,7.411,7.2839,7.1258,7.0407,6.9473,6.8578,6.8578,6.7998,6.6998,6.6301,6.5412,6.4488,6.3753,6.3366,6.3134,6.2278,6.1964,6.1732,0.0,0.0,0.0,0.0,0.0,0.0,0.0,4.7089,4.7596,4.8891,4.9084,4.9239,4.9664,5.0051,5.0322,0.0,0.0,0.0,0.0,0.0,0.0,0.0,4.8583,4.8449,4.7136,4.891,4.9394,4.8432,0.0,5.0846,5.0464,5.17,5.2093,5.1743,5.2193,5.2381,5.2417,5.2464,5.2987,5.3766,5.4257,5.4926,5.5784,0.0,0.0,0.0,5.6375,5.7466,5.9455,6.2784,6.657,7.066,7.498,7.7826,8.001,8.2097,8.3627,8.4917,8.6136,8.7691,8.8758,8.7863,8.6564,8.4298,7.9539,7.6085,7.2551,6.7898,6.5571,6.3977,6.2732,6.4597,6.7156,6.9677,7.3305,7.7412,8.2059,8.3482,8.4482,8.5836,8.4869,8.3947,8.3521,8.2277,8.1497,8.1497,8.1497,8.1497,8.1497,8.1497,8.1304,8.0878,8.0072,7.9415,7.9028,7.7713,7.6862,7.6436,7.516,7.4071,7.3226,7.1949,7.0905,7.0092,6.9628,6.87,6.7462,6.7036,6.6147,6.4952,6.4527,6.4101,6.3637,6.325,6.2781,6.2274,0.0,0.0,0.0,0.0,0.0,0.0,0.0,4.7793,4.8427,5.0623,5.125,5.1134,5.0326,5.0979,5.1327,0.0,0.0,0.0,0.0,0.0,0.0,0.0,0.0,0.0,4.6113,0.0,0.0,4.7657,4.9692,0.0,0.0,0.0,0.0,0.0,5.1017,5.1062,5.1068,5.1154,5.1767,0.0,0.0,5.434,5.5313,0.0,0.0,0.0,0.0,5.7816,5.9884,6.2132,6.5869,7.0346,7.5087,7.8743,8.1462,8.2143,8.4061,8.6163,8.7228,8.9197,9.058,8.9044,8.7031,8.3906,7.7909,7.3695,6.9865,6.5842,6.3478,6.2196,6.2351,6.3516,6.5102,6.7152,7.0479,7.4496,7.926,8.1271,8.3244,8.5991,8.5024,8.4095,8.4095,8.2509,8.1497,8.1497,8.1497,8.1497,8.1497,8.1497,8.1497,8.1497,8.0646,8.0105,7.995,7.8641,7.7796,7.7403,7.6049,7.527,7.5038,7.338,7.222,7.1529,7.0446,6.9164,6.7771,6.7578,6.6611,6.5262,6.5262,6.4836,6.4217,6.4024,6.356,6.2936,0.0,0.0,0.0,0.0,0.0,0.0,0.0,4.845,4.9737,5.0778,5.2298,5.2921,5.207,5.2728,5.2608,0.0,0.0,0.0,0.0,0.0,0.0,0.0,0.0,0.0,0.0,0.0,0.0,4.9475,4.9711,0.0,0.0,0.0,0.0,0.0,0.0,5.103,5.0994,5.1068,0.0,0.0,0.0,0.0,0.0,0.0,0.0,0.0,0.0,5.7441,5.8279,6.225,6.4909,6.7193,7.0795,7.5413,7.9565,7.9648,8.3056,8.7137,8.8662,9.04,9.1527,9.0475,8.7719,8.3766,7.7775,7.3159,6.9169,6.5726,6.2975,6.1461,6.2235,6.2544,6.3705,6.6959,6.8501,7.1557,7.8177,7.9879,8.1697,8.5024,8.4637,8.4095,8.4095,8.2509,8.1497,8.1497,8.1497,8.1497,8.1497,8.1497,8.1497,8.1497,8.0646,7.984,7.9105,7.895,7.8099,7.6519,7.6365,7.5856,7.5038,7.338,7.2568,7.2375,7.0717,6.9512,6.8617,6.7849,6.6959,6.6108,6.6108,6.6031,6.5876,6.5146,6.4836,6.4643,0.0,0.0,0.0,0.0,0.0,0.0,4.8253,4.8243,4.9083,5.2017,5.2592,5.2805,5.296,5.3772,5.3382,5.1091,0.0,0.0,0.0,0.0,0.0,0.0,0.0,0.0,0.0,0.0,4.9587,5.0438,5.0945,0.0,0.0,0.0,0.0,0.0,0.0,5.0948,5.099,5.1527,0.0,0.0,0.0,0.0,0.0,0.0,0.0,0.0,0.0,0.0,5.9163,6.0836,6.2863,6.4836,6.5682,6.9169,7.3771,7.7925,8.1625,8.514,8.8371,9.1224,9.2837,9.0878,8.7847,8.3747,7.7757,7.2723,6.8468,6.5571,6.3323,6.2003,6.2351,6.1964,6.2394,6.4836,6.5953,6.8352,7.3612,7.5082,7.7481,8.2426,8.1852,8.1852,8.3902,8.2509,8.1497,8.1497,8.1497,8.1497,8.1497,8.1497,8.1497,8.1497,8.1149,8.084,8.0492,7.9492,7.8641,7.7945,7.6906,7.5933,7.5076,7.3916,7.3109,7.2529,7.1297,7.0291,6.9473,6.8622,6.7771,6.6882,6.5876,6.5494,6.5378,6.4527,6.3908,6.3478,0.0,0.0,0.0,0.0,0.0,4.6305,4.8394,4.8167,4.8904,5.2224,5.2622,5.2805,5.3424,5.3807,5.3304,5.1443,5.1289,0.0,0.0,0.0,0.0,0.0,0.0,0.0,0.0,0.0,5.036,5.1676,5.2032,5.2457,0.0,0.0,5.1877,5.125,0.0,0.0,0.0,0.0,0.0,0.0,0.0,0.0,0.0,0.0,0.0,0.0,0.0,0.0,0.0,0.0,0.0,6.3212,6.2583,6.4633,6.8468,7.4541,7.9028,8.2857,8.6655,9.0137,9.2303,9.0478,8.7074,8.2819,7.7603,7.2452,6.8153,6.5837,6.398,6.2781,6.2781,6.2278,6.2278,6.3482,6.4411,6.6384,7.0368,7.1678,7.4038,7.9022,7.8558,7.9105,8.2277,8.1923,8.1497,8.1497,8.1497,8.1497,8.1497,8.1497,8.1497,8.1497,8.1497,8.1265,8.0762,7.984,7.8834,7.7829,7.6868,7.5662,7.4342,7.3496,7.2645,7.1794,7.0943,7.0208,6.9589,6.9048,6.8114,6.6998,6.5799,6.5069,6.4527,6.3947,6.3328,6.2859,0.0,0.0,0.0,0.0,0.0,0.0,4.6771,4.8399,4.983,5.0799,5.2429,5.3502,5.3502,5.2728,5.2225,5.2186,5.2186,0.0,0.0,0.0,0.0,0.0,0.0,0.0,0.0,0.0,5.0945,5.3463,5.2612,5.3076,5.4735,5.2999,5.2186,5.2148,0.0,0.0,0.0,0.0,0.0,0.0,0.0,0.0,5.74,0.0,0.0,0.0,0.0,0.0,0.0,0.0,0.0,0.0,0.0,6.3013,6.4604,6.886,7.4889,8.0801,8.3438,8.6655,8.9247,8.9208,8.5333,8.0646,7.7177,7.2452,6.8308,6.6533,6.4836,6.3676,6.3676,6.3676,6.3676,6.3715,6.4411,6.6152,6.9556,7.0755,7.2258,7.4844,7.5154,7.616,7.8796,8.053,8.1497,8.1497,8.1497,8.1497,8.1497,8.1497,8.1497,8.1497,8.1497,8.0685,7.9028,7.9801,7.848,7.5154,7.6011,7.5082,7.2607,7.1717,7.0833,6.9982,6.9164,6.881,6.881,6.881,6.7771,6.6224,6.6185,6.5185,6.3715,6.3715,6.3676,6.3676,0.0,0.0,0.0,0.0,0.0,0.0,0.0,4.6883,4.7846,5.0408,5.1323,5.2176,5.3297,5.3249,5.2844,5.2264,5.1641,0.0,0.0,0.0,0.0,0.0,0.0,0.0,0.0,0.0,5.2109,5.3502,5.3807,5.4271,5.4774,5.4233,5.3347,5.2225,5.2531,5.2337,0.0,0.0,0.0,0.0,0.0,5.7671,5.8217,0.0,0.0,0.0,0.0,0.0,0.0,0.0,0.0,0.0,0.0,0.0,0.0,6.4952,7.0136,7.5701,7.8873,8.1774,8.367,8.2509,7.9647,7.6392,7.3574,7.0324,6.7578,6.6456,6.5339,6.4604,6.4604,6.4101,6.4063,6.5223,6.5644,6.6417,6.8042,7.0015,7.2258,7.4806,7.8216,8.0459,8.0685,8.1188,8.1497,8.1497,8.1497,8.1497,8.1497,8.1497,8.1497,8.1497,8.1497,8.0956,7.984,7.9531,7.8254,7.5972,7.6287,7.5397,7.3458,7.2607,7.1717,7.0794,6.9396,6.9125,6.9589,6.9048,6.8462,6.781,6.6069,6.4682,6.356,6.2361,6.193,6.2008,0.0,0.0,0.0,0.0,0.0,0.0,0.0,4.6245,4.7011,4.9443,5.0135,5.1035,5.2735,5.2695,5.2685,5.3153,5.2066,0.0,0.0,0.0,0.0,0.0,0.0,0.0,0.0,5.1757,5.2805,5.4,5.4851,5.5586,5.6244,5.5896,5.5006,5.3652,5.3884,5.3502,0.0,0.0,0.0,0.0,5.7516,5.7907,5.8139,0.0,0.0,0.0,0.0,0.0,0.0,0.0,0.0,0.0,0.0,0.0,0.0,0.0,6.6306,7.0556,7.427,7.7403,7.9415,7.868,7.632,7.3728,7.2142,6.9551,6.7268,6.6379,6.5799,6.5378,6.5069,6.4798,6.4875,6.5644,6.5992,6.6495,6.7384,6.9396,7.1756,7.4342,7.8332,8.0653,8.0111,8.0956,8.1497,8.1497,8.1497,8.1497,8.1497,8.1497,8.1497,8.1497,8.1188,8.0608,7.9763,7.8602,7.7171,7.543,7.5121,7.4231,7.2877,7.2026,7.1336,7.0717,6.9396,6.9087,0.0,6.9319,6.8893,6.8153,6.6572,6.503,6.3521,6.2124,6.1389,6.1195,0.0,0.0,0.0,0.0,0.0,0.0,0.0,4.6283,4.7122,4.8086,4.9011,5.0219,5.1842,5.1415,5.1985,5.4387,0.0,0.0,0.0,0.0,0.0,0.0,0.0,0.0,5.0898,5.1796,5.3115,5.4813,5.5659,5.694,5.8569,5.7787,5.6897,5.5969,5.5277,5.4503,0.0,0.0,0.0,0.0,5.7869,5.8062,0.0,0.0,0.0,0.0,0.0,0.0,0.0,0.0,0.0,0.0,0.0,0.0,0.0,0.0,0.0,0.0,0.0,7.3154,7.5939,7.6707,7.4502,7.2142,7.2142,6.9705,0.0,6.6379,6.6185,6.5953,6.5223,6.5682,6.5992,6.5301,6.5876,6.6688,6.7501,6.9203,7.1336,7.396,7.6475,7.7906,7.779,8.0034,8.1497,8.1497,8.1497,8.1497,8.1497,8.1497,8.1497,8.1497,8.0608,7.9763,7.9028,7.7332,7.5624,7.3883,7.3148,7.2297,7.1369,7.0484,7.0098,7.0059,6.9164,6.881,6.8849,6.9589,6.897,6.7501,6.7423,6.5876,6.3598,6.2781,6.1887,6.1118,0.0,0.0,0.0,0.0,0.0,0.0,0.0,0.0,0.0,0.0,4.8921,4.9946,5.0988,5.16,5.2148,0.0,0.0,0.0,0.0,0.0,0.0,0.0,0.0,0.0,5.0898,5.2414,5.3734,5.4813,5.6278,5.7559,5.8608,5.8376,5.7482,5.6008,5.651,5.624,0.0,0.0,0.0,0.0,5.7714,5.7869,0.0,0.0,0.0,0.0,5.8608,5.9343,0.0,0.0,0.0,0.0,0.0,0.0,0.0,0.0,6.2162,6.3245,6.4213,0.0,6.9473,6.9009,6.8313,6.7694,0.0,6.7075,6.6456,6.6224,6.6185,6.6147,6.5953,6.6069,6.634,6.6843,6.7617,6.8269,6.8462,7.1634,7.4889,7.7481,7.9447,8.0105,7.8834,8.042,8.1497,8.1497,8.1497,8.1497,8.1497,8.1497,8.1497,8.1497,8.0072,7.9183,7.8989,7.7945,7.6204,7.3883,7.4303,7.3728,7.2258,7.1374,7.0987,7.091,6.9435,6.881,6.881,6.9004,6.8468,6.7423,6.6766,6.5378,6.3676,6.3482,6.2433,6.1195,0.0,0.0,0.0,0.0,0.0,0.0,0.0,0.0,0.0,0.0,0.0,4.9281,5.0152,5.1063,0.0,0.0,0.0,0.0,0.0,0.0,0.0,0.0,0.0,5.1095,5.1486,5.3188,5.4697,5.593,5.7671,5.8913,5.9764,5.9764,5.8836,5.7172,5.6859,5.6433,0.0,0.0,0.0,5.8023,5.8372,0.0,0.0,0.0,0.0,0.0,5.7675,5.8565,0.0,6.0692,6.1389,6.1693,0.0,0.0,0.0,0.0,6.1732,6.239,6.239,6.4329,6.634,6.6224,6.5915,6.576,6.6108,6.5605,6.5185,6.5571,6.5649,6.576,6.6147,6.6185,6.6495,6.7346,6.7887,6.8888,7.086,7.3413,7.6198,7.9183,8.0027,8.0298,8.0143,8.0956,8.1343,8.0917,8.1265,8.1343,8.0917,8.1265,8.1497,8.1497,8.0221,7.9569,7.9569,7.7171,7.5469,7.4419,7.3723,7.3303,7.3187,7.2297,7.191,7.1794,7.0092,6.8893,6.8192,6.8192,6.8153,6.8037,6.7578,6.634,6.4798,6.4411,6.2941,6.1157,0.0,0.0,0.0,0.0,0.0,0.0,0.0,0.0,0.0,0.0,0.0,0.0,0.0,0.0,0.0,0.0,0.0,0.0,0.0,0.0,0.0,0.0,5.1173,5.1563,5.2573,5.3923,5.5548,5.7516,5.9106,6.0383,6.1311,6.1427,6.0538,5.8724,5.725,5.6433,0.0,0.0,5.8372,5.7826,5.93,0.0,0.0,0.0,0.0,0.0,0.0,0.0,0.0,6.0228,6.1389,6.2196,6.2042,0.0,0.0,0.0,0.0,0.0,6.2351,6.3748,6.5301,6.5721,6.5494,6.5339,6.5876,6.503,6.4295,6.503,6.5185,6.5417,6.6263,6.6417,6.6727,6.7733,6.8236,6.9938,7.4077,7.527,7.6778,7.9679,7.9763,7.9995,8.1033,8.1343,8.1188,8.0453,8.0956,8.1033,8.0414,8.111,8.1497,8.1497,8.053,8.0027,8.0027,7.6204,7.4425,7.469,7.2529,7.2181,7.3496,7.2723,7.2413,7.2297,7.0717,6.9125,6.7694,6.7539,6.7926,6.8578,6.8462,6.7501,6.6108,6.5417,6.3632,6.1466,0.0,0.0,0.0,0.0,0.0,0.0,0.0,0.0,0.0,0.0,0.0,0.0,0.0,0.0,0.0,0.0,0.0,0.0,0.0,0.0,0.0,5.3149,5.238,5.2767,5.4387,5.3923,5.5242,5.8415,5.942,6.0692,6.2235,6.298,6.2012,5.9691,5.9416,5.8488,5.7207,0.0,5.9609,5.9532,5.9803,0.0,0.0,0.0,0.0,0.0,0.0,0.0,0.0,5.8918,6.0035,6.1195,6.0499,0.0,0.0,0.0,0.0,0.0,6.2196,6.4174,6.5682,6.4411,6.5069,6.5876,6.5301,6.5494,6.5837,6.5992,6.6031,6.6263,6.7152,6.7307,6.781,6.9363,7.1485,7.4154,7.7713,7.8332,7.8602,7.9105,8.0962,8.1465,7.9569,8.0685,8.1459,8.1304,8.0724,8.0646,8.1265,8.142,8.1497,8.1497,7.9995,7.9183,7.9183,7.71,7.5005,7.2993,7.2607,7.2142,7.1678,7.1562,7.1485,7.1452,7.0446,6.9473,6.854,6.781,6.7578,6.7617,6.6882,6.6456,6.6185,6.6069,6.4875,6.3212,0.0,0.0,0.0,0.0,0.0,0.0,0.0,0.0,0.0,0.0,0.0,0.0,0.0,0.0,0.0,0.0,0.0,0.0,0.0,0.0,5.5466,5.5543,5.4735,5.4619,5.5432,5.5505,5.725,6.0654,6.1548,6.2825,6.4445,6.3439,6.2124,6.0499,5.9614,5.8758,5.8101,5.9377,5.9885,5.9923,0.0,0.0,0.0,0.0,0.0,0.0,0.0,0.0,0.0,0.0,5.9725,6.1041,6.0654,0.0,0.0,0.0,0.0,0.0,6.1577,6.3245,6.4798,6.4488,6.6031,6.7384,6.6533,6.6263,6.634,6.6804,6.6533,6.6727,6.8506,6.8854,6.9705,7.2336,7.5314,7.7713,7.8834,7.9376,7.9995,8.0923,8.1658,8.1813,8.1117,8.1736,8.1813,8.0878,8.084,8.0878,8.0801,8.1226,8.1265,8.0801,8.0034,7.8757,7.69,7.6088,7.4889,7.3303,7.2336,7.191,7.1988,7.1529,7.1297,7.1214,0.0,6.8854,6.8037,6.7152,6.7075,6.7462,6.7075,6.6483,6.5738,6.459,6.3667,6.2932,0.0,0.0,0.0,0.0,0.0,0.0,0.0,0.0,0.0,0.0,0.0,0.0,0.0,0.0,0.0,0.0,0.0,0.0,0.0,0.0,5.6394,5.7245,5.6859,5.6704,5.6897,5.7361,5.9373,6.3013,6.3869,6.5262,6.7036,6.4483,6.2704,6.1621,6.0151,5.9266,5.8956,5.9807,6.019,6.0228,0.0,0.0,0.0,0.0,0.0,0.0,0.0,0.0,0.0,0.0,0.0,0.0,0.0,0.0,0.0,6.135,6.1234,6.1384,6.1384,6.282,6.445,6.5107,6.6766,6.8236,6.8352,6.7733,6.7462,6.8738,6.8313,6.8313,7.0252,7.0949,7.2258,7.5502,7.8519,8.0414,8.0227,8.073,8.162,8.2941,8.2509,8.2277,8.2748,8.2625,8.1929,8.0608,8.0917,8.0994,8.053,8.1149,8.1188,8.053,8.0105,7.8486,7.5425,7.5038,7.4303,7.3264,7.1949,7.164,7.2258,7.1601,7.1297,7.1214,6.9744,6.8584,6.7733,6.6843,6.6882,6.7501,6.7268,6.6587,6.5558,6.4346,6.3551,6.3116,0.0,0.0,0.0,0.0,0.0,0.0,0.0,0.0,0.0,0.0,0.0,0.0,0.0,0.0,0.0,0.0,0.0,0.0,0.0,0.0,5.6394,5.7245,5.8023,5.8802,5.9609,5.8879,6.0581,6.4798,6.5605,6.7268,6.9672,6.7114,6.5064,6.3482,6.2549,6.1273,5.9846,6.0654,6.1002,6.1041,6.1079,0.0,0.0,0.0,0.0,0.0,0.0,0.0,0.0,0.0,0.0,0.0,0.0,0.0,6.2235,6.135,6.1655,6.2312,6.2312,6.4135,6.6031,6.6108,6.6263,6.7191,7.0324,7.0368,7.0446,7.2916,7.2761,7.2181,7.2375,7.369,7.5618,7.8293,8.0221,8.1961,8.3515,8.3786,8.3863,8.3986,8.394,8.3631,8.2864,8.2084,8.1536,8.142,8.0724,8.0608,8.1381,8.1459,8.1459,8.142,7.9918,7.8177,7.6326,7.4773,7.3148,7.1485,7.1369,7.133,7.1374,7.1336,7.1297,7.1258,7.033,6.9435,6.8656,6.7771,6.7423,6.7423,6.6611,6.6216,6.6229,6.7712,6.6981,6.5273,0.0,0.0,0.0,0.0,0.0,0.0,0.0,0.0,0.0,0.0,0.0,0.0,0.0,0.0,0.0,0.0,0.0,0.0,0.0,5.4581,5.6128,5.8023,5.8415,5.8995,5.9885,6.0615,6.3052,6.7346,6.87,6.9319,6.9203,6.665,6.4522,6.2859,6.1969,6.1234,6.0654,6.093,6.1032,6.1032,6.1031,6.0514,0.0,0.0,0.0,0.0,0.0,0.0,0.0,0.0,5.7969,5.977,5.9196,6.051,6.2152,6.1302,6.1277,6.1528,6.1524,6.3402,6.5462,6.6008,6.693,6.8607,7.2126,7.2645,7.2993,7.5044,7.5198,7.4972,7.4972,7.721,7.9215,7.9679,8.1658,8.3167,8.3289,8.3747,8.4095,8.4095,8.4095,8.3554,8.2122,8.2161,8.1852,8.0762,8.0878,8.1149,8.1497,8.1497,8.1265,8.0724,8.0029,7.8618,7.6376,7.5677,7.4493,7.28,7.1721,7.1258,7.1291,7.0711,7.0388,7.0242,6.8927,6.8001,6.7357,6.716,6.6884,6.6579,6.5985,6.6048,6.6392,6.576,6.5672,6.5705,0.0,0.0,0.0,0.0,0.0,0.0,0.0,0.0,0.0,0.0,0.0,0.0,0.0,0.0,0.0,0.0,0.0,0.0,5.3037,5.4155,5.5702,5.7675,5.8569,5.942,6.0267,6.2201,6.4909,6.8385,7.0905,7.1126,6.9137,6.6817,6.4835,6.3119,6.1954,6.1452,6.1413,6.1147,6.1016,6.101,6.1008,6.0645,0.0,0.0,0.0,0.0,0.0,0.0,0.0,0.0,5.7926,5.9341,5.8949,6.0421,6.2102,6.1247,6.1183,6.1388,6.1392,6.2838,6.4657,6.5787,6.7556,6.9966,7.3763,7.4631,7.5404,7.8154,7.8116,7.7548,7.7591,7.9048,8.0357,8.0569,8.2355,8.3599,8.3251,8.3715,8.4095,8.4095,8.3592,8.2819,8.1613,8.1755,8.1433,8.0267,8.0712,8.1047,8.1047,8.0665,8.0234,7.9778,7.8914,7.7596,7.5682,7.4966,7.3925,7.2503,7.1332,7.0856,7.1047,7.0278,6.9554,6.895,6.8147,6.7268,6.6399,6.6544,6.6246,6.572,6.5717,6.5861,6.6001,6.5107,6.5106,6.5389,0.0,0.0,0.0,0.0,0.0,0.0,0.0,0.0,0.0,0.0,0.0,0.0,0.0,0.0,0.0,0.0,0.0,0.0,5.2148,5.3846,5.5161,5.5969,5.8488,6.0267,6.1075,6.3632,6.5837,6.7495,7.175,7.2501,6.9893,6.8188,6.6455,6.4674,6.2965,6.2188,6.2149,6.1339,6.0992,6.0992,6.1031,6.1031,0.0,0.0,0.0,0.0,0.0,0.0,0.0,0.0,5.8291,5.8494,5.9331,6.08,6.2044,6.1262,6.1576,6.2199,6.2188,6.2838,6.3918,6.5577,6.793,7.0945,7.5227,7.623,7.7658,8.275,8.1786,8.0059,8.0196,7.8818,7.8483,8.1059,8.2238,8.3089,8.394,8.4057,8.4057,8.4057,8.2542,8.1452,8.1452,8.0615,8.0074,8.0074,8.0007,8.0004,8.0004,7.8769,7.8285,7.8738,7.6335,7.479,7.4289,7.2232,7.0774,6.9927,6.9811,7.0069,7.0577,7.0107,6.8993,6.7542,6.8325,6.7736,6.6197,6.6197,6.5694,6.4992,6.5846,6.5635,6.501,6.6716,6.6031,6.4322,0.0,0.0,0.0,0.0,0.0,0.0,0.0,0.0,0.0,0.0,0.0,0.0,0.0,0.0,0.0,0.0,0.0,0.0,5.3115,5.4155,5.5161,5.5969,5.7871,5.9012,5.9283,6.2344,6.5401,6.8337,6.9567,6.8849,6.6323,6.581,6.4332,6.2155,6.2805,6.2458,6.1334,6.1065,6.0933,6.0971,6.1549,6.1416,6.0916,0.0,0.0,0.0,0.0,0.0,0.0,0.0,0.0,0.0,6.0459,6.2116,6.3675,6.221,6.233,6.2731,6.1577,6.2754,6.4683,6.6339,6.9156,7.2621,7.6857,7.7435,7.8236,8.214,8.2333,8.1607,8.1076,8.1063,8.0979,8.0536,8.116,8.1855,8.2087,8.2132,8.1786,8.0885,8.0354,7.9636,7.8726,7.8912,7.9086,7.905,7.905,7.9088,7.9088,7.7593,7.6829,7.6973,7.5635,7.4581,7.3823,7.3165,7.2377,7.1494,7.0027,6.9276,6.9276,6.902,6.7994,6.6402,6.6716,6.6009,6.4617,6.5045,6.5411,6.571,6.5346,6.5437,6.5619,6.4967,6.5084,6.5479,0.0,0.0,0.0,0.0,0.0,0.0,0.0,0.0,0.0,0.0,0.0,0.0,0.0,0.0,0.0,0.0,0.0,0.0,0.0,5.4116,5.4998,5.5479,5.7418,5.8979,5.9963,6.2265,6.4343,6.6118,6.7458,6.6785,6.4254,6.5284,6.4573,6.2502,6.4197,6.4004,6.238,6.2005,6.168,6.1416,6.192,6.1787,6.1364,0.0,0.0,0.0,0.0,0.0,0.0,0.0,0.0,0.0,6.0344,6.1647,6.2995,6.2302,6.2196,6.2403,6.2791,6.3966,6.5743,6.8443,7.1713,7.5253,7.9138,8.0476,8.1514,8.3593,8.3456,8.28,8.2357,8.1708,8.1031,8.0362,8.053,8.0748,8.0748,8.0748,8.0443,7.9689,7.9021,7.8415,7.7921,7.8034,7.8118,7.8098,7.7784,7.7632,7.7632,7.5848,7.4927,7.5133,7.3955,7.3139,7.2796,7.1933,7.1267,7.0691,6.9131,6.7943,6.7153,6.7429,6.6613,6.4993,6.5074,6.4602,6.3802,6.4178,6.4631,6.5039,6.4519,6.4631,6.4965,6.3962,6.4222,6.5039,0.0,0.0,0.0,0.0,0.0,0.0,0.0,0.0,0.0,0.0,0.0,0.0,0.0,0.0,0.0,0.0,0.0,0.0,0.0,0.0,5.486,5.4812,5.7236,5.9683,6.2034,6.2783,6.2793,6.2061,6.5323,6.5631,6.3228,6.5842,6.6152,6.4551,6.625,6.6051,6.4436,6.3468,6.2666,6.1979,6.2133,6.2133,6.1979,6.2133,0.0,0.0,0.0,0.0,0.0,0.0,0.0,0.0,5.9704,6.0319,6.1166,6.1903,6.1633,6.1826,6.4942,6.5942,6.7128,7.1367,7.5176,7.8677,8.1823,8.4362,8.608,8.5968,8.4765,8.371,8.371,8.1349,7.9666,8.0399,8.0154,7.987,7.987,7.987,7.986,7.9705,7.8354,7.7678,7.8273,7.7545,7.7038,7.7038,7.6255,7.5721,7.5645,7.3725,7.2777,7.3126,7.153,7.0894,7.131,6.9527,6.8531,6.8382,6.7639,6.6413,6.4816,6.5633,6.5113,6.359,6.359,6.359,6.359,6.359,6.359,6.359,6.359,6.3628,6.3702,6.3628,6.3665,6.3702,0.0,0.0,0.0,0.0,0.0,0.0,0.0,0.0,0.0,0.0,0.0,0.0,0.0,0.0,0.0,0.0,0.0,0.0,0.0,0.0,5.57,5.5644,5.8035,5.9914,6.1097,6.1272,6.1266,6.1112,6.3164,6.3202,6.1426,6.4653,6.5256,6.366,6.5397,6.5205,6.3468,6.1973,6.1248,6.121,6.2512,6.2243,6.121,6.2551,6.2127,0.0,0.0,0.0,0.0,0.0,0.0,0.0,6.1325,6.2089,6.266,6.2249,6.2903,6.3935,6.4666,6.6359,6.8891,7.3129,7.8246,8.2601,8.4016,8.5247,8.5717,8.4433,8.4417,8.4288,8.3288,8.2003,8.0831,8.001,7.9809,7.9745,7.9745,7.9745,7.9378,7.8363,7.7939,7.736,7.6506,7.5658,7.5197,7.5197,7.4425,7.3678,7.3043,7.1938,7.1069,7.0517,6.9544,6.9075,6.9158,6.9335,6.8828,6.7565,6.7379,6.6413,6.4816,6.5002,6.4556,6.359,6.359,6.359,6.359,6.359,6.359,6.359,6.359,6.3999,6.4482,6.3813,6.3999,6.4556,0.0,0.0,0.0,0.0,0.0,0.0,0.0,0.0,0.0,0.0,0.0,0.0,0.0,0.0,0.0,0.0,0.0,0.0,0.0,0.0,5.6261,5.7017,5.9045,6.0354,6.0787,6.0787,6.0787,6.0787,6.1666,6.1858,6.1479,6.4051,6.5013,6.4589,6.5904,6.5513,6.3852,6.2551,6.2012,6.205,6.2512,6.2435,6.205,6.2551,6.1935,6.0787,6.0787,0.0,0.0,0.0,0.0,0.0,0.0,0.0,6.2089,6.2095,6.271,6.3749,6.5359,6.7667,7.0898,7.6399,8.0205,8.2889,8.3724,8.4087,8.3993,8.3114,8.3454,8.3646,8.2744,8.1343,8.013,7.9482,7.9161,7.904,7.904,7.904,7.8791,7.8125,7.7314,7.6713,7.6459,7.5318,7.4612,7.4612,7.3831,7.3051,7.2233,7.1366,7.0536,6.9719,6.9682,6.9274,6.8493,6.8939,6.8308,6.6711,6.6302,6.5448,6.4222,6.4222,6.3999,6.359,6.359,6.359,6.359,6.359,6.359,6.359,6.359,6.385,6.4185,6.3739,6.3888,6.4222,0.0,0.0,0.0,0.0,0.0,0.0,0.0,0.0,0.0,0.0,0.0,0.0,0.0,0.0,0.0,0.0,0.0,0.0,0.0,0.0,0.0,5.8231,5.9765,6.0666,6.0787,6.0787,6.0787,6.0787,6.0787,6.1479,6.2787,6.4012,6.5051,6.5904,6.6442,6.5897,6.4512,6.3352,6.2852,6.2814,6.2326,6.2397,6.2814,6.2287,6.1556,6.0787,6.0787,6.0787,6.0787,6.0787,0.0,0.0,0.0,0.0,6.0831,6.1518,6.1728,6.2489,6.5626,6.8869,7.2869,7.9183,8.1118,8.1709,8.2568,8.2485,8.2194,8.2104,8.234,8.2429,8.1949,8.0285,7.8991,7.8891,7.8565,7.8253,7.8104,7.8216,7.8179,7.7919,7.6767,7.6209,7.6618,7.528,7.4277,7.3967,7.3348,7.2568,7.1602,7.1131,7.0462,6.9534,7.0276,6.9905,6.8308,6.8419,6.7602,6.5856,6.5002,6.4222,6.359,6.359,6.359,6.359,6.359,6.359,6.359,6.359,6.359,6.359,6.359,6.3665,6.3776,6.3665,6.3702,6.3776,0.0,0.0,0.0,0.0,0.0,0.0,0.0,0.0,0.0,0.0,5.4023,0.0,0.0,0.0,0.0,0.0,0.0,0.0,0.0,0.0,0.0,5.8253,5.9165,6.0012,6.0787,6.0787,6.0787,6.0787,6.0787,6.2364,6.5365,6.4859,6.5051,6.5859,6.5205,6.482,6.4436,6.2127,6.1127,6.121,6.1826,6.171,6.1204,6.1864,6.1556,6.0787,6.0787,6.0787,6.0787,6.0787,6.1287,0.0,0.0,0.0,6.0335,6.016,6.0325,6.1062,6.3418,6.8499,7.4163,7.8319,8.0199,8.122,8.2076,8.2222,8.2093,8.167,8.1376,8.1001,8.054,7.9666,7.8866,7.8458,7.8345,7.8067,7.7361,7.7844,7.777,7.6321,7.6618,7.6395,7.5057,7.4091,7.2977,7.1502,7.1279,7.0574,6.9051,7.0202,7.0202,6.8716,6.9459,6.9088,6.7491,6.8159,6.7305,6.4965,6.4148,6.3702,6.359,6.359,6.359,6.359,6.359,6.359,6.359,6.359,6.359,6.359,6.359,6.4036,6.4556,6.385,6.4036,6.4556,0.0,0.0,0.0,0.0,0.0,0.0,0.0,0.0,0.0,0.0,0.0,5.5239,0.0,0.0,0.0,0.0,0.0,0.0,0.0,0.0,0.0,5.7555,5.8819,5.9665,6.005,6.055,6.0787,6.0787,6.0319,6.205,6.5859,6.5013,6.582,6.7936,6.5628,6.4589,6.4436,6.1897,6.1095,6.1518,6.1402,6.1441,6.1518,6.1402,6.1133,6.0787,6.0787,6.0787,6.084,6.1102,6.1268,6.1292,6.0828,0.0,0.0,0.0,5.9899,6.1035,6.5781,6.9531,7.3174,7.7614,7.8945,7.9401,8.0205,8.0216,7.9966,7.9743,7.9588,7.9528,7.9767,7.9154,7.8552,7.8332,7.829,7.8179,7.7807,7.7696,7.7361,7.6618,7.6432,7.5726,7.4091,7.3608,7.2704,7.1019,7.0908,7.0388,6.9236,6.9831,6.9719,6.8531,6.8828,6.8271,6.6636,6.6971,6.6153,6.4148,6.4222,6.4036,6.3628,6.4073,6.4036,6.359,6.359,6.359,6.359,6.359,6.3888,6.4222,6.3776,6.4073,6.4705,6.3888,6.3813,6.4073,0.0,0.0,0.0,0.0,0.0,0.0,0.0,0.0,0.0,0.0,0.0,0.0,0.0,0.0,0.0,0.0,0.0,0.0,0.0,0.0,0.0,5.667,5.828,5.9281,5.9511,6.0358,6.0787,6.0787,6.0165,6.2127,6.6513,6.5859,6.7628,7.1129,6.7513,6.5667,6.5089,6.2743,6.2127,6.2633,6.1325,6.1172,6.171,6.1287,6.0979,6.0825,0.0,6.0979,6.0861,6.1103,6.1081,6.0936,6.0641,5.9896,0.0,0.0,0.0,6.0495,6.6291,6.8622,7.0526,7.5183,7.6827,7.7492,7.8329,7.8416,7.829,7.829,7.829,7.8476,7.907,7.8699,7.829,7.829,7.829,7.8216,7.803,7.7473,7.6952,7.6507,7.5875,7.4946,7.3534,7.32,7.2481,7.1019,7.071,7.0351,6.9719,6.9905,6.9534,6.8531,6.8716,6.7825,6.5782,6.5559,6.4853,6.359,6.4222,6.4185,6.3628,6.4222,6.4185,6.359,6.359,6.359,6.359,6.359,6.4073,6.4742,6.4148,6.4408,6.5076,6.4445,6.411,6.3925,0.0,0.0,0.0,0.0,0.0,0.0,0.0,0.0,0.0,0.0,0.0,0.0,5.556,5.4208,5.3241,5.3121,0.0,0.0,0.0,0.0,0.0,5.5747,5.7434,0.0,5.9473,6.0358,6.0787,6.0787,6.0748,6.332,6.8276,6.8237,7.0853,7.5476,7.1283,6.8513,6.6865,6.5128,6.4436,6.4243,6.1781,6.0825,6.0941,6.1749,6.1518,6.0902,6.1749,6.1518,6.0746,6.0473,6.0842,6.1215,5.9758,5.9279,5.9205,0.0,0.0,0.0,6.1757,6.3893,6.6026,6.9765,7.3316,7.6138,7.7007,7.776,7.829,7.829,7.829,7.8327,7.8364,7.8327,7.829,7.829,7.829,7.803,7.7287,7.7138,7.6507,7.4909,7.4686,7.4314,7.3497,7.2717,7.1899,7.0982,7.0202,6.9756,6.9719,7.0425,7.0128,6.8568,6.9236,6.8085,6.4891,6.411,6.3702,6.359,6.3628,6.3628,6.359,6.3628,6.3628,6.359,6.359,6.359,6.359,6.359,6.4073,6.4816,6.4742,6.5262,6.6042,6.5979,6.5448,6.4853,0.0,0.0,0.0,0.0,0.0,0.0,0.0,0.0,0.0,0.0,0.0,0.0,0.0,5.4703,5.4049,5.4049,5.3741,0.0,0.0,0.0,0.0,5.6516,5.7665,5.8665,5.9473,6.0358,6.0787,6.0787,6.0242,6.2012,6.5974,6.6513,6.8629,7.186,6.9776,6.8821,6.8475,6.4051,6.2474,6.2864,6.1402,6.1133,6.1595,6.1364,6.1402,6.1577,6.1096,6.0424,5.9784,6.0267,6.0037,5.9586,5.9636,5.9119,5.8409,5.805,5.8093,5.877,6.0998,6.2774,6.4713,6.7652,7.0946,7.372,7.4537,7.6172,7.7547,7.7547,7.7956,7.829,7.829,7.829,7.829,7.829,7.829,7.8216,7.7919,7.7435,7.6469,7.4797,7.4612,7.3683,7.1255,7.1218,7.0796,6.9459,6.9088,6.8939,6.8939,6.9199,6.9088,6.8531,6.8271,6.7082,6.4816,6.3999,6.359,6.359,6.411,6.411,6.3628,6.4148,6.4073,6.359,6.359,6.359,6.359,6.359,6.4073,6.4742,6.4222,6.4891,6.6042,6.5485,6.5411,6.5671,0.0,0.0,0.0,0.0,0.0,0.0,0.0,0.0,0.0,5.5818,0.0,0.0,0.0,0.0,5.478,5.4511,5.4511,5.4857,5.567,5.5978,5.6401,5.6983,5.8088,5.8934,5.9473,6.0358,6.0787,6.0787,6.0204,6.155,6.4628,6.5474,6.7398,7.0014,6.8321,6.8667,7.0244,6.5705,6.3935,6.4057,6.2056,6.1903,6.2891,6.2433,6.2663,6.3097,6.2405,6.1454,6.054,6.0516,5.9906,5.9221,5.9445,5.893,5.8174,5.7962,5.8279,5.8873,5.9738,6.1139,6.307,6.6153,6.8543,7.0859,7.3608,7.5057,7.6098,7.6915,7.7547,7.7993,7.8253,7.829,7.829,7.829,7.829,7.8216,7.7956,7.6952,7.5763,7.4351,7.3707,7.2518,7.0314,7.0351,7.0054,6.8976,6.8642,6.8605,6.8902,6.8902,6.8791,6.8493,6.7156,6.5931,6.4816,6.3999,6.359,6.359,6.4148,6.411,6.3628,6.4148,6.411,6.359,6.359,6.359,6.359,6.359,6.4259,6.5151,6.4333,6.5039,6.6413,6.5856,6.5819,6.6191,0.0,0.0,0.0,0.0,0.0,0.0,0.0,0.0,5.7324,5.8204,0.0,0.0,0.0,0.0,0.0,5.4664,5.4626,5.4972,5.5747,5.6555,5.706,5.706,0.0,0.0,5.955,6.0358,6.0787,6.0787,6.0787,6.205,6.4512,6.5397,6.7552,7.0552,6.7366,6.8212,7.1944,7.0167,6.9007,6.8007,6.3775,6.3121,6.4731,6.5015,6.5184,6.5344,6.5708,6.477,6.309,6.1225,6.0576,6.0312,5.9119,5.8725,5.8687,0.0,5.8687,5.8502,0.0,0.0,0.0,6.4891,6.5931,6.7688,7.4041,7.4314,7.3943,7.6432,7.6952,7.7213,7.8067,7.8216,7.8216,7.8216,7.8253,7.803,7.725,7.5689,7.4314,7.3497,7.1911,7.0871,7.0821,7.0128,6.9682,6.9682,6.8939,6.8865,6.9682,6.9682,6.9274,6.8456,6.6079,6.4816,6.4816,6.3999,6.359,6.359,6.359,6.359,6.359,6.359,6.359,6.359,6.359,6.359,6.359,6.359,6.4556,6.5931,6.5113,6.5782,6.7231,6.7268,6.6785,6.6339,0.0,0.0,0.0,0.0,0.0,0.0,5.9088,5.8473,5.805,0.0,0.0,0.0,5.828,5.8396,5.8127,5.7319,5.778,5.7973,5.7588,5.7819,5.8204,5.8781,5.9242,5.9819,6.0435,6.0671,6.0787,6.0787,6.0787,6.1166,6.1897,6.3358,6.4859,6.6359,6.6635,6.7404,6.8289,6.4749,6.4897,6.7115,6.3217,6.3764,6.6643,6.4041,6.4158,6.5539,6.4219,6.3435,6.2991,6.2801,6.1954,6.0826,5.9881,5.917,0.0,0.0,5.8687,0.0,5.7732,0.0,0.0,0.0,0.0,0.0,6.7305,6.8431,6.9843,7.2902,7.3571,7.4166,7.6135,7.6507,7.6507,7.6507,7.751,7.8216,7.7993,7.6507,7.4946,7.3571,7.1911,7.0462,6.9274,6.8976,6.8828,6.8828,6.8642,6.8865,6.9682,6.9162,6.8196,6.6822,6.5485,6.4816,6.4816,6.3999,6.359,6.359,6.359,6.359,6.359,6.359,6.359,6.359,6.359,6.359,6.359,6.359,6.3888,6.4333,6.4668,6.5076,6.5559,6.6191,6.6673,6.7045,0.0,0.0,0.0,0.0,0.0,6.005,6.0517,6.0204,6.0012,0.0,0.0,0.0,5.9896,6.0589,6.0627,5.9435,5.9781,5.9858,5.9358,5.9358,5.955,6.0012,6.005,6.0281,6.0787,6.0787,6.0787,6.0787,6.0787,6.0787,6.0825,6.1781,6.2704,6.3589,6.4211,6.4859,6.5314,6.1978,6.281,6.6166,6.3975,6.5069,6.7837,6.5823,6.6378,6.812,6.6743,6.6231,6.6086,6.5019,6.333,6.1473,6.0285,5.9839,5.9616,5.891,0.0,0.0,0.0,0.0,6.047,6.0693,0.0,0.0,6.5708,6.6302,6.7193,7.0475,7.1143,7.1812,7.3906,7.4314,7.4537,7.5206,7.6135,7.6767,7.6767,7.5615,7.4314,7.3051,7.1441,7.0165,6.9571,6.9199,6.9013,6.9013,6.9311,6.9571,6.9682,6.8939,6.7936,6.6636,6.5782,6.5151,6.4816,6.3999,6.359,6.359,6.359,6.359,6.359,6.359,6.3776,6.4073,6.3739,6.3999,6.4593,6.4259,6.4296,6.4631,6.4742,6.5225,6.5893,6.6413,6.6896,6.7379,0.0,0.0,6.0825,6.0941,6.1672,6.2287,6.2364,6.2364,6.2672,0.0,6.2974,6.2557,6.2633,6.3205,6.2974,6.1512,6.1281,6.1133,6.0979,6.0941,6.0902,6.0787,6.0787,6.0787,6.0787,6.0787,6.0787,6.0787,6.0787,6.0787,6.0787,6.0787,6.121,6.1903,6.1133,6.1615,6.2874,6.1252,6.2237,6.4916,6.5007,6.6484,6.865,6.8774,6.9885,7.1309,7.0809,7.0648,7.0202,6.7231,6.4631,6.2402,6.0805,6.073,6.0916,5.9393,6.0545,0.0,0.0,0.0,0.0,6.2996,6.1882,0.0,6.6562,6.6116,6.5485,6.8419,6.9088,6.9682,7.1342,7.1788,7.2345,7.3608,7.4091,7.4426,7.4686,7.3943,7.3125,7.2419,7.0846,7.0128,7.0821,7.0239,6.9831,6.9831,7.0611,7.0574,6.9496,6.8828,6.8011,6.6933,6.6191,6.5448,6.4668,6.3962,6.359,6.359,6.359,6.359,6.359,6.3702,6.411,6.4779,6.4036,6.4631,6.6042,6.5151,6.5299,6.6042,6.5336,6.5931,6.7193,6.7379,6.7416,6.7639,0.0,6.0787,6.1018,6.171,6.2512,6.3314,6.4012,6.4128,6.4436,6.5282,6.5243,6.5404,6.6058,6.5711,6.5243,6.4942,6.4243,6.3281,6.1941,6.1864,6.1518,6.0825,6.0787,6.0787,6.0787,6.0787,6.0787,6.0787,6.0787,6.0787,6.0787,6.0787,6.0902,6.1056,6.0864,6.082,6.0957,6.192,6.2341,6.2476,6.3097,6.6044,6.9837,6.824,6.8638,6.9966,6.9236,6.8976,6.8753,6.7491,6.5856,6.4148,6.3182,6.2105,6.115,6.0815,6.1028,6.1336,6.0842,0.0,6.2105,6.1744,6.2773,0.0,6.281,6.3256,6.4036,6.4668,6.5299,6.6265,6.7936,6.9311,6.9868,6.8877,7.092,7.3348,7.528,7.4314,7.3348,7.3162,7.1701,7.0722,7.0871,7.0759,7.0685,7.0685,7.1478,7.0735,6.7899,6.8233,6.7231,6.4408,6.4185,6.3999,6.385,6.3665,6.359,6.359,6.359,6.359,6.3628,6.4259,6.4668,6.4779,6.4631,6.5151,6.6042,6.5151,6.5299,6.6153,6.6636,6.6636,6.6488,6.7788,6.8271,6.8419,0.0,6.1441,6.1864,6.3134,6.3666,6.4397,6.5667,6.5859,6.632,6.7628,6.8513,6.8866,6.8436,6.8052,6.7282,6.6019,6.5089,6.3897,6.221,6.2095,6.171,6.0825,6.0787,6.1018,6.1441,6.1018,6.1018,6.1441,6.1018,6.0787,6.0787,6.0787,6.0787,6.0781,6.061,6.0475,6.0311,6.0789,6.1254,6.1889,6.3916,6.6652,6.9432,6.9197,7.0128,7.1441,7.0623,7.0066,6.9459,6.7825,6.7268,6.6822,6.4371,6.4185,6.4519,6.2885,6.2996,6.3368,6.2142,6.2402,6.2996,6.2996,6.2996,0.0,0.0,6.2068,6.2105,6.333,6.3293,6.3628,6.5671,6.6042,6.6339,6.7156,6.8691,7.0586,7.3038,7.3385,7.3385,7.3385,7.1911,7.1056,7.1515,7.0796,7.0648,7.1478,7.0809,6.9992,6.9125,6.8716,6.7379,6.4928,6.4853,6.4445,6.359,6.359,6.359,6.359,6.359,6.359,6.3628,6.4445,6.5039,6.5448,6.5448,6.6153,6.7231,6.6376,6.6525,6.7305,6.7305,6.7305,6.7453,6.8642,6.9088,6.9274,6.2133,6.221,6.2826,6.432,6.4859,6.559,6.7128,6.7481,6.8167,6.9744,7.1245,7.1752,7.0552,7.0129,6.9244,6.7513,6.5974,6.4589,6.3403,6.2864,6.2133,6.1095,6.1056,6.1287,6.1826,6.1172,6.1133,6.1864,6.1133,6.0787,6.0787,6.0787,6.0757,6.0703,6.0501,6.0478,6.0533,5.9856,6.0614,6.252,6.518,6.6982,6.8196,6.9831,7.1366,7.2605,7.1936,7.118,7.0165,6.8382,6.8531,6.8939,6.5782,6.6488,6.7973,6.5336,6.5485,6.6116,6.411,6.4148,6.4779,6.4816,6.3702,6.2662,0.0,0.0,0.0,6.2365,6.1882,6.1733,6.3516,6.307,6.3108,6.5299,6.6451,6.7639,6.9274,7.1218,7.2568,7.2902,7.1428,7.0834,7.1862,7.0586,7.0239,7.1639,6.9732,6.9013,7.0165,6.8828,6.7379,6.5893,6.5708,6.4965,6.359,6.359,6.359,6.359,6.359,6.359,6.3628,6.4593,6.5448,6.6128,6.6265,6.7156,6.8456,6.7639,6.7788,6.8456,6.7788,6.7936,6.8605,6.9385,6.9794,7.0165,6.2249,6.2666,6.3468,6.4436,6.582,6.7128,6.8122,6.8898,6.9744,7.0629,7.1591,7.2437,7.3007,7.1706,7.1283,7.2545,6.9052,6.7051,6.766,6.559,6.3589,6.2018,6.1941,6.1633,6.0979,6.0864,6.0864,6.0941,6.0864,6.0787,6.0787,6.0787,6.0622,6.0356,6.0616,6.1031,6.1516,6.1024,6.2231,6.4487,6.4859,6.5531,6.6562,6.8159,6.9348,7.0091,7.0016,6.9459,6.8828,6.9274,6.9088,6.8679,6.8939,6.8753,6.8419,6.8048,6.8085,6.8159,6.7899,6.8382,6.8345,6.5485,6.6265,6.6376,6.1436,0.0,6.2439,5.9802,0.0,6.1028,6.0545,0.0,0.0,5.995,6.3368,6.5819,6.4593,6.7082,6.9571,7.1019,6.9756,6.9385,7.0908,7.0239,6.9794,6.9979,6.9051,6.8271,6.7751,6.6859,6.5931,6.4965,6.4259,6.3776,6.359,6.359,6.359,6.359,6.359,6.359,6.3665,6.5225,6.6005,6.6128,6.6859,6.7676,6.8456,6.7639,6.7788,6.8493,6.8419,6.8419,6.8605,6.9385,7.0165,7.0908,6.3628,6.382,6.4474,6.582,6.6628,6.7558,6.8936,7.0699,7.2399,7.3707,7.4168,7.4745,7.5592,7.4168,7.3399,7.4123,7.1668,6.9783,6.9199,6.7205,6.5519,6.4365,6.332,6.2858,6.3012,6.2056,6.1556,6.1556,6.1056,6.0787,6.0787,6.0787,6.0997,6.1345,6.1041,6.1315,6.1973,6.1853,6.2149,6.281,6.4222,6.4742,6.5039,6.8568,7.0091,7.0388,7.0388,6.9868,6.9051,6.7973,6.8951,7.0437,6.9348,7.0103,7.1143,7.0165,6.9905,6.9682,6.8753,6.8753,6.8568,6.6711,6.5968,6.4891,6.1993,6.1028,6.0619,6.021,0.0,0.0,0.0,0.0,0.0,0.0,6.2588,6.4036,6.4259,6.4668,6.6265,6.9794,6.8382,6.7156,6.7342,6.7528,6.7788,6.8271,6.7082,6.6822,6.7936,6.6302,6.5411,6.5559,6.4742,6.4073,6.359,6.359,6.359,6.359,6.359,6.359,6.3665,6.5336,6.6079,6.6153,6.7453,6.8196,6.8456,6.8122,6.8196,6.8493,6.8493,6.8493,6.8642,6.9942,7.0611,7.1094,6.4897,6.4974,6.5397,6.6865,6.7282,6.8052,6.9783,7.1591,7.3469,7.5399,7.563,7.613,7.7484,7.6707,7.62,7.643,7.4707,7.3098,7.186,6.9513,6.7667,6.6628,6.5128,6.4429,6.4589,6.3166,6.2326,6.2095,6.1479,6.1287,6.1473,6.1248,6.1632,6.2475,6.2002,6.2336,6.3267,6.3221,6.333,6.3628,6.4705,6.5188,6.5633,6.8976,7.0239,7.0314,7.0747,7.0239,6.9162,6.7862,6.9397,7.1565,7.0029,7.1292,7.3125,7.1701,7.1391,7.1279,6.9868,6.9509,6.91,6.7379,6.5448,6.3479,6.177,6.0693,6.0322,6.1336,6.1288,0.0,0.0,0.0,6.151,6.2253,0.0,6.281,6.3999,6.2959,6.3553,6.7565,6.6896,6.5931,6.5522,6.5856,6.6228,6.6599,6.5076,6.5039,6.7045,6.5225,6.4631,6.5708,6.4928,6.4185,6.359,6.359,6.359,6.359,6.359,6.359,6.3665,6.5336,6.6079,6.6191,6.7788,6.8493,6.8493,6.8493,6.8493,6.8493,6.8493,6.8493,6.8679,7.0054,7.071,7.1131,6.5705,6.5865,6.6134,6.6942,6.7782,6.893,7.0591,7.0937,7.1898,7.4392,7.4738,7.5707,7.8176,7.9169,7.9977,8.0823,7.8592,7.7099,7.7061,7.3129,7.0052,6.8391,6.7475,6.6244,6.4628,6.3737,6.2897,6.2095,6.2056,6.248,6.3198,6.2403,6.2543,6.3487,6.3686,6.4622,6.5926,6.5421,6.6829,6.9236,6.6971,6.7453,6.9459,6.8828,6.8568,6.8791,7.0351,6.9868,6.8753,7.0239,7.0821,0.0,0.0,7.2679,7.3237,7.2382,7.2717,7.3125,7.2308,7.2085,7.1119,6.7131,6.5448,6.3702,5.9728,6.1213,6.3256,6.2513,6.4853,6.6785,6.6091,6.5225,0.0,0.0,6.2402,0.0,0.0,6.177,6.1893,6.359,6.5151,6.6376,6.7156,6.6525,6.5745,6.4928,6.3405,6.2848,6.3702,6.2922,6.3182,6.4779,6.4073,6.3628,6.359,6.359,6.359,6.359,6.359,6.359,6.3665,6.5336,6.6079,6.6191,6.7788,6.8493,6.8493,6.8493,6.8493,6.8493,6.8493,6.8493,6.8605,6.9422,7.0239,7.1019,6.6635,6.7167,6.7475,6.7135,6.7821,6.9353,7.2199,7.2129,7.3476,7.8323,7.7938,7.8823,8.3054,8.3324,8.3508,8.4324,8.3131,8.1593,7.9939,7.6861,7.463,7.3476,7.0975,6.936,6.8783,6.6821,6.5128,6.3743,6.3166,6.3051,6.3269,6.2784,6.3004,6.3854,6.3984,6.4639,6.5721,6.6926,6.7372,6.7305,6.7008,6.8345,7.0425,6.9608,6.9274,6.9385,6.9905,6.9422,0.0,6.9125,6.9682,7.0239,7.1056,7.1923,7.2642,7.2902,7.32,7.3348,0.0,0.0,7.2159,6.858,0.0,6.4742,6.1187,6.203,6.3368,6.255,6.5002,6.7045,6.6228,6.6302,0.0,0.0,0.0,6.3442,0.0,6.0396,6.0173,6.1808,6.3442,6.4333,6.4073,6.4296,6.3888,6.2513,6.1362,6.1362,6.2736,6.151,6.1733,6.3925,6.3219,6.307,6.359,6.359,6.359,6.359,6.359,6.359,6.3665,6.5336,6.6079,6.6191,6.7788,6.8493,6.8493,6.8493,6.8493,6.8493,6.8493,6.8493,6.8642,7.0016,7.0685,7.1094,6.809,6.8244,6.8314,6.8052,6.8975,7.0475,7.2706,7.3822,7.606,8.0516,8.117,8.267,8.6594,8.6824,8.6778,8.7017,8.6555,8.4901,8.1747,7.9977,7.8169,7.6092,7.4207,7.2745,7.186,7.0206,6.8244,6.5929,6.5391,6.5032,6.4882,6.3736,6.3672,6.4487,6.4519,6.4939,6.5774,6.7993,6.8345,6.7379,6.7639,6.9013,7.0834,7.0016,6.9868,7.0091,6.9794,6.9199,6.8531,6.8828,6.9274,6.9794,7.0314,7.1069,7.1849,7.2369,7.2717,7.2977,7.2977,7.2977,0.0,6.9608,6.7936,0.0,6.3516,0.0,6.5968,6.5151,6.7602,6.9546,6.8468,6.8208,0.0,0.0,0.0,6.3108,0.0,5.9616,5.9765,6.1436,6.255,6.3182,6.3256,6.3442,6.3033,6.1733,6.0545,6.0359,6.1436,6.0768,6.1213,6.3108,6.2959,6.307,6.359,6.359,6.359,6.359,6.359,6.359,6.3665,6.5002,6.5819,6.6153,6.7491,6.8233,6.8493,6.8493,6.8493,6.8493,6.8493,6.8493,6.8679,7.0314,7.1279,7.1961,6.986,6.9084,6.8853,6.9667,7.1091,7.2175,7.229,7.583,7.9138,8.1054,8.417,8.6901,8.8756,8.9633,8.9748,8.8949,8.8872,8.7102,8.2901,8.2593,8.0708,7.663,7.7092,7.6322,7.3853,7.3661,7.1968,6.866,6.8545,6.8241,6.7767,6.5261,6.4525,6.5329,6.5349,6.5607,6.6191,6.8679,6.9794,6.9756,6.8976,6.9608,7.0945,7.0091,7.0276,7.0908,7.0016,6.9199,6.8605,6.9385,6.9645,6.9645,6.9682,7.0239,7.0908,7.0945,7.1589,7.2271,7.2271,7.2271,7.1862,7.0239,6.9199,0.0,0.0,0.0,7.0648,0.0,7.2258,7.4054,7.2382,0.0,0.0,0.0,0.0,6.1436,5.9096,5.9393,6.0433,6.2068,6.2253,6.2885,6.4519,6.3962,6.3145,6.229,6.073,5.9839,5.9839,6.0656,6.1521,6.2328,6.3108,6.3553,6.359,6.359,6.359,6.359,6.359,6.359,6.3628,6.4482,6.5336,6.6153,6.6971,6.7788,6.8493,6.8493,6.8493,6.8493,6.8493,6.8568,6.8791,7.0351,7.1961,7.3385,6.986,7.0514,7.1283,7.1521,7.136,7.186,7.3783,7.6092,7.9138,8.3362,8.6324,8.9141,9.2104,9.2595,9.2402,9.1595,9.1518,9.0248,8.7256,8.644,8.5055,8.27,8.1016,7.9515,7.82,7.57,7.3661,7.2199,7.0276,6.8831,6.7752,6.6227,6.5122,6.4547,6.5489,6.5961,6.6265,6.9311,7.0958,7.1527,7.1342,7.1862,7.2592,7.1131,7.1502,7.2481,7.0425,6.9199,6.8531,6.8753,6.8828,6.8902,6.9496,7.0239,7.1019,7.1663,7.2456,7.3088,7.3088,7.3088,7.2865,7.1825,7.0475,6.9125,0.0,0.0,0.0,0.0,0.0,0.0,0.0,0.0,6.8753,6.5893,6.2699,6.0322,5.969,5.9245,5.9393,6.0433,6.0025,6.0545,6.281,6.229,6.1213,5.9765,5.9245,5.9022,5.9022,5.9802,6.0619,6.1484,6.229,6.2996,6.359,6.359,6.359,6.359,6.359,6.359,6.3665,6.5113,6.5893,6.6191,6.7565,6.8308,6.8493,6.8493,6.8493,6.8493,6.8493,6.9236,7.0351,7.0759,7.1961,7.3385,7.2052,7.2937,7.386,7.386,7.4361,7.5284,7.67,7.8092,8.0516,8.4863,8.7979,9.0517,9.2402,9.3595,9.4104,9.3642,9.3249,9.1787,8.8872,8.894,8.7632,8.4478,8.367,8.2362,8.04,7.8823,7.6899,7.4591,7.243,7.052,6.8822,6.6522,6.4992,6.4227,6.5143,6.5745,6.6302,6.9534,7.1626,7.2642,7.1923,7.2345,0.0,7.1961,7.2035,7.2679,7.1292,7.0252,6.9571,6.9571,6.9571,6.9645,7.0091,7.0536,7.1056,7.1936,7.2531,7.2939,7.3311,7.3385,7.3274,7.2828,7.1998,7.1218,7.0735,7.1069,7.1218,0.0,7.1292,7.1663,0.0,0.0,6.7453,6.3813,6.1659,6.021,5.9467,5.8985,5.8985,5.9802,5.9505,5.9765,6.1176,6.0248,5.9467,5.9245,5.891,5.8687,5.8687,5.9802,6.0693,6.1176,6.2662,6.3516,6.359,6.4296,6.4296,6.359,6.359,6.359,6.3628,6.4928,6.5745,6.6153,6.7416,6.8159,6.8493,6.8493,6.8493,6.8531,6.8902,6.9794,7.0945,7.1316,7.2295,7.3385,7.4853,7.5476,7.613,7.6015,7.8284,8.0277,8.0739,8.1631,8.3324,8.6363,8.9748,9.1864,9.1864,9.3826,9.5104,9.5027,9.4296,9.2604,8.9564,9.0633,8.9325,8.4794,8.5786,8.4978,8.1823,8.2093,8.0323,7.6322,7.4546,7.2417,6.9979,6.6619,6.47,6.4145,6.4599,6.5411,6.6599,6.9608,7.1886,7.3274,7.1923,7.2258,7.3497,7.2902,7.2605,7.2494,7.2494,7.1812,7.0908,7.0908,7.0908,7.0908,7.0908,7.0982,7.1205,7.1973,7.2271,7.2494,7.32,7.3385,7.3385,7.3385,7.3385,7.3385,7.3274,7.2679,7.2122,7.1936,7.1292,7.0239,0.0,0.0,6.5373,6.1919,6.1076,6.0433,5.9207,5.891,5.917,5.9988,5.9988,0.0,5.9913,5.865,5.8353,5.9653,5.9096,5.8687,5.8687,6.0173,6.1076,6.1187,6.333,6.4296,6.3925,6.5113,6.5076,6.3925,6.3702,6.359,6.3628,6.4556,6.5373,6.6153,6.7045,6.7862,6.8493,6.8493,6.8493,6.8568,6.9385,7.0202,7.1019,7.1899,7.2717,7.3385,7.4853,7.5976,7.6861,7.613,7.9246,8.2824,8.5632,8.7363,8.8816,9.0133,9.3287,9.5403,9.5403,9.5788,9.5788,9.5066,9.4874,9.422,9.2903,9.2479,9.1556,8.994,8.8825,8.7286,8.5286,8.3285,8.09,7.8061,7.5668,7.2548,6.8796,6.7463,6.5736,6.3751,6.4479,6.6005,6.8196,7.0091,7.1886,7.3423,7.3794,7.4128,7.4463,7.4983,7.476,7.4166,7.4166,7.2778,7.0908,7.0908,7.0908,7.0908,7.0908,7.1403,7.2011,7.2159,7.2679,7.32,7.3348,7.3385,7.3385,7.3385,7.3385,7.3237,7.2568,7.2308,7.1825,7.0437,7.0016,6.9236,6.6933,0.0,0.0,6.2179,6.047,5.9505,6.063,6.0136,6.0025,6.0879,6.0322,5.9913,5.9913,5.9653,5.9319,5.8947,5.8762,5.8687,5.8687,5.9616,6.047,6.1187,6.2253,6.3739,0.0,0.0,6.4556,6.5645,6.4259,6.359,6.3665,6.5113,6.5893,6.6191,6.7639,6.8382,6.8493,6.8493,6.8493,6.8568,6.9385,7.0202,7.1019,7.1899,7.2717,7.3385,7.7938,7.8323,7.8861,7.9785,8.2708,8.594,8.8902,9.1556,9.274,9.1364,9.2633,9.3633,9.3633,9.5249,9.6134,9.5711,9.5672,9.5288,9.445,9.3595,9.2556,9.1248,8.9979,8.8325,8.617,8.4478,8.217,7.9169,7.5971,7.2704,6.9438,6.7307,6.5437,6.3953,6.5005,6.6822,6.9236,7.0883,7.2258,7.3497,7.4723,7.5206,7.528,7.5652,7.5578,7.5206,7.5206,7.419,7.2778,7.2332,7.2184,7.2184,7.2184,7.2481,7.2828,7.2828,7.3088,7.3385,7.3385,7.3385,7.3385,7.3385,7.3385,7.32,7.2382,7.1862,7.118,6.9942,6.9385,6.8605,6.7008,6.4371,0.0,0.0,6.1956,6.1028,6.2253,6.1733,6.1213,6.1187,6.0842,6.021,5.9356,5.9653,5.9393,5.8167,5.8465,5.8502,5.8093,5.9245,6.0285,6.1187,0.0,0.0,6.5411,0.0,6.5708,6.6079,6.5262,6.4891,6.4928,6.6116,6.6673,6.6785,6.7973,6.8493,6.8531,6.8939,6.8865,6.8679,7.0326,7.0945,7.1056,7.2345,7.3051,7.3385,8.1246,8.1246,8.1631,8.3986,8.6794,8.9402,9.1441,9.4634,9.5788,9.2941,9.2556,9.2556,9.2556,9.4941,9.648,9.6326,9.6288,9.6019,9.5335,9.445,9.3287,9.1787,9.0893,8.9355,8.697,8.5739,8.347,8.0092,7.6432,7.3047,6.9955,6.722,6.5284,6.4131,6.5657,6.7491,6.9571,7.1416,7.2865,7.4054,7.5503,7.6098,7.6098,7.6284,7.6246,7.6098,7.6098,7.554,7.4723,7.3943,7.3534,7.3385,7.3385,7.3385,7.3385,7.3385,7.3385,7.3385,7.3385,7.3385,7.3385,7.3385,7.3385,7.3125,7.2159,7.1403,7.0598,6.9645,6.8791,6.8048,6.7416,6.5411,0.0,0.0,0.0,6.2996,6.3999,6.359,6.2747,6.1596,6.177,6.1038,5.865,5.9319,5.917,5.7398,5.7982,5.8167,5.7536,5.8687,5.9765,0.0,0.0,6.3739,6.5076,0.0,6.6711,6.6599,6.6265,6.6079,6.6116,6.6933,6.7305,6.7342,6.8159,6.8493,6.8568,6.9199,6.9088,6.8679,7.066,7.1218,7.1056,7.2369,7.3088,7.3385,8.287,8.3939,8.4978,8.6748,9.0402,9.3172,9.3441,9.6365,9.8173,9.7057,9.6903,9.6903,9.6903,9.7211,9.7096,9.6365,9.6288,9.6288,9.6172,9.5365,9.445,9.3518,9.2672,9.1402,8.9586,8.7201,8.4324,8.0977,7.788,7.3727,6.8675,6.7997,6.6224,6.3769,6.614,6.7713,0.0,7.1193,7.3497,7.5652,7.6581,7.699,7.7064,7.7807,7.7621,7.699,7.699,7.6432,7.5578,7.476,7.4017,7.3385,7.3385,7.3385,7.3385,7.3385,7.3385,7.3385,7.3385,7.3385,7.3385,7.3385,7.3385,7.2977,7.1391,7.0945,7.0462,6.8939,6.7973,6.7379,6.7305,6.5856,6.4965,0.0,0.0,6.4036,6.5633,6.5782,6.4891,6.255,6.359,6.2662,5.8066,5.8985,5.8947,5.658,5.7165,5.7573,5.7509,5.7647,0.0,5.891,6.0545,6.2896,6.5931,6.5336,6.6116,6.8271,6.6785,6.6079,6.6116,6.6933,6.7305,6.7342,6.8159,6.8493,6.8493,6.8568,6.8568,6.8531,6.8753,6.9682,7.0932,7.1094,7.2109,7.3385,8.7094,8.6863,8.7248,8.9979,9.1864,9.3672,9.5672,9.7134,9.8096,9.825,9.7827,9.7326,9.6826,9.6788,9.6634,9.6326,9.6288,9.6288,9.6288,9.548,9.4835,9.4489,9.321,9.1672,8.9932,8.794,8.5209,8.1823,7.8846,7.5358,7.1456,6.9025,6.7149,6.5893,0.0,6.9026,7.0846,7.2828,7.4463,7.5912,7.7287,7.7807,7.7844,7.8179,7.8104,7.7807,7.7807,7.7287,7.6544,7.6209,7.4909,7.3385,7.3385,7.3385,7.3385,7.3385,7.3385,7.3385,7.3385,7.3385,7.3385,7.3385,7.3385,7.3088,7.1923,7.1279,7.0574,6.9459,6.8976,6.8605,6.8122,6.7082,6.6562,6.7416,0.0,0.0,6.7305,6.6265,6.4779,6.3293,6.1956,6.0173,5.7722,5.8093,5.8465,5.8465,5.8316,5.8019,5.7536,0.0,0.0,5.9393,0.0,6.2513,6.5299,6.5485,6.6562,6.8493,6.7862,6.7528,6.7565,6.7862,6.8011,6.8048,6.8345,6.8493,6.8531,6.9013,6.8939,6.8605,6.9571,7.0351,7.0945,7.1478,7.2419,7.3385,9.071,9.0056,9.0325,9.3749,9.4557,9.5518,9.7904,9.8481,9.8673,9.8788,9.825,9.7557,9.6749,9.6634,9.6557,9.6326,9.6288,9.6288,9.6288,9.5711,9.5258,9.5027,9.3642,9.2172,9.0701,8.8517,8.6094,8.3439,8.0195,7.7112,7.4177,0.0,0.0,0.0,6.9459,7.1032,7.3014,7.4351,7.5578,7.6655,7.7807,7.829,7.829,7.829,7.829,7.829,7.829,7.777,7.7101,7.7101,7.5615,7.3757,7.3757,7.3571,7.3385,7.3385,7.3385,7.3385,7.3385,7.3385,7.3385,7.3385,7.3385,7.32,7.2382,7.1701,7.1056,7.0239,7.0054,6.9868,6.9311,6.8568,6.8196,6.8753,0.0,0.0,6.8011,6.6636,6.4965,6.3442,6.1213,5.917,5.7647,5.7722,5.8242,5.9133,5.8873,5.8539,5.8205,0.0,0.0,0.0,0.0,0.0,6.4779,6.5633,6.6896,6.8493,6.8493,6.8493,6.8493,6.8493,6.8493,6.8493,6.8493,6.8493,6.8531,6.9125,6.9013,6.8605,6.9756,7.0351,7.0648,7.1515,7.2196,7.2704,9.2979,9.3633,9.4711,9.8134,9.9452,9.999,10.0106,10.0712,10.0712,9.9019,9.8788,9.8442,9.7596,9.748,9.7173,9.6365,9.6288,9.6288,9.6288,9.6288,9.5903,9.5027,9.4181,9.3287,9.2479,8.9133,8.6978,8.6055,8.2226,7.8857,7.5921,0.0,7.1676,7.0945,7.2592,7.3794,7.4612,7.5429,7.6767,7.8253,7.829,7.829,7.829,7.829,7.829,7.829,7.829,7.777,7.7101,7.7101,7.5986,7.4574,7.4574,7.4054,7.3385,7.3385,7.3385,7.3385,7.3385,7.3385,7.3385,7.3385,7.3385,7.32,7.2382,7.2196,7.1936,7.1056,7.0895,7.0871,7.0871,7.0202,6.9682,6.9682,0.0,0.0,0.0,6.7305,6.6042,6.281,6.2365,6.1065,5.7806,5.8205,5.8353,5.7573,5.8242,5.9022,5.9839,0.0,0.0,5.8687,6.0333,0.0,6.4779,6.5596,6.6859,6.8493,6.8493,6.8493,6.8493,6.8493,6.8493,6.8493,6.8493,6.8493,6.8493,6.8493,6.8493,6.8493,6.8531,6.9013,6.9831,7.0598,7.0932,7.1056,9.598,9.6288,9.6826,9.8519,9.9019,9.9221,9.9221,9.8942,9.8519,9.798,9.7442,9.698,9.6711,9.6673,9.6596,9.6326,9.6288,9.6288,9.6288,9.6288,9.6172,9.5903,9.448,9.3326,9.2518,8.971,8.7555,8.6094,0.0,0.0,0.0,7.4101,7.3385,7.2666,7.4314,7.5503,7.6358,7.7175,7.7807,7.829,7.829,7.829,7.829,7.829,7.829,7.829,7.829,7.8141,7.7919,7.7919,7.6804,7.5429,7.5429,7.45,7.3385,7.3385,7.3385,7.3385,7.3385,7.3385,7.3385,7.3385,7.3385,7.3311,7.3088,7.2568,7.1788,7.0388,7.0995,7.1589,7.1019,7.118,7.1032,6.9905,6.9496,0.0,6.6748,6.5485,6.3962,6.1856,6.011,5.865,5.7621,5.7722,5.8242,5.9059,5.8873,5.8799,0.0,0.0,0.0,0.0,6.1659,0.0,6.4779,6.6191,6.7416,6.8493,6.9051,6.9608,7.0128,7.0128,6.9831,6.9311,6.9311,6.9013,6.8493,6.8493,6.8493,6.8493,6.8493,6.8976,6.9719,6.9979,7.0796,7.1738,9.7827,9.825,9.875,9.9596,9.975,9.9635,9.9327,9.8827,9.825,9.7596,9.7057,9.6634,9.6326,9.6288,9.6288,9.6288,9.6288,9.6288,9.6288,9.6288,9.6288,9.6288,9.4634,9.3441,9.2941,9.018,0.0,8.7094,8.3553,7.9783,7.5875,7.5952,7.5726,7.528,7.6284,7.7027,7.7584,7.8104,7.829,7.829,7.829,7.829,7.829,7.829,7.829,7.829,7.829,7.829,7.829,7.829,7.7398,7.6246,7.5912,7.5095,7.4166,7.3571,7.3385,7.3385,7.3385,7.3385,7.3385,7.3385,7.3385,7.3385,7.3385,7.3014,7.2345,7.1292,7.1923,7.2494,7.1961,7.2048,7.1862,7.0809,7.0091,6.8865,6.6451,6.4668,6.2885,6.0953,5.9356,5.8279,5.7982,5.8512,5.9059,5.943,5.9839,5.9802,0.0,0.0,6.0545,6.0842,6.2922,6.4593,6.5745,6.7082,6.8159,6.8976,6.9756,7.0425,7.0908,7.0908,7.0462,6.9719,6.9719,6.9236,6.8493,6.8493,6.8493,6.8493,6.8493,6.8828,6.9311,6.9942,7.0425,7.0809,9.8634,9.949,10.0289,10.1096,10.1212,10.0904,9.999,9.9875,9.9259,9.7634,9.7403,9.7134,9.6365,9.6288,9.6288,9.6288,9.6288,9.6288,9.6288,9.6249,9.6211,9.6211,9.4557,9.3633,9.3633,9.0411,8.8577,8.8333,8.4203,8.11,7.9041,7.8536,7.829,7.829,7.829,7.829,7.829,7.829,7.829,7.829,7.829,7.829,7.829,7.829,7.829,7.829,7.829,7.829,7.829,7.829,7.777,7.6952,7.6172,7.5838,7.5466,7.3868,7.3423,7.346,7.3423,7.3385,7.3385,7.3385,7.3385,7.3385,7.3311,7.3348,7.3385,7.3311,7.3348,7.3385,7.3385,7.2791,7.2233,7.2122,7.0772,6.8828,6.6265,6.4593,6.2662,6.021,5.9988,0.0,5.9022,6.0322,6.0582,5.9133,6.1065,6.1659,0.0,0.0,6.1919,6.255,6.4148,6.5782,6.7453,6.8196,6.9013,6.9868,7.0648,7.1019,7.1056,7.1056,7.0648,6.9868,6.9794,6.9348,6.8568,6.8531,6.8493,6.8493,6.8493,6.8531,6.8753,7.0202,6.9868,6.8865,9.8634,9.949,10.0183,10.0414,9.9827,9.9096,9.825,9.7596,9.7057,9.6634,9.6596,9.6519,9.6326,9.6288,9.6288,9.6288,9.6288,9.6288,9.6288,9.5672,9.5297,9.5297,9.3672,9.2787,9.2787,9.0103,8.7368,8.4659,8.3009,8.1226,7.9376,7.8643,7.829,7.829,7.829,7.829,7.829,7.829,7.829,7.829,7.829,7.829,7.829,7.829,7.829,7.829,7.829,7.829,7.829,7.829,7.777,7.7064,7.6878,7.6358,7.5466,7.3868,7.3831,7.4166,7.3571,7.3385,7.3385,7.3385,7.3385,7.3237,7.2605,7.2939,7.3237,7.2605,7.2977,7.3385,7.3385,7.3237,7.2717,7.1428,7.0351,6.8419,6.4705,6.385,6.2662,6.021,6.1028,6.1733,6.1548,6.1325,6.1548,0.0,0.0,6.1845,6.2662,6.4705,6.5373,6.4259,6.5856,6.7491,6.9125,6.9311,7.0128,7.1602,7.1788,7.2233,7.2828,7.2828,7.2382,7.1565,7.0908,7.0165,6.9385,6.8753,6.8493,6.8493,6.8493,6.8865,6.9385,6.9162,6.9608,7.0202,9.8173,9.9519,10.0404,9.9644,9.9452,9.8981,9.7673,9.7134,9.6711,9.6365,9.6288,9.6288,9.6288,9.6288,9.6288,9.6288,9.6288,9.6134,9.5711,9.5258,9.4835,9.4412,9.3172,9.2479,9.2479,9.0364,8.7504,8.3987,8.3153,8.1618,7.9479,7.907,7.8662,7.829,7.829,7.829,7.829,7.829,7.829,7.829,7.829,7.829,7.829,7.829,7.829,7.829,7.829,7.829,7.829,7.829,7.7993,7.7584,7.7213,7.7027,7.6618,7.4983,7.4797,7.5057,7.4612,7.45,7.4426,7.4054,7.3683,7.3274,7.2865,7.3088,7.3274,7.2828,7.3088,7.3385,7.3385,7.3385,7.2852,7.1168,6.9905,6.7862,6.411,6.3293,6.2402,6.0693,6.1956,6.2959,6.2959,6.3267,6.3479,6.359,6.385,0.0,6.4705,6.7082,6.7639,6.6005,6.7899,6.9385,7.0239,7.066,7.1478,7.2754,7.2754,7.2977,7.3385,7.3385,7.2939,7.2159,7.1279,7.0462,6.9645,6.8828,6.8493,6.8493,6.8493,6.8753,6.9199,6.9496,6.9905,7.0276,9.7827,9.9558,10.0712,9.925,9.949,9.9375,9.775,9.7403,9.7057,9.6403,9.6288,9.6288,9.6288,9.6288,9.6288,9.6288,9.6288,9.5942,9.5066,9.4874,9.4412,9.3557,9.2749,9.2249,9.2095,9.0341,8.7858,8.4719,8.3756,8.2059,7.9702,7.9553,7.907,7.829,7.829,7.829,7.829,7.829,7.829,7.829,7.829,7.829,7.829,7.829,7.829,7.829,7.829,7.829,7.829,7.829,7.829,7.8179,7.751,7.7733,7.803,7.6581,7.6172,7.6135,7.5875,7.5726,7.5466,7.476,7.4017,7.3385,7.3385,7.3385,7.3385,7.3385,7.3385,7.3385,7.3385,7.3311,7.2717,7.1168,6.9348,6.7082,6.4036,0.0,6.229,6.1484,6.3145,6.4333,6.4333,6.5633,6.5968,6.4779,6.6413,6.7305,6.6859,6.8902,6.9459,6.8097,6.9905,7.0945,7.1094,7.1936,7.2717,7.3385,7.3385,7.3385,7.3385,7.3385,7.3014,7.2345,7.1316,7.0499,6.9831,6.8865,6.8493,6.8493,6.8493,6.8568,6.8828,7.0091,7.0276,6.9979,9.8481,9.9519,10.0221,9.9952,9.9413,9.8673,9.7634,9.6903,9.6442,9.6326,9.6288,9.6288,9.6288,9.6288,9.6288,9.6288,9.6288,9.5942,9.5066,9.4296,9.3518,9.271,9.1864,9.1056,9.0316,8.828,8.6372,8.4685,8.3425,8.2,8.052,7.9814,7.907,7.829,7.829,7.829,7.829,7.829,7.829,7.829,7.829,7.829,7.829,7.829,7.829,7.829,7.829,7.829,7.829,7.829,7.829,7.829,7.8141,7.8216,7.8253,7.7993,7.7919,7.7621,7.6172,7.5318,7.476,7.4649,7.4017,7.3385,7.3385,7.3385,7.3385,7.3385,7.3385,7.3385,7.3385,7.2828,7.2048,7.1056,6.8419,6.5782,6.3888,0.0,6.3108,6.229,6.5485,6.7751,6.7751,6.7973,6.8568,6.9682,6.8865,6.8865,7.0091,7.1218,7.1713,7.1453,7.1094,7.1242,7.1973,7.2791,7.3274,7.3385,7.3385,7.3385,7.3385,7.3385,7.3311,7.3125,7.1576,7.0821,7.0611,6.9125,6.8493,6.8493,6.8493,6.8939,6.9459,6.9051,6.9645,7.0648,9.8634,9.949,9.9952,9.949,9.9067,9.8519,9.7634,9.6826,9.6288,9.6288,9.6288,9.6288,9.6288,9.6288,9.6288,9.6288,9.6288,9.5711,9.4412,9.3912,9.3133,9.1864,9.1402,9.0778,8.9932,8.7792,8.6261,8.5329,8.4004,8.2692,8.1374,8.0557,7.9739,7.8922,7.8476,7.829,7.829,7.829,7.829,7.829,7.829,7.829,7.829,7.829,7.829,7.829,7.829,7.829,7.829,7.829,7.829,7.829,7.829,7.829,7.829,7.829,7.829,7.8141,7.7361,7.6581,7.5949,7.5949,7.5318,7.4686,7.4686,7.4686,7.4574,7.4128,7.4054,7.3906,7.3497,7.2754,7.1899,7.1056,6.7825,0.0,6.5002,6.4185,6.3962,6.4928,6.7453,6.9311,6.9756,6.9794,7.0091,7.0834,7.0202,7.0314,7.1552,7.1973,7.2382,7.2828,7.2444,7.2444,7.2828,7.32,7.3385,7.3385,7.3385,7.3385,7.3385,7.3385,7.3385,7.3311,7.2109,7.1316,7.0834,6.9645,6.8902,6.8493,6.8493,6.8716,6.9051,6.9125,6.9608,7.0202,9.8673,9.949,9.9837,9.8942,9.8788,9.8519,9.7634,9.6826,9.6288,9.6288,9.6288,9.6288,9.6288,9.6288,9.6288,9.6288,9.6095,9.5326,9.3787,9.3518,9.2749,9.1248,9.0825,9.021,8.9355,8.7283,8.604,8.5606,8.4191,8.2855,8.1671,8.0817,7.9999,7.9182,7.8587,7.829,7.829,7.829,7.829,7.829,7.829,7.829,7.829,7.829,7.829,7.829,7.829,7.829,7.829,7.829,7.829,7.829,7.829,7.829,7.829,7.829,7.829,7.829,7.829,7.7696,7.7101,7.7101,7.6432,7.5801,7.5801,7.5801,7.5615,7.502,7.4872,7.4686,7.4054,7.3162,7.2196,7.1329,0.0,6.5819,6.6302,6.5411,6.5448,6.7342,6.9162,7.0499,7.1131,7.1354,7.1465,7.1465,7.1465,7.1775,7.2419,7.2494,7.2754,7.3385,7.3385,7.3385,7.3385,7.3385,7.3385,7.3385,7.3385,7.3385,7.3385,7.3385,7.3385,7.3348,7.2531,7.1701,7.0834,7.0016,6.9236,6.8493,6.8493,6.8493,6.8568,6.9199,6.9534,6.9719,9.8788,9.949,9.9837,9.8942,9.8788,9.8519,9.7634,9.6826,9.6288,9.6288,9.6288,9.6288,9.6288,9.6288,9.6288,9.6288,9.5557,9.472,9.3749,9.2979,9.2172,9.1248,8.971,8.8487,8.7594,8.5807,8.4833,8.4798,8.3008,8.1677,8.078,7.9962,7.9182,7.8402,7.8327,7.829,7.829,7.829,7.829,7.829,7.829,7.829,7.829,7.829,7.829,7.829,7.829,7.829,7.829,7.829,7.829,7.829,7.829,7.829,7.829,7.829,7.829,7.829,7.829,7.7696,7.7101,7.7101,7.6432,7.5801,7.5801,7.5801,7.5801,7.5726,7.5726,7.5689,7.5615,7.4351,7.3051,7.2233,0.0,0.0,6.7305,6.7751,6.8196,6.8382,7.0549,7.2048,7.2085,7.2791,7.3237,7.3237,7.3237,7.3237,7.3311,7.3311,7.3348,7.3385,7.3385,7.3385,7.3385,7.3385,7.3385,7.3385,7.3385,7.3385,7.3385,7.3385,7.3385,7.3348,7.2531,7.1701,7.0834,7.0016,6.9236,6.8493,6.8493,6.8493,6.8493,6.8568,6.9051,6.9719,9.9375,9.9875,9.999,9.9644,9.9173,9.8519,9.7634,9.6826,9.6288,9.6288,9.6288,9.6288,9.6288,9.6288,9.6288,9.6288,9.6019,9.5211,9.3787,9.3403,9.2633,9.1248,8.9594,8.8564,8.8209,8.589,8.4711,8.4711,8.3379,8.234,8.1486,8.0631,7.9814,7.9033,7.8513,7.829,7.829,7.829,7.829,7.829,7.829,7.829,7.829,7.829,7.829,7.829,7.829,7.829,7.829,7.829,7.829,7.829,7.829,7.829,7.829,7.829,7.829,7.829,7.829,7.8067,7.7844,7.7844,7.7584,7.7361,7.7361,7.7361,7.7213,7.6692,7.6618,7.6432,7.5912,7.4909,7.4054,7.372,0.0,6.9496,7.0264,7.014,7.0351,7.1403,7.2828,7.3868,7.4389,7.4277,7.4351,7.4834,7.4909,7.4686,7.4166,7.3683,7.3385,7.3385,7.3385,7.3385,7.3385,7.3385,7.3385,7.3385,7.3385,7.3385,7.3385,7.3385,7.3125,7.2679,7.2865,7.2184,7.0871,7.0574,6.9979,6.9199,6.8679,6.8493,6.8493,6.8493,6.8679,6.8976,9.9096,9.949,9.9529,9.8981,9.8634,9.8096,9.725,9.6634,9.6288,9.6288,9.6288,9.6288,9.6288,9.6288,9.6288,9.6288,9.6057,9.5249,9.3787,9.321,9.2287,9.0855,8.944,8.8564,8.8295,8.5928,8.4711,8.4711,8.3454,8.2526,8.1969,8.0854,8.0022,7.9479,7.8662,7.829,7.829,7.829,7.829,7.829,7.829,7.829,7.829,7.829,7.829,7.829,7.829,7.829,7.829,7.829,7.829,7.829,7.829,7.829,7.829,7.829,7.829,7.829,7.829,7.829,7.829,7.829,7.829,7.829,7.829,7.829,7.8141,7.7584,7.7473,7.7287,7.6692,7.5949,7.5318,7.502,7.3075,7.1923,7.2828,7.2666,7.2889,7.4017,7.4649,7.5206,7.5763,7.5318,7.5206,7.5763,7.5801,7.5466,7.4649,7.4091,7.3645,7.3423,7.3385,7.3385,7.3385,7.3385,7.3385,7.3385,7.3385,7.3385,7.3385,7.3385,7.2939,7.2233,7.2791,7.2072,7.0536,7.0536,7.0054,6.9274,6.8716,6.8493,6.8493,6.8493,6.8493,6.8493,9.7673,9.8211,9.825,9.6596,9.698,9.725,9.6442,9.6288,9.6288,9.6288,9.6288,9.6288,9.6288,9.6288,9.6288,9.6288,9.5518,9.4643,9.3749,9.2133,9.0816,8.9932,8.9133,8.8295,8.744,8.5623,8.4685,8.4711,8.2893,8.2006,8.1969,8.0297,7.9516,7.9479,7.8662,7.8327,7.829,7.829,7.829,7.829,7.829,7.829,7.829,7.829,7.829,7.829,7.829,7.829,7.829,7.829,7.829,7.829,7.829,7.829,7.829,7.829,7.829,7.829,7.829,7.829,7.829,7.829,7.829,7.829,7.829,7.829,7.829,7.829,7.829,7.829,7.829,7.7658,7.6804,7.5949,7.5801,7.554,7.4723,7.5318,7.5801,7.5801,7.5801,7.5801,7.5838,7.5801,7.5801,7.5838,7.5801,7.5466,7.4649,7.4612,7.424,7.3423,7.3385,7.3385,7.3385,7.3385,7.3385,7.3385,7.3385,7.3385,7.3385,7.3385,7.2939,7.2196,7.2196,7.1255,6.9719,6.9719,6.9236,6.8493,6.8493,6.8493,6.8493,6.8493,6.8493,6.8493,9.7557,9.8211,9.8442,9.7326,9.7326,9.725,9.6442,9.6288,9.6288,9.6288,9.6288,9.6288,9.6288,9.6288,9.6288,9.6288,9.6057,9.5288,9.3787,9.2133,9.1095,9.0816,8.944,8.8564,8.8333,8.6269,8.5018,8.4711,8.3763,8.2902,8.2006,8.1486,8.0631,7.9479,7.9256,7.8847,7.829,7.829,7.829,7.829,7.829,7.829,7.829,7.829,7.829,7.829,7.829,7.829,7.829,7.829,7.829,7.829,7.829,7.829,7.829,7.829,7.829,7.829,7.829,7.829,7.829,7.829,7.829,7.829,7.829,7.829,7.829,7.829,7.829,7.829,7.829,7.8104,7.7658,7.6841,7.6692,7.6395,7.5578,7.6172,7.6692,7.6692,7.6692,7.6915,7.751,7.7027,7.6952,7.751,7.7027,7.6358,7.5503,7.4909,7.424,7.3423,7.3385,7.3385,7.3385,7.3385,7.3385,7.3385,7.3385,7.3385,7.3385,7.3385,7.2629,7.1316,7.1936,7.1255,6.9719,6.9719,6.9571,6.9274,6.8716,6.8493,6.8493,6.8493,6.8493,6.8493,9.7019,9.7442,9.7634,9.7134,9.7019,9.6865,9.6365,9.6288,9.6288,9.6288,9.6288,9.6288,9.6288,9.6288,9.6288,9.6288,9.5672,9.4672,9.3326,9.1941,9.121,9.121,8.9902,8.9171,8.9171,8.7035,8.5772,8.5497,8.4406,8.3511,8.272,8.2233,8.1448,8.0482,7.9814,7.9219,7.8736,7.8439,7.829,7.829,7.829,7.829,7.829,7.829,7.829,7.829,7.829,7.829,7.829,7.829,7.829,7.829,7.829,7.829,7.829,7.829,7.829,7.829,7.829,7.829,7.829,7.829,7.829,7.829,7.829,7.829,7.829,7.829,7.829,7.829,7.829,7.829,7.8141,7.7658,7.7584,7.7398,7.6878,7.725,7.7584,7.7584,7.7584,7.777,7.8253,7.7844,7.777,7.8253,7.7844,7.7064,7.5875,7.5355,7.4574,7.3423,7.3385,7.3385,7.3385,7.3385,7.3385,7.3385,7.3385,7.3385,7.3385,7.3385,7.2679,7.1441,7.1589,7.092,6.9682,6.9348,6.9236,6.9199,6.8679,6.8493,6.8493,6.8493,6.8493,6.8493,9.6288,9.6288,9.6288,9.6288,9.6288,9.6288,9.6288,9.6288,9.6288,9.6288,9.6288,9.6288,9.6288,9.6288,9.6288,9.6288,9.4788,9.348,9.2672,9.1787,9.1287,9.121,9.0432,9.0009,9.0009,8.7868,8.6736,8.6706,8.4926,8.4002,8.3937,8.2734,8.2158,8.2052,8.0376,7.9582,7.9512,7.8638,7.829,7.829,7.829,7.829,7.829,7.829,7.8327,7.8402,7.8402,7.8402,7.8402,7.8327,7.829,7.829,7.829,7.829,7.829,7.829,7.829,7.829,7.829,7.829,7.829,7.829,7.829,7.829,7.829,7.829,7.829,7.829,7.829,7.829,7.829,7.829,7.829,7.829,7.829,7.829,7.829,7.829,7.829,7.829,7.829,7.829,7.829,7.829,7.829,7.829,7.8216,7.751,7.5912,7.5726,7.4983,7.346,7.3385,7.3385,7.3385,7.3385,7.3385,7.3385,7.3385,7.3385,7.3385,7.3385,7.2902,7.2048,7.1242,7.0388,6.9534,6.8791,6.8493,6.8493,6.8493,6.8493,6.8493,6.8493,6.8493,6.8493,9.6288,9.6288,9.6288,9.6288,9.6288,9.6288,9.6288,9.6288,9.6288,9.6288,9.6288,9.6288,9.6288,9.6288,9.6288,9.6288,9.5326,9.4335,9.348,9.2672,9.1902,9.1248,9.1018,9.0932,9.0932,8.8516,8.7061,8.6706,8.5596,8.4887,8.4498,8.3813,8.3336,8.3008,8.1235,8.0287,7.999,7.878,7.829,7.829,7.829,7.829,7.829,7.829,7.8699,7.9256,7.9256,7.9256,7.9145,7.8513,7.829,7.829,7.829,7.829,7.829,7.829,7.829,7.829,7.829,7.829,7.829,7.829,7.829,7.829,7.829,7.829,7.829,7.829,7.829,7.829,7.829,7.829,7.829,7.829,7.829,7.829,7.829,7.829,7.829,7.829,7.829,7.829,7.829,7.829,7.829,7.829,7.7733,7.6915,7.5875,7.5206,7.4426,7.3423,7.3385,7.3385,7.3385,7.3385,7.3385,7.3385,7.3385,7.3385,7.3385,7.3385,7.2592,7.1168,7.0982,7.0091,6.8753,6.8568,6.8493,6.8493,6.8493,6.8493,6.8493,6.8493,6.8493,6.8493,9.6288,9.6288,9.6288,9.6288,9.6288,9.6288,9.6288,9.6288,9.6288,9.6288,9.6288,9.6288,9.6288,9.6288,9.6134,9.5711,9.5258,9.4489,9.321,9.271,9.2095,9.1248,9.121,9.121,9.121,8.9479,8.8268,8.7656,8.6575,8.5668,8.5007,8.4521,8.4199,8.3942,8.2197,8.1307,8.1061,7.9578,7.8853,7.8607,7.862,7.8498,7.829,7.829,7.855,7.8996,7.9368,7.9516,7.9442,7.8996,7.8625,7.829,7.829,7.829,7.829,7.829,7.829,7.829,7.829,7.829,7.829,7.829,7.829,7.829,7.829,7.829,7.829,7.829,7.829,7.829,7.829,7.829,7.829,7.829,7.829,7.829,7.829,7.829,7.829,7.829,7.829,7.829,7.829,7.829,7.829,7.829,7.7547,7.6729,7.5838,7.5057,7.424,7.3423,7.3385,7.3385,7.3385,7.3385,7.3385,7.3385,7.3385,7.3385,7.3385,7.3385,7.2717,7.1515,7.1094,7.0202,6.9051,6.8642,6.8493,6.8493,6.8493,6.8493,6.8493,6.8493,6.8493,6.8493,9.6288,9.6288,9.6288,9.6288,9.6288,9.6288,9.6288,9.6288,9.6288,9.6288,9.6288,9.6288,9.6288,9.6288,9.6019,9.5297,9.522,9.4527,9.2826,9.271,9.2249,9.1248,9.121,9.121,9.121,9.047,8.971,8.891,8.7513,8.647,8.5734,8.4942,8.4729,8.4844,8.2845,8.2102,8.2217,8.0461,7.9475,7.9126,7.91,7.8879,7.8538,7.8431,7.8515,7.8725,7.9433,7.9702,7.9702,7.9702,7.907,7.8327,7.8476,7.8402,7.829,7.829,7.829,7.829,7.829,7.829,7.829,7.829,7.829,7.829,7.829,7.829,7.829,7.829,7.829,7.829,7.829,7.829,7.829,7.829,7.829,7.829,7.829,7.829,7.829,7.829,7.829,7.829,7.829,7.829,7.829,7.829,7.7435,7.6544,7.5838,7.4909,7.4091,7.3423,7.3385,7.3385,7.3385,7.3385,7.3385,7.3385,7.3385,7.3385,7.3385,7.3385,7.2865,7.1936,7.1205,7.0388,6.9459,6.8791,6.8493,6.8493,6.8493,6.8493,6.8493,6.8493,6.8493,6.8493,9.6288,9.6288,9.6288,9.6288,9.6288,9.6288,9.6288,9.6288,9.6288,9.6288,9.6288,9.6288,9.6288,9.6288,9.6249,9.6134,9.6134,9.5403,9.3633,9.3518,9.2826,9.1287,9.121,9.121,9.121,9.1095,9.0594,8.9739,8.8081,8.7257,8.7094,8.5131,8.4815,8.576,8.2517,8.1706,8.2673,8.0562,7.9665,7.961,7.961,7.9565,7.9464,7.9065,7.9341,8.0003,8.0391,8.0542,8.0542,8.0542,7.9553,7.8439,7.9108,7.8847,7.829,7.829,7.829,7.829,7.829,7.829,7.829,7.829,7.829,7.829,7.829,7.829,7.829,7.829,7.829,7.829,7.829,7.829,7.829,7.829,7.829,7.829,7.829,7.829,7.829,7.829,7.829,7.829,7.829,7.829,7.829,7.829,7.6878,7.5912,7.5801,7.4389,7.3497,7.3385,7.3385,7.3385,7.3385,7.3385,7.3385,7.3385,7.3385,7.3385,7.3385,7.3385,7.2555,7.1056,7.0945,7.0054,6.8642,6.8531,6.8493,6.8493,6.8493,6.8493,6.8493,6.8493,6.8493,6.8493,9.6288,9.6288,9.6288,9.6288,9.6288,9.6288,9.6288,9.6288,9.6288,9.6288,9.6288,9.6288,9.6288,9.6288,9.6288,9.6288,9.6288,9.5788,9.4527,9.3989,9.3172,9.1979,9.1479,9.121,9.121,9.121,9.1018,9.0624,8.894,8.7872,8.7363,8.5893,8.5518,8.6,8.4018,8.3197,8.3205,8.1771,8.0755,8.0073,8.0073,7.993,7.9675,7.9464,7.961,8.0031,8.0814,8.1233,8.1337,8.084,7.9925,7.8959,7.8847,7.8587,7.829,7.829,7.829,7.829,7.829,7.829,7.829,7.829,7.829,7.829,7.829,7.829,7.829,7.829,7.829,7.829,7.829,7.829,7.829,7.829,7.829,7.829,7.829,7.829,7.829,7.829,7.829,7.829,7.829,7.829,7.829,7.829,7.7213,7.6321,7.5838,7.4686,7.3868,7.3423,7.3385,7.3385,7.3385,7.3385,7.3385,7.3385,7.3385,7.3385,7.3385,7.2939,7.2072,7.0871,7.0425,6.9571,6.8493,6.8493,6.8493,6.8493,6.8493,6.8493,6.853,6.874,6.8855,6.8814]}]]